Darstellungsparameter: Aktuell verwendete Einstellungen:
Skalierung der Graphiken ... ?
xyx+y,   Skalierungsfaktor:      Skalierung: Modus: x, Faktor: 1
Darstellungszeitraum ... ?
Vom - - bis: - -   Zeitraum: 06.06.2014 - 12.06.2014
Min/Max/Avg-Anzeige ... ?
Zeige MMA aktuell
Zeige MMA Monat
Zeige MMA alles
Zeige --A aktuell
Zeige --A Monat
Zeige --A alles
Keine MMA-Anzeige
MMA:
Keine MMA-Graphiken
MMA-Basis: 06.06.2014 - 12.06.2014
Quicknavigation für Darstellung... ?
Tage:      1T, 2T, 3T, 5T -1T -2T -3T -5T +1T +2T +3T +5T
Wochen: 1W, 2W, 3W -1W -2W -3W +1W +2W +3W
Monate: 1M, 3M, 6M -1M -3M -6M +1M +3M +6M
Jahre:    1J, 3J, 5J, 10J -1J -3J -5J -10J +1J +3J +5J +10J
Nutze für die Darstellung ... ?
Originaldaten oder Mittelwerte auf ...
Stundenbasis Tagesbasis Wochenbasis
Monatsbasis Jahresbasis      Datenbasis: Original-Daten
Darstellen als:
Statistik (Auto) Statistik J:M      Darstellung:
Zur Graphik,    zurück zur Übersicht aller Sensoren.
 
Tabellarische Datenbersicht: ?
 
Sensor: Nr:Datum:Temp:Abs-Feuchte:Windchill:Wind:
Aussen-T/F 1 06-06-2014 00:00:00 10.6 C 7.81 g/m*3 10.6 C 1.6 km/h
2 06-06-2014 00:05:00 10.5 C 7.86 g/m*3 10.5 C 0 km/h
3 06-06-2014 00:10:00 10.3 C 7.76 g/m*3 10.3 C 0 km/h
4 06-06-2014 00:15:00 10.2 C 7.71 g/m*3 10.2 C 0 km/h
5 06-06-2014 00:20:00 10.1 C 7.75 g/m*3 10.1 C 0 km/h
6 06-06-2014 00:25:00 10 C 7.71 g/m*3 10 C 0 km/h
7 06-06-2014 00:30:00 9.9 C 7.66 g/m*3 9.9 C 0 km/h
8 06-06-2014 00:35:00 9.9 C 7.66 g/m*3 9.9 C 0 km/h
9 06-06-2014 00:40:00 9.8 C 7.7 g/m*3 9.8 C 0 km/h
10 06-06-2014 00:45:00 9.7 C 7.65 g/m*3 9.7 C 0 km/h
11 06-06-2014 00:50:00 9.7 C 7.74 g/m*3 9.7 C 0 km/h
12 06-06-2014 00:55:00 9.6 C 7.69 g/m*3 9.6 C 0 km/h
13 06-06-2014 01:00:00 9.5 C 7.65 g/m*3 9.5 C 0 km/h
14 06-06-2014 01:05:00 9.4 C 7.6 g/m*3 9.4 C 0 km/h
15 06-06-2014 01:10:00 9.3 C 7.64 g/m*3 9.3 C 0 km/h
16 06-06-2014 01:15:00 9.3 C 7.64 g/m*3 9.3 C 0 km/h
17 06-06-2014 01:20:00 9.2 C 7.68 g/m*3 9.2 C 0 km/h
18 06-06-2014 01:25:00 9.1 C 7.63 g/m*3 9.1 C 0 km/h
19 06-06-2014 01:30:00 9.1 C 7.63 g/m*3 9.1 C 0 km/h
20 06-06-2014 01:35:00 9.1 C 7.63 g/m*3 9.1 C 0 km/h
21 06-06-2014 01:40:00 9.1 C 7.54 g/m*3 9.1 C 0 km/h
22 06-06-2014 01:45:00 8.9 C 7.53 g/m*3 8.9 C 0 km/h
23 06-06-2014 01:50:00 8.9 C 7.53 g/m*3 8.9 C 0 km/h
24 06-06-2014 01:55:00 8.8 C 7.57 g/m*3 8.8 C 0 km/h
25 06-06-2014 02:00:00 8.7 C 7.52 g/m*3 8.7 C 0 km/h
Sensor: Nr:Datum:Temp:Abs-Feuchte:Windchill:Wind:
Aussen-T/F 26 06-06-2014 02:05:00 8.7 C 7.44 g/m*3 8.7 C 0 km/h
27 06-06-2014 02:10:00 8.7 C 7.52 g/m*3 8.7 C 0 km/h
28 06-06-2014 02:15:00 8.7 C 7.44 g/m*3 8.7 C 0 km/h
29 06-06-2014 02:20:00 8.7 C 7.52 g/m*3 8.7 C 0 km/h
30 06-06-2014 02:25:00 8.6 C 7.39 g/m*3 8.6 C 0 km/h
31 06-06-2014 02:30:00 8.4 C 7.38 g/m*3 8.4 C 0 km/h
32 06-06-2014 02:35:00 8.4 C 7.38 g/m*3 8.4 C 0 km/h
33 06-06-2014 02:40:00 8.4 C 7.38 g/m*3 8.4 C 0 km/h
34 06-06-2014 02:45:00 8.3 C 7.33 g/m*3 8.3 C 0 km/h
35 06-06-2014 02:50:00 8.3 C 7.42 g/m*3 8.3 C 0 km/h
36 06-06-2014 02:55:00 8.3 C 7.42 g/m*3 8.3 C 0 km/h
37 06-06-2014 03:00:00 8.3 C 7.42 g/m*3 8.3 C 0 km/h
38 06-06-2014 03:05:00 8.2 C 7.37 g/m*3 8.2 C 0 km/h
39 06-06-2014 03:10:00 8.2 C 7.37 g/m*3 8.2 C 0 km/h
40 06-06-2014 03:15:00 8.1 C 7.32 g/m*3 8.1 C 0 km/h
41 06-06-2014 03:20:00 8.1 C 7.41 g/m*3 8.1 C 0 km/h
42 06-06-2014 03:25:00 7.9 C 7.31 g/m*3 7.9 C 0 km/h
43 06-06-2014 03:30:00 7.9 C 7.31 g/m*3 7.9 C 0 km/h
44 06-06-2014 03:35:00 7.8 C 7.26 g/m*3 7.8 C 0 km/h
45 06-06-2014 03:40:00 7.8 C 7.35 g/m*3 7.8 C 0 km/h
46 06-06-2014 03:45:00 7.7 C 7.3 g/m*3 7.7 C 0 km/h
47 06-06-2014 03:50:00 7.7 C 7.3 g/m*3 7.7 C 0 km/h
48 06-06-2014 03:55:00 7.7 C 7.3 g/m*3 7.7 C 0 km/h
49 06-06-2014 04:00:00 7.6 C 7.25 g/m*3 7.6 C 0 km/h
50 06-06-2014 04:05:00 7.5 C 7.2 g/m*3 7.5 C 0 km/h
Sensor: Nr:Datum:Temp:Abs-Feuchte:Windchill:Wind:
Aussen-T/F 51 06-06-2014 04:10:00 7.4 C 7.24 g/m*3 7.4 C 0 km/h
52 06-06-2014 04:15:00 7.4 C 7.24 g/m*3 7.4 C 1.6 km/h
53 06-06-2014 04:20:00 7.3 C 7.19 g/m*3 7.3 C 0 km/h
54 06-06-2014 04:25:00 7.3 C 7.19 g/m*3 7.3 C 0 km/h
55 06-06-2014 04:30:00 7.3 C 7.19 g/m*3 7.3 C 0 km/h
56 06-06-2014 04:35:00 7.2 C 7.22 g/m*3 7.2 C 0 km/h
57 06-06-2014 04:40:00 7.2 C 7.22 g/m*3 7.2 C 0 km/h
58 06-06-2014 04:45:00 7.2 C 7.22 g/m*3 7.2 C 0 km/h
59 06-06-2014 04:50:00 7.2 C 7.22 g/m*3 7.2 C 0 km/h
60 06-06-2014 04:55:00 7.1 C 7.18 g/m*3 7.1 C 0 km/h
61 06-06-2014 05:00:00 7.1 C 7.18 g/m*3 7.1 C 0 km/h
62 06-06-2014 05:05:00 7 C 7.13 g/m*3 7 C 0 km/h
63 06-06-2014 05:10:00 7.1 C 7.25 g/m*3 7.1 C 0 km/h
64 06-06-2014 05:15:00 7 C 7.21 g/m*3 7 C 0 km/h
65 06-06-2014 05:20:00 7 C 7.21 g/m*3 7 C 0 km/h
66 06-06-2014 05:25:00 6.9 C 7.16 g/m*3 6.9 C 0 km/h
67 06-06-2014 05:30:00 6.8 C 7.11 g/m*3 6.8 C 0 km/h
68 06-06-2014 05:35:00 6.8 C 7.11 g/m*3 6.8 C 0 km/h
69 06-06-2014 05:40:00 6.8 C 7.11 g/m*3 6.8 C 0 km/h
70 06-06-2014 05:45:00 6.8 C 7.11 g/m*3 6.8 C 0 km/h
71 06-06-2014 05:50:00 6.8 C 7.11 g/m*3 6.8 C 0 km/h
72 06-06-2014 05:55:00 6.8 C 7.11 g/m*3 6.8 C 0 km/h
73 06-06-2014 06:00:00 6.8 C 7.19 g/m*3 6.8 C 0 km/h
74 06-06-2014 06:05:00 6.8 C 7.19 g/m*3 6.8 C 0 km/h
75 06-06-2014 06:10:00 6.8 C 7.19 g/m*3 6.8 C 0 km/h
Sensor: Nr:Datum:Temp:Abs-Feuchte:Windchill:Wind:
Aussen-T/F 76 06-06-2014 06:15:00 6.8 C 7.19 g/m*3 6.8 C 0 km/h
77 06-06-2014 06:20:00 6.8 C 7.19 g/m*3 6.8 C 0 km/h
78 06-06-2014 06:25:00 6.8 C 7.19 g/m*3 6.8 C 0 km/h
79 06-06-2014 06:30:00 6.9 C 7.24 g/m*3 6.9 C 0 km/h
80 06-06-2014 06:35:00 6.9 C 7.24 g/m*3 6.9 C 0 km/h
81 06-06-2014 06:40:00 6.9 C 7.24 g/m*3 6.9 C 0 km/h
82 06-06-2014 06:45:00 7 C 7.28 g/m*3 7 C 0 km/h
83 06-06-2014 06:50:00 7.1 C 7.33 g/m*3 7.1 C 0 km/h
84 06-06-2014 06:55:00 7.1 C 7.33 g/m*3 7.1 C 0 km/h
85 06-06-2014 07:00:00 7.2 C 7.38 g/m*3 7.2 C 0 km/h
86 06-06-2014 07:05:00 7.2 C 7.38 g/m*3 7.2 C 0 km/h
87 06-06-2014 07:10:00 7.3 C 7.43 g/m*3 7.3 C 0 km/h
88 06-06-2014 07:15:00 7.4 C 7.48 g/m*3 7.4 C 0 km/h
89 06-06-2014 07:20:00 7.5 C 7.52 g/m*3 7.5 C 1.6 km/h
90 06-06-2014 07:25:00 7.6 C 7.57 g/m*3 7.6 C 0 km/h
91 06-06-2014 07:30:00 7.7 C 7.62 g/m*3 7.7 C 0 km/h
92 06-06-2014 07:35:00 7.8 C 7.67 g/m*3 7.8 C 0 km/h
93 06-06-2014 07:40:00 8 C 7.77 g/m*3 8 C 0 km/h
94 06-06-2014 07:45:00 8.2 C 7.87 g/m*3 8.2 C 0 km/h
95 06-06-2014 07:50:00 8.5 C 8.03 g/m*3 8.5 C 0 km/h
96 06-06-2014 07:55:00 8.8 C 8.09 g/m*3 8.8 C 0 km/h
97 06-06-2014 08:00:00 9.1 C 8.25 g/m*3 9.1 C 0 km/h
98 06-06-2014 08:05:00 9.5 C 8.37 g/m*3 9.5 C 0 km/h
99 06-06-2014 08:10:00 9.8 C 8.44 g/m*3 9.8 C 0 km/h
100 06-06-2014 08:15:00 10.2 C 8.37 g/m*3 10.2 C 0 km/h
Sensor: Nr:Datum:Temp:Abs-Feuchte:Windchill:Wind:
Aussen-T/F 101 06-06-2014 08:20:00 10.4 C 8.29 g/m*3 10.4 C 0 km/h
102 06-06-2014 08:25:00 10.7 C 8.35 g/m*3 10.7 C 0 km/h
103 06-06-2014 08:30:00 10.9 C 8.36 g/m*3 10.9 C 0 km/h
104 06-06-2014 08:35:00 11.2 C 8.51 g/m*3 11.2 C 0 km/h
105 06-06-2014 08:40:00 11.5 C 8.78 g/m*3 11.5 C 0 km/h
106 06-06-2014 08:45:00 11.9 C 8.9 g/m*3 11.9 C 1.6 km/h
107 06-06-2014 08:50:00 12.4 C 9.07 g/m*3 12.4 C 0 km/h
108 06-06-2014 08:55:00 13 C 9.19 g/m*3 13 C 0 km/h
109 06-06-2014 09:00:00 13.3 C 9.01 g/m*3 13.3 C 1.6 km/h
110 06-06-2014 09:05:00 13.3 C 8.9 g/m*3 13.3 C 0 km/h
111 06-06-2014 09:10:00 13.3 C 8.9 g/m*3 13.3 C 1.6 km/h
112 06-06-2014 09:15:00 13.3 C 9.13 g/m*3 13.3 C 0 km/h
113 06-06-2014 09:20:00 13.3 C 9.24 g/m*3 13.3 C 0 km/h
114 06-06-2014 09:25:00 13.4 C 9.18 g/m*3 13.4 C 1.6 km/h
115 06-06-2014 09:30:00 13.5 C 9.24 g/m*3 13.5 C 4.8 km/h
116 06-06-2014 09:35:00 13.6 C 9.18 g/m*3 13.6 C 4.8 km/h
117 06-06-2014 09:40:00 13.7 C 9.24 g/m*3 13.7 C 1.6 km/h
118 06-06-2014 09:45:00 13.8 C 9.29 g/m*3 13.8 C 1.6 km/h
119 06-06-2014 09:50:00 14.1 C 9.47 g/m*3 14.1 C 3.2 km/h
120 06-06-2014 09:55:00 14.3 C 9.58 g/m*3 14.3 C 3.2 km/h
121 06-06-2014 10:00:00 14.7 C 9.69 g/m*3 14.7 C 3.2 km/h
122 06-06-2014 10:05:00 15.1 C 9.8 g/m*3 15.1 C 1.6 km/h
123 06-06-2014 10:10:00 15.5 C 10.18 g/m*3 15.5 C 3.2 km/h
124 06-06-2014 10:15:00 15.8 C 9.83 g/m*3 15.8 C 0 km/h
125 06-06-2014 10:20:00 16.3 C 10.27 g/m*3 16.3 C 1.6 km/h
Sensor: Nr:Datum:Temp:Abs-Feuchte:Windchill:Wind:
Aussen-T/F 126 06-06-2014 10:25:00 16.8 C 10.15 g/m*3 16.8 C 1.6 km/h
127 06-06-2014 10:30:00 17.2 C 9.96 g/m*3 17.2 C 1.6 km/h
128 06-06-2014 10:35:00 17.4 C 10.23 g/m*3 17.4 C 3.2 km/h
129 06-06-2014 10:40:00 17.4 C 10.52 g/m*3 17.4 C 3.2 km/h
130 06-06-2014 10:45:00 17.5 C 9.99 g/m*3 17.5 C 3.2 km/h
131 06-06-2014 10:50:00 17.6 C 10.35 g/m*3 17.6 C 3.2 km/h
132 06-06-2014 10:55:00 17.7 C 10.56 g/m*3 17.7 C 0 km/h
133 06-06-2014 11:00:00 17.8 C 10.93 g/m*3 17.8 C 1.6 km/h
134 06-06-2014 11:05:00 17.9 C 11.15 g/m*3 17.9 C 0 km/h
135 06-06-2014 11:10:00 17.7 C 11.16 g/m*3 17.7 C 0 km/h
136 06-06-2014 11:15:00 17.8 C 11.38 g/m*3 17.8 C 3.2 km/h
137 06-06-2014 11:20:00 18.2 C 10.57 g/m*3 18.2 C 4.8 km/h
138 06-06-2014 11:25:00 19.1 C 10.33 g/m*3 19.1 C 6.4 km/h
139 06-06-2014 11:30:00 20.2 C 10.32 g/m*3 20.2 C 8.1 km/h
140 06-06-2014 11:35:00 20.8 C 10.5 g/m*3 20.8 C 9.7 km/h
141 06-06-2014 11:40:00 21.1 C 10.69 g/m*3 21.1 C 11.3 km/h
142 06-06-2014 11:45:00 21.4 C 10.69 g/m*3 21.4 C 11.3 km/h
143 06-06-2014 11:50:00 21.7 C 10.87 g/m*3 21.7 C 8.1 km/h
144 06-06-2014 11:55:00 21.9 C 10.42 g/m*3 21.9 C 11.3 km/h
145 06-06-2014 12:00:00 22.2 C 10.41 g/m*3 22.2 C 11.3 km/h
146 06-06-2014 12:05:00 22.3 C 9.87 g/m*3 22.3 C 11.3 km/h
147 06-06-2014 12:10:00 22.6 C 9.84 g/m*3 22.6 C 9.7 km/h
148 06-06-2014 12:15:00 22.8 C 9.96 g/m*3 22.8 C 4.8 km/h
149 06-06-2014 12:20:00 23.1 C 11.16 g/m*3 23.1 C 6.4 km/h
150 06-06-2014 12:25:00 23.3 C 9.83 g/m*3 23.3 C 6.4 km/h
Sensor: Nr:Datum:Temp:Abs-Feuchte:Windchill:Wind:
Aussen-T/F 151 06-06-2014 12:30:00 23.4 C 10.3 g/m*3 23.4 C 6.4 km/h
152 06-06-2014 12:35:00 23.6 C 9.57 g/m*3 23.6 C 11.3 km/h
153 06-06-2014 12:40:00 23.5 C 9.52 g/m*3 23.5 C 6.4 km/h
154 06-06-2014 12:45:00 23.6 C 8.93 g/m*3 23.6 C 4.8 km/h
155 06-06-2014 12:50:00 23.8 C 9.25 g/m*3 23.8 C 4.8 km/h
156 06-06-2014 12:55:00 23.9 C 8.65 g/m*3 23.9 C 4.8 km/h
157 06-06-2014 13:00:00 24.1 C 8.97 g/m*3 24.1 C 3.2 km/h
158 06-06-2014 13:05:00 24.3 C 9.52 g/m*3 24.3 C 6.4 km/h
159 06-06-2014 13:10:00 24.5 C 10.07 g/m*3 24.5 C 8.1 km/h
160 06-06-2014 13:15:00 24.6 C 8.78 g/m*3 24.6 C 6.4 km/h
161 06-06-2014 13:20:00 24.4 C 9.79 g/m*3 24.4 C 8.1 km/h
162 06-06-2014 13:25:00 24.7 C 9.05 g/m*3 24.7 C 6.4 km/h
163 06-06-2014 13:30:00 24.8 C 10.02 g/m*3 24.8 C 6.4 km/h
164 06-06-2014 13:35:00 25 C 9.21 g/m*3 25 C 9.7 km/h
165 06-06-2014 13:40:00 25 C 9.44 g/m*3 25 C 11.3 km/h
166 06-06-2014 13:45:00 24.8 C 9.79 g/m*3 24.8 C 6.4 km/h
167 06-06-2014 13:50:00 25 C 8.75 g/m*3 25 C 6.4 km/h
168 06-06-2014 13:55:00 25.3 C 10.07 g/m*3 25.3 C 6.4 km/h
169 06-06-2014 14:00:00 25.6 C 9.28 g/m*3 25.6 C 6.4 km/h
170 06-06-2014 14:05:00 25.6 C 10 g/m*3 25.6 C 9.7 km/h
171 06-06-2014 14:10:00 25.7 C 10.29 g/m*3 25.7 C 6.4 km/h
172 06-06-2014 14:15:00 25.8 C 9.87 g/m*3 25.8 C 11.3 km/h
173 06-06-2014 14:20:00 25.8 C 9.39 g/m*3 25.8 C 14.5 km/h
174 06-06-2014 14:25:00 25.9 C 9.44 g/m*3 25.9 C 14.5 km/h
175 06-06-2014 14:30:00 26 C 9.98 g/m*3 26 C 14.5 km/h
Sensor: Nr:Datum:Temp:Abs-Feuchte:Windchill:Wind:
Aussen-T/F 176 06-06-2014 14:35:00 26.1 C 9.79 g/m*3 26.1 C 12.9 km/h
177 06-06-2014 14:40:00 26.2 C 10.34 g/m*3 26.2 C 11.3 km/h
178 06-06-2014 14:45:00 26.2 C 10.09 g/m*3 26.2 C 11.3 km/h
179 06-06-2014 14:50:00 26.3 C 9.9 g/m*3 26.3 C 6.4 km/h
180 06-06-2014 14:55:00 26.4 C 10.21 g/m*3 26.4 C 6.4 km/h
181 06-06-2014 15:00:00 26.7 C 9.87 g/m*3 26.7 C 6.4 km/h
182 06-06-2014 15:05:00 26.6 C 9.57 g/m*3 26.6 C 6.4 km/h
183 06-06-2014 15:10:00 26.5 C 10.01 g/m*3 26.5 C 8.1 km/h
184 06-06-2014 15:15:00 26.6 C 9.82 g/m*3 26.6 C 4.8 km/h
185 06-06-2014 15:20:00 26.7 C 9.11 g/m*3 26.7 C 8.1 km/h
186 06-06-2014 15:25:00 26.7 C 9.37 g/m*3 26.7 C 4.8 km/h
187 06-06-2014 15:30:00 26.7 C 9.62 g/m*3 26.7 C 4.8 km/h
188 06-06-2014 15:35:00 26.8 C 9.42 g/m*3 26.8 C 11.3 km/h
189 06-06-2014 15:40:00 26.9 C 9.73 g/m*3 26.9 C 8.1 km/h
190 06-06-2014 15:45:00 27.4 C 10.52 g/m*3 27.4 C 6.4 km/h
191 06-06-2014 15:50:00 27.8 C 10.22 g/m*3 27.8 C 6.4 km/h
192 06-06-2014 15:55:00 27.8 C 10.22 g/m*3 27.8 C 8.1 km/h
193 06-06-2014 16:00:00 27.8 C 10.22 g/m*3 27.8 C 12.9 km/h
194 06-06-2014 16:05:00 27.6 C 9.31 g/m*3 27.6 C 9.7 km/h
195 06-06-2014 16:10:00 27.3 C 11.25 g/m*3 27.3 C 6.4 km/h
196 06-06-2014 16:15:00 27.1 C 9.32 g/m*3 27.1 C 4.8 km/h
197 06-06-2014 16:20:00 27.2 C 10.15 g/m*3 27.2 C 9.7 km/h
198 06-06-2014 16:25:00 27.8 C 9.68 g/m*3 27.8 C 9.7 km/h
199 06-06-2014 16:30:00 28.2 C 10.17 g/m*3 28.2 C 11.3 km/h
200 06-06-2014 16:35:00 27.8 C 10.49 g/m*3 27.8 C 6.4 km/h
Sensor: Nr:Datum:Temp:Abs-Feuchte:Windchill:Wind:
Aussen-T/F 201 06-06-2014 16:40:00 27.3 C 9.68 g/m*3 27.3 C 3.2 km/h
202 06-06-2014 16:45:00 27.2 C 9.63 g/m*3 27.2 C 6.4 km/h
203 06-06-2014 16:50:00 27.4 C 9.21 g/m*3 27.4 C 3.2 km/h
204 06-06-2014 16:55:00 27.4 C 9.21 g/m*3 27.4 C 4.8 km/h
205 06-06-2014 17:00:00 27.2 C 9.63 g/m*3 27.2 C 4.8 km/h
206 06-06-2014 17:05:00 27.5 C 10.58 g/m*3 27.5 C 11.3 km/h
207 06-06-2014 17:10:00 27.9 C 9.74 g/m*3 27.9 C 3.2 km/h
208 06-06-2014 17:15:00 28.1 C 9.3 g/m*3 28.1 C 3.2 km/h
209 06-06-2014 17:20:00 27.8 C 8.88 g/m*3 27.8 C 3.2 km/h
210 06-06-2014 17:25:00 27.7 C 10.16 g/m*3 27.7 C 0 km/h
211 06-06-2014 17:30:00 27.9 C 9.74 g/m*3 27.9 C 6.4 km/h
212 06-06-2014 17:35:00 27.8 C 11.57 g/m*3 27.8 C 6.4 km/h
213 06-06-2014 17:40:00 27 C 11.58 g/m*3 27 C 1.6 km/h
214 06-06-2014 17:45:00 25.8 C 12.76 g/m*3 25.8 C 1.6 km/h
215 06-06-2014 17:50:00 25.7 C 10.53 g/m*3 25.7 C 8.1 km/h
216 06-06-2014 17:55:00 26.4 C 11.7 g/m*3 26.4 C 8.1 km/h
217 06-06-2014 18:00:00 27.3 C 10.2 g/m*3 27.3 C 8.1 km/h
218 06-06-2014 18:05:00 27.8 C 11.03 g/m*3 27.8 C 11.3 km/h
219 06-06-2014 18:10:00 28.1 C 10.94 g/m*3 28.1 C 8.1 km/h
220 06-06-2014 18:15:00 28.2 C 10.45 g/m*3 28.2 C 9.7 km/h
221 06-06-2014 18:20:00 28.1 C 10.12 g/m*3 28.1 C 11.3 km/h
222 06-06-2014 18:25:00 28.2 C 10.45 g/m*3 28.2 C 9.7 km/h
223 06-06-2014 18:30:00 28.3 C 10.23 g/m*3 28.3 C 11.3 km/h
224 06-06-2014 18:35:00 28.4 C 10.56 g/m*3 28.4 C 6.4 km/h
225 06-06-2014 18:40:00 28.3 C 10.51 g/m*3 28.3 C 9.7 km/h
Sensor: Nr:Datum:Temp:Abs-Feuchte:Windchill:Wind:
Aussen-T/F 226 06-06-2014 18:45:00 28 C 9.79 g/m*3 28 C 8.1 km/h
227 06-06-2014 18:50:00 28.1 C 10.39 g/m*3 28.1 C 9.7 km/h
228 06-06-2014 18:55:00 28.1 C 11.76 g/m*3 28.1 C 6.4 km/h
229 06-06-2014 19:00:00 28 C 10.88 g/m*3 28 C 8.1 km/h
230 06-06-2014 19:05:00 28.1 C 10.66 g/m*3 28.1 C 6.4 km/h
231 06-06-2014 19:10:00 27.9 C 10.01 g/m*3 27.9 C 6.4 km/h
232 06-06-2014 19:15:00 27.6 C 10.11 g/m*3 27.6 C 8.1 km/h
233 06-06-2014 19:20:00 27.3 C 10.2 g/m*3 27.3 C 9.7 km/h
234 06-06-2014 19:25:00 27.1 C 10.35 g/m*3 27.1 C 9.7 km/h
235 06-06-2014 19:30:00 26.7 C 12.4 g/m*3 26.7 C 6.4 km/h
236 06-06-2014 19:35:00 26 C 12.17 g/m*3 26 C 0 km/h
237 06-06-2014 19:40:00 25.3 C 12.17 g/m*3 25.3 C 1.6 km/h
238 06-06-2014 19:45:00 24.8 C 11.61 g/m*3 24.8 C 4.8 km/h
239 06-06-2014 19:50:00 24.6 C 10.58 g/m*3 24.6 C 4.8 km/h
240 06-06-2014 19:55:00 24.6 C 13.05 g/m*3 24.6 C 1.6 km/h
241 06-06-2014 20:00:00 24.2 C 12.76 g/m*3 24.2 C 1.6 km/h
242 06-06-2014 20:05:00 23.9 C 12.55 g/m*3 23.9 C 1.6 km/h
243 06-06-2014 20:10:00 23.6 C 12.97 g/m*3 23.6 C 3.2 km/h
244 06-06-2014 20:15:00 23 C 12.74 g/m*3 23 C 0 km/h
245 06-06-2014 20:20:00 22.6 C 12.86 g/m*3 22.6 C 1.6 km/h
246 06-06-2014 20:25:00 22.3 C 12.64 g/m*3 22.3 C 0 km/h
247 06-06-2014 20:30:00 22 C 12.42 g/m*3 22 C 1.6 km/h
248 06-06-2014 20:35:00 21.8 C 12.66 g/m*3 21.8 C 0 km/h
249 06-06-2014 20:40:00 21.6 C 12.52 g/m*3 21.6 C 0 km/h
250 06-06-2014 20:45:00 21.4 C 12.19 g/m*3 21.4 C 1.6 km/h
Sensor: Nr:Datum:Temp:Abs-Feuchte:Windchill:Wind:
Aussen-T/F 251 06-06-2014 20:50:00 21.3 C 12.49 g/m*3 21.3 C 1.6 km/h
252 06-06-2014 20:55:00 21.2 C 12.6 g/m*3 21.2 C 0 km/h
253 06-06-2014 21:00:00 21 C 12.27 g/m*3 21 C 1.6 km/h
254 06-06-2014 21:05:00 20.8 C 12.31 g/m*3 20.8 C 1.6 km/h
255 06-06-2014 21:10:00 20.4 C 12.21 g/m*3 20.4 C 0 km/h
256 06-06-2014 21:15:00 20.2 C 11.89 g/m*3 20.2 C 1.6 km/h
257 06-06-2014 21:20:00 19.9 C 11.85 g/m*3 19.9 C 0 km/h
258 06-06-2014 21:25:00 19.7 C 11.89 g/m*3 19.7 C 1.6 km/h
259 06-06-2014 21:30:00 19.6 C 11.99 g/m*3 19.6 C 1.6 km/h
260 06-06-2014 21:35:00 19.3 C 11.61 g/m*3 19.3 C 1.6 km/h
261 06-06-2014 21:40:00 19.2 C 11.71 g/m*3 19.2 C 1.6 km/h
262 06-06-2014 21:45:00 19.1 C 11.8 g/m*3 19.1 C 1.6 km/h
263 06-06-2014 21:50:00 18.9 C 11.5 g/m*3 18.9 C 1.6 km/h
264 06-06-2014 21:55:00 18.8 C 11.76 g/m*3 18.8 C 1.6 km/h
265 06-06-2014 22:00:00 18.7 C 11.53 g/m*3 18.7 C 1.6 km/h
266 06-06-2014 22:05:00 18.6 C 11.62 g/m*3 18.6 C 1.6 km/h
267 06-06-2014 22:10:00 18.4 C 11.32 g/m*3 18.4 C 1.6 km/h
268 06-06-2014 22:15:00 18.4 C 11.48 g/m*3 18.4 C 0 km/h
269 06-06-2014 22:20:00 18.3 C 11.26 g/m*3 18.3 C 0 km/h
270 06-06-2014 22:25:00 18.2 C 11.35 g/m*3 18.2 C 0 km/h
271 06-06-2014 22:30:00 18.1 C 11.59 g/m*3 18.1 C 1.6 km/h
272 06-06-2014 22:35:00 18 C 11.37 g/m*3 18 C 1.6 km/h
273 06-06-2014 22:40:00 17.9 C 11.15 g/m*3 17.9 C 0 km/h
274 06-06-2014 22:45:00 17.9 C 10.84 g/m*3 17.9 C 0 km/h
275 06-06-2014 22:50:00 17.9 C 11.15 g/m*3 17.9 C 0 km/h
Sensor: Nr:Datum:Temp:Abs-Feuchte:Windchill:Wind:
Aussen-T/F 276 06-06-2014 22:55:00 17.8 C 11.38 g/m*3 17.8 C 1.6 km/h
277 06-06-2014 23:00:00 17.7 C 11.32 g/m*3 17.7 C 1.6 km/h
278 06-06-2014 23:05:00 17.6 C 11.1 g/m*3 17.6 C 1.6 km/h
279 06-06-2014 23:10:00 17.5 C 10.88 g/m*3 17.5 C 0 km/h
280 06-06-2014 23:15:00 17.4 C 11.26 g/m*3 17.4 C 0 km/h
281 06-06-2014 23:20:00 17.4 C 11.26 g/m*3 17.4 C 0 km/h
282 06-06-2014 23:25:00 17.3 C 11.34 g/m*3 17.3 C 1.6 km/h
283 06-06-2014 23:30:00 17.2 C 10.84 g/m*3 17.2 C 0 km/h
284 06-06-2014 23:35:00 17.2 C 10.69 g/m*3 17.2 C 0 km/h
285 06-06-2014 23:40:00 17.2 C 11.13 g/m*3 17.2 C 0 km/h
286 06-06-2014 23:45:00 17.1 C 10.92 g/m*3 17.1 C 0 km/h
287 06-06-2014 23:50:00 16.8 C 10.87 g/m*3 16.8 C 0 km/h
288 06-06-2014 23:55:00 16.7 C 10.94 g/m*3 16.7 C 0 km/h
289 07-06-2014 00:00:00 16.5 C 10.81 g/m*3 16.5 C 0 km/h
290 07-06-2014 00:05:00 16.4 C 10.47 g/m*3 16.4 C 0 km/h
291 07-06-2014 00:10:00 16.4 C 10.47 g/m*3 16.4 C 0 km/h
292 07-06-2014 00:15:00 16.3 C 10.54 g/m*3 16.3 C 0 km/h
293 07-06-2014 00:20:00 16.2 C 10.48 g/m*3 16.2 C 3.2 km/h
294 07-06-2014 00:25:00 16.1 C 10.55 g/m*3 16.1 C 1.6 km/h
295 07-06-2014 00:30:00 15.9 C 10.43 g/m*3 15.9 C 0 km/h
296 07-06-2014 00:35:00 15.8 C 10.5 g/m*3 15.8 C 0 km/h
297 07-06-2014 00:40:00 15.7 C 10.57 g/m*3 15.7 C 0 km/h
298 07-06-2014 00:45:00 15.6 C 10.64 g/m*3 15.6 C 0 km/h
299 07-06-2014 00:50:00 15.4 C 10.38 g/m*3 15.4 C 0 km/h
300 07-06-2014 00:55:00 15.2 C 10.38 g/m*3 15.2 C 0 km/h
Sensor: Nr:Datum:Temp:Abs-Feuchte:Windchill:Wind:
Aussen-T/F 301 07-06-2014 01:00:00 15.2 C 10.38 g/m*3 15.2 C 0 km/h
302 07-06-2014 01:05:00 15.1 C 10.45 g/m*3 15.1 C 0 km/h
303 07-06-2014 01:10:00 15.1 C 10.45 g/m*3 15.1 C 0 km/h
304 07-06-2014 01:15:00 14.9 C 10.32 g/m*3 14.9 C 0 km/h
305 07-06-2014 01:20:00 14.9 C 10.32 g/m*3 14.9 C 0 km/h
306 07-06-2014 01:25:00 14.8 C 10.39 g/m*3 14.8 C 0 km/h
307 07-06-2014 01:30:00 14.8 C 10.39 g/m*3 14.8 C 0 km/h
308 07-06-2014 01:35:00 14.6 C 10.26 g/m*3 14.6 C 0 km/h
309 07-06-2014 01:40:00 14.5 C 10.32 g/m*3 14.5 C 0 km/h
310 07-06-2014 01:45:00 14.4 C 10.26 g/m*3 14.4 C 0 km/h
311 07-06-2014 01:50:00 14.2 C 10.01 g/m*3 14.2 C 0 km/h
312 07-06-2014 01:55:00 14.1 C 9.95 g/m*3 14.1 C 0 km/h
313 07-06-2014 02:00:00 14.1 C 10.07 g/m*3 14.1 C 0 km/h
314 07-06-2014 02:05:00 14 C 10.01 g/m*3 14 C 0 km/h
315 07-06-2014 02:10:00 14 C 10.01 g/m*3 14 C 0 km/h
316 07-06-2014 02:15:00 14 C 10.13 g/m*3 14 C 0 km/h
317 07-06-2014 02:20:00 14 C 10.01 g/m*3 14 C 0 km/h
318 07-06-2014 02:25:00 14 C 10.01 g/m*3 14 C 0 km/h
319 07-06-2014 02:30:00 14 C 10.01 g/m*3 14 C 0 km/h
320 07-06-2014 02:35:00 13.9 C 9.95 g/m*3 13.9 C 0 km/h
321 07-06-2014 02:40:00 13.8 C 10.01 g/m*3 13.8 C 0 km/h
322 07-06-2014 02:45:00 13.7 C 9.95 g/m*3 13.7 C 0 km/h
323 07-06-2014 02:50:00 13.7 C 9.95 g/m*3 13.7 C 0 km/h
324 07-06-2014 02:55:00 13.6 C 10 g/m*3 13.6 C 0 km/h
325 07-06-2014 03:00:00 13.5 C 9.94 g/m*3 13.5 C 0 km/h
Sensor: Nr:Datum:Temp:Abs-Feuchte:Windchill:Wind:
Aussen-T/F 326 07-06-2014 03:05:00 13.4 C 9.88 g/m*3 13.4 C 0 km/h
327 07-06-2014 03:10:00 13.4 C 9.88 g/m*3 13.4 C 0 km/h
328 07-06-2014 03:15:00 13.3 C 9.94 g/m*3 13.3 C 0 km/h
329 07-06-2014 03:20:00 13.3 C 9.94 g/m*3 13.3 C 0 km/h
330 07-06-2014 03:25:00 13.2 C 9.87 g/m*3 13.2 C 0 km/h
331 07-06-2014 03:30:00 13.1 C 9.81 g/m*3 13.1 C 0 km/h
332 07-06-2014 03:35:00 12.9 C 9.81 g/m*3 12.9 C 0 km/h
333 07-06-2014 03:40:00 12.9 C 9.81 g/m*3 12.9 C 0 km/h
334 07-06-2014 03:45:00 12.8 C 9.74 g/m*3 12.8 C 0 km/h
335 07-06-2014 03:50:00 12.8 C 9.74 g/m*3 12.8 C 0 km/h
336 07-06-2014 03:55:00 12.8 C 9.74 g/m*3 12.8 C 0 km/h
337 07-06-2014 04:00:00 12.7 C 9.68 g/m*3 12.7 C 0 km/h
338 07-06-2014 04:05:00 12.7 C 9.68 g/m*3 12.7 C 0 km/h
339 07-06-2014 04:10:00 12.7 C 9.8 g/m*3 12.7 C 0 km/h
340 07-06-2014 04:15:00 12.6 C 9.74 g/m*3 12.6 C 0 km/h
341 07-06-2014 04:20:00 12.5 C 9.68 g/m*3 12.5 C 0 km/h
342 07-06-2014 04:25:00 12.4 C 9.72 g/m*3 12.4 C 0 km/h
343 07-06-2014 04:30:00 12.4 C 9.72 g/m*3 12.4 C 0 km/h
344 07-06-2014 04:35:00 12.3 C 9.77 g/m*3 12.3 C 0 km/h
345 07-06-2014 04:40:00 12.3 C 9.66 g/m*3 12.3 C 0 km/h
346 07-06-2014 04:45:00 12.3 C 9.66 g/m*3 12.3 C 0 km/h
347 07-06-2014 04:50:00 12.2 C 9.6 g/m*3 12.2 C 0 km/h
348 07-06-2014 04:55:00 12.2 C 9.6 g/m*3 12.2 C 0 km/h
349 07-06-2014 05:00:00 12.2 C 9.6 g/m*3 12.2 C 0 km/h
350 07-06-2014 05:05:00 12.2 C 9.71 g/m*3 12.2 C 0 km/h
Sensor: Nr:Datum:Temp:Abs-Feuchte:Windchill:Wind:
Aussen-T/F 351 07-06-2014 05:10:00 12.1 C 9.65 g/m*3 12.1 C 0 km/h
352 07-06-2014 05:15:00 12.1 C 9.65 g/m*3 12.1 C 0 km/h
353 07-06-2014 05:20:00 12.1 C 9.65 g/m*3 12.1 C 0 km/h
354 07-06-2014 05:25:00 12.1 C 9.76 g/m*3 12.1 C 0 km/h
355 07-06-2014 05:30:00 12.1 C 9.76 g/m*3 12.1 C 0 km/h
356 07-06-2014 05:35:00 12.1 C 9.76 g/m*3 12.1 C 0 km/h
357 07-06-2014 05:40:00 12 C 9.7 g/m*3 12 C 0 km/h
358 07-06-2014 05:45:00 12 C 9.7 g/m*3 12 C 0 km/h
359 07-06-2014 05:50:00 12 C 9.7 g/m*3 12 C 0 km/h
360 07-06-2014 05:55:00 12.1 C 9.76 g/m*3 12.1 C 0 km/h
361 07-06-2014 06:00:00 12.1 C 9.76 g/m*3 12.1 C 0 km/h
362 07-06-2014 06:05:00 12.1 C 9.76 g/m*3 12.1 C 0 km/h
363 07-06-2014 06:10:00 12.2 C 9.82 g/m*3 12.2 C 0 km/h
364 07-06-2014 06:15:00 12.2 C 9.82 g/m*3 12.2 C 0 km/h
365 07-06-2014 06:20:00 12.2 C 9.82 g/m*3 12.2 C 0 km/h
366 07-06-2014 06:25:00 12.2 C 9.82 g/m*3 12.2 C 0 km/h
367 07-06-2014 06:30:00 12.2 C 9.93 g/m*3 12.2 C 0 km/h
368 07-06-2014 06:35:00 12.2 C 9.93 g/m*3 12.2 C 0 km/h
369 07-06-2014 06:40:00 12.2 C 9.93 g/m*3 12.2 C 0 km/h
370 07-06-2014 06:45:00 12.3 C 9.99 g/m*3 12.3 C 0 km/h
371 07-06-2014 06:50:00 12.3 C 9.99 g/m*3 12.3 C 0 km/h
372 07-06-2014 06:55:00 12.4 C 10.05 g/m*3 12.4 C 0 km/h
373 07-06-2014 07:00:00 12.6 C 10.18 g/m*3 12.6 C 0 km/h
374 07-06-2014 07:05:00 12.7 C 10.24 g/m*3 12.7 C 0 km/h
375 07-06-2014 07:10:00 12.8 C 10.19 g/m*3 12.8 C 0 km/h
Sensor: Nr:Datum:Temp:Abs-Feuchte:Windchill:Wind:
Aussen-T/F 376 07-06-2014 07:15:00 12.9 C 10.26 g/m*3 12.9 C 0 km/h
377 07-06-2014 07:20:00 13.1 C 10.38 g/m*3 13.1 C 0 km/h
378 07-06-2014 07:25:00 13.1 C 10.27 g/m*3 13.1 C 0 km/h
379 07-06-2014 07:30:00 13.2 C 10.33 g/m*3 13.2 C 0 km/h
380 07-06-2014 07:35:00 13.3 C 10.4 g/m*3 13.3 C 0 km/h
381 07-06-2014 07:40:00 13.4 C 10.46 g/m*3 13.4 C 0 km/h
382 07-06-2014 07:45:00 13.6 C 10.71 g/m*3 13.6 C 0 km/h
383 07-06-2014 07:50:00 13.8 C 10.72 g/m*3 13.8 C 0 km/h
384 07-06-2014 07:55:00 14.1 C 10.68 g/m*3 14.1 C 1.6 km/h
385 07-06-2014 08:00:00 14.4 C 10.88 g/m*3 14.4 C 0 km/h
386 07-06-2014 08:05:00 14.6 C 10.89 g/m*3 14.6 C 0 km/h
387 07-06-2014 08:10:00 14.9 C 11.09 g/m*3 14.9 C 0 km/h
388 07-06-2014 08:15:00 15.2 C 11.16 g/m*3 15.2 C 0 km/h
389 07-06-2014 08:20:00 15.6 C 11.17 g/m*3 15.6 C 0 km/h
390 07-06-2014 08:25:00 15.8 C 11.31 g/m*3 15.8 C 0 km/h
391 07-06-2014 08:30:00 16.1 C 11.38 g/m*3 16.1 C 0 km/h
392 07-06-2014 08:35:00 16.3 C 11.52 g/m*3 16.3 C 0 km/h
393 07-06-2014 08:40:00 16.4 C 11.45 g/m*3 16.4 C 0 km/h
394 07-06-2014 08:45:00 16.7 C 11.51 g/m*3 16.7 C 0 km/h
395 07-06-2014 08:50:00 16.8 C 11.58 g/m*3 16.8 C 0 km/h
396 07-06-2014 08:55:00 17.1 C 11.65 g/m*3 17.1 C 0 km/h
397 07-06-2014 09:00:00 17.3 C 11.93 g/m*3 17.3 C 1.6 km/h
398 07-06-2014 09:05:00 17.5 C 11.78 g/m*3 17.5 C 0 km/h
399 07-06-2014 09:10:00 17.7 C 11.92 g/m*3 17.7 C 0 km/h
400 07-06-2014 09:15:00 17.4 C 11.86 g/m*3 17.4 C 0 km/h
Sensor: Nr:Datum:Temp:Abs-Feuchte:Windchill:Wind:
Aussen-T/F 401 07-06-2014 09:20:00 17.4 C 11.86 g/m*3 17.4 C 0 km/h
402 07-06-2014 09:25:00 17.4 C 12 g/m*3 17.4 C 0 km/h
403 07-06-2014 09:30:00 17.3 C 12.08 g/m*3 17.3 C 0 km/h
404 07-06-2014 09:35:00 17.2 C 12.01 g/m*3 17.2 C 0 km/h
405 07-06-2014 09:40:00 17.3 C 12.08 g/m*3 17.3 C 0 km/h
406 07-06-2014 09:45:00 17.4 C 12.3 g/m*3 17.4 C 0 km/h
407 07-06-2014 09:50:00 17.6 C 12.45 g/m*3 17.6 C 0 km/h
408 07-06-2014 09:55:00 18 C 12.59 g/m*3 18 C 0 km/h
409 07-06-2014 10:00:00 18.4 C 12.74 g/m*3 18.4 C 0 km/h
410 07-06-2014 10:05:00 18.9 C 12.96 g/m*3 18.9 C 0 km/h
411 07-06-2014 10:10:00 19.3 C 13.1 g/m*3 19.3 C 0 km/h
412 07-06-2014 10:15:00 19.8 C 13.32 g/m*3 19.8 C 0 km/h
413 07-06-2014 10:20:00 20 C 13.48 g/m*3 20 C 0 km/h
414 07-06-2014 10:25:00 20.4 C 13.44 g/m*3 20.4 C 0 km/h
415 07-06-2014 10:30:00 20.6 C 13.42 g/m*3 20.6 C 0 km/h
416 07-06-2014 10:35:00 20.8 C 13.76 g/m*3 20.8 C 0 km/h
417 07-06-2014 10:40:00 21.1 C 13.82 g/m*3 21.1 C 0 km/h
418 07-06-2014 10:45:00 21.4 C 13.87 g/m*3 21.4 C 0 km/h
419 07-06-2014 10:50:00 21.4 C 14.25 g/m*3 21.4 C 0 km/h
420 07-06-2014 10:55:00 21.6 C 14.41 g/m*3 21.6 C 0 km/h
421 07-06-2014 11:00:00 21.8 C 14.2 g/m*3 21.8 C 1.6 km/h
422 07-06-2014 11:05:00 21.8 C 14.58 g/m*3 21.8 C 0 km/h
423 07-06-2014 11:10:00 22.1 C 14.64 g/m*3 22.1 C 1.6 km/h
424 07-06-2014 11:15:00 22.9 C 14.31 g/m*3 22.9 C 3.2 km/h
425 07-06-2014 11:20:00 23.8 C 14.84 g/m*3 23.8 C 4.8 km/h
Sensor: Nr:Datum:Temp:Abs-Feuchte:Windchill:Wind:
Aussen-T/F 426 07-06-2014 11:25:00 24.2 C 15.18 g/m*3 24.2 C 1.6 km/h
427 07-06-2014 11:30:00 24.8 C 13.88 g/m*3 24.8 C 4.8 km/h
428 07-06-2014 11:35:00 25.4 C 13.42 g/m*3 25.4 C 6.4 km/h
429 07-06-2014 11:40:00 26.2 C 13.05 g/m*3 26.2 C 9.7 km/h
430 07-06-2014 11:45:00 26.9 C 14.08 g/m*3 26.9 C 8.1 km/h
431 07-06-2014 11:50:00 27.4 C 13.16 g/m*3 27.4 C 1.6 km/h
432 07-06-2014 11:55:00 27.7 C 13.37 g/m*3 27.7 C 3.2 km/h
433 07-06-2014 12:00:00 27.8 C 13.99 g/m*3 27.8 C 4.8 km/h
434 07-06-2014 12:05:00 28.1 C 13.4 g/m*3 28.1 C 8.1 km/h
435 07-06-2014 12:10:00 28.7 C 14.69 g/m*3 28.7 C 8.1 km/h
436 07-06-2014 12:15:00 28.8 C 12.79 g/m*3 28.8 C 4.8 km/h
437 07-06-2014 12:20:00 28.7 C 14.13 g/m*3 28.7 C 4.8 km/h
438 07-06-2014 12:25:00 28.5 C 13.42 g/m*3 28.5 C 4.8 km/h
439 07-06-2014 12:30:00 28.5 C 12.58 g/m*3 28.5 C 6.4 km/h
440 07-06-2014 12:35:00 28.6 C 12.93 g/m*3 28.6 C 6.4 km/h
441 07-06-2014 12:40:00 28.7 C 12.72 g/m*3 28.7 C 6.4 km/h
442 07-06-2014 12:45:00 28.9 C 14.57 g/m*3 28.9 C 6.4 km/h
443 07-06-2014 12:50:00 29.1 C 12.71 g/m*3 29.1 C 4.8 km/h
444 07-06-2014 12:55:00 29.2 C 13.94 g/m*3 29.2 C 6.4 km/h
445 07-06-2014 13:00:00 29.2 C 12.2 g/m*3 29.2 C 6.4 km/h
446 07-06-2014 13:05:00 29.2 C 13.36 g/m*3 29.2 C 4.8 km/h
447 07-06-2014 13:10:00 29.3 C 14.31 g/m*3 29.3 C 3.2 km/h
448 07-06-2014 13:15:00 29.4 C 13.8 g/m*3 29.4 C 8.1 km/h
449 07-06-2014 13:20:00 29.6 C 12.46 g/m*3 29.6 C 8.1 km/h
450 07-06-2014 13:25:00 29.8 C 13.2 g/m*3 29.8 C 4.8 km/h
Sensor: Nr:Datum:Temp:Abs-Feuchte:Windchill:Wind:
Aussen-T/F 451 07-06-2014 13:30:00 30.1 C 12.5 g/m*3 30.1 C 4.8 km/h
452 07-06-2014 13:35:00 30.3 C 12.94 g/m*3 30.3 C 3.2 km/h
453 07-06-2014 13:40:00 30.2 C 15.02 g/m*3 30.2 C 8.1 km/h
454 07-06-2014 13:45:00 30.4 C 13.94 g/m*3 30.4 C 8.1 km/h
455 07-06-2014 13:50:00 30.3 C 12.33 g/m*3 30.3 C 8.1 km/h
456 07-06-2014 13:55:00 30.1 C 12.81 g/m*3 30.1 C 8.1 km/h
457 07-06-2014 14:00:00 30.2 C 12.57 g/m*3 30.2 C 6.4 km/h
458 07-06-2014 14:05:00 30.3 C 13.25 g/m*3 30.3 C 3.2 km/h
459 07-06-2014 14:10:00 30.4 C 12.7 g/m*3 30.4 C 9.7 km/h
460 07-06-2014 14:15:00 30.6 C 12.53 g/m*3 30.6 C 3.2 km/h
461 07-06-2014 14:20:00 30.6 C 13.47 g/m*3 30.6 C 11.3 km/h
462 07-06-2014 14:25:00 30.7 C 12.91 g/m*3 30.7 C 9.7 km/h
463 07-06-2014 14:30:00 30.7 C 11.34 g/m*3 30.7 C 6.4 km/h
464 07-06-2014 14:35:00 30.7 C 11.34 g/m*3 30.7 C 8.1 km/h
465 07-06-2014 14:40:00 30.9 C 11.78 g/m*3 30.9 C 9.7 km/h
466 07-06-2014 14:45:00 30.9 C 13.37 g/m*3 30.9 C 6.4 km/h
467 07-06-2014 14:50:00 30.7 C 15.12 g/m*3 30.7 C 4.8 km/h
468 07-06-2014 14:55:00 30.6 C 12.53 g/m*3 30.6 C 4.8 km/h
469 07-06-2014 15:00:00 30.8 C 13.3 g/m*3 30.8 C 8.1 km/h
470 07-06-2014 15:05:00 31.1 C 12.87 g/m*3 31.1 C 6.4 km/h
471 07-06-2014 15:10:00 31.1 C 11.26 g/m*3 31.1 C 11.3 km/h
472 07-06-2014 15:15:00 31.1 C 12.23 g/m*3 31.1 C 4.8 km/h
473 07-06-2014 15:20:00 31.2 C 11.97 g/m*3 31.2 C 1.6 km/h
474 07-06-2014 15:25:00 31.3 C 12.03 g/m*3 31.3 C 4.8 km/h
475 07-06-2014 15:30:00 31.3 C 12.68 g/m*3 31.3 C 1.6 km/h
Sensor: Nr:Datum:Temp:Abs-Feuchte:Windchill:Wind:
Aussen-T/F 476 07-06-2014 15:35:00 31.1 C 14.48 g/m*3 31.1 C 1.6 km/h
477 07-06-2014 15:40:00 30.6 C 13.78 g/m*3 30.6 C 3.2 km/h
478 07-06-2014 15:45:00 30.5 C 12.46 g/m*3 30.5 C 3.2 km/h
479 07-06-2014 15:50:00 30.5 C 13.4 g/m*3 30.5 C 4.8 km/h
480 07-06-2014 15:55:00 30.1 C 15.24 g/m*3 30.1 C 4.8 km/h
481 07-06-2014 16:00:00 29.3 C 14.6 g/m*3 29.3 C 4.8 km/h
482 07-06-2014 16:05:00 28.8 C 15.63 g/m*3 28.8 C 3.2 km/h
483 07-06-2014 16:10:00 28.6 C 15.46 g/m*3 28.6 C 1.6 km/h
484 07-06-2014 16:15:00 28.2 C 15.95 g/m*3 28.2 C 0 km/h
485 07-06-2014 16:20:00 27.8 C 16.14 g/m*3 27.8 C 1.6 km/h
486 07-06-2014 16:25:00 27.8 C 16.41 g/m*3 27.8 C 1.6 km/h
487 07-06-2014 16:30:00 27.8 C 16.41 g/m*3 27.8 C 1.6 km/h
488 07-06-2014 16:35:00 27.7 C 16.58 g/m*3 27.7 C 0 km/h
489 07-06-2014 16:40:00 27.4 C 16.31 g/m*3 27.4 C 1.6 km/h
490 07-06-2014 16:45:00 27.2 C 16.39 g/m*3 27.2 C 1.6 km/h
491 07-06-2014 16:50:00 26.9 C 16.64 g/m*3 26.9 C 1.6 km/h
492 07-06-2014 16:55:00 26.7 C 16.45 g/m*3 26.7 C 0 km/h
493 07-06-2014 17:00:00 26.4 C 16.18 g/m*3 26.4 C 0 km/h
494 07-06-2014 17:05:00 26.3 C 16.59 g/m*3 26.3 C 0 km/h
495 07-06-2014 17:10:00 26.1 C 16.65 g/m*3 26.1 C 0 km/h
496 07-06-2014 17:15:00 25.8 C 16.37 g/m*3 25.8 C 0 km/h
497 07-06-2014 17:20:00 25.6 C 16.43 g/m*3 25.6 C 1.6 km/h
498 07-06-2014 17:25:00 25.4 C 16.48 g/m*3 25.4 C 1.6 km/h
499 07-06-2014 17:30:00 25.2 C 16.3 g/m*3 25.2 C 1.6 km/h
500 07-06-2014 17:35:00 25.1 C 15.97 g/m*3 25.1 C 0 km/h
Sensor: Nr:Datum:Temp:Abs-Feuchte:Windchill:Wind:
Aussen-T/F 501 07-06-2014 17:40:00 25 C 16.34 g/m*3 25 C 0 km/h
502 07-06-2014 17:45:00 24.9 C 16.02 g/m*3 24.9 C 0 km/h
503 07-06-2014 17:50:00 24.9 C 16.25 g/m*3 24.9 C 0 km/h
504 07-06-2014 17:55:00 25.1 C 16.67 g/m*3 25.1 C 0 km/h
505 07-06-2014 18:00:00 25.5 C 17.05 g/m*3 25.5 C 0 km/h
506 07-06-2014 18:05:00 25.9 C 17.43 g/m*3 25.9 C 1.6 km/h
507 07-06-2014 18:10:00 26.5 C 17.52 g/m*3 26.5 C 0 km/h
508 07-06-2014 18:15:00 26.6 C 17.12 g/m*3 26.6 C 1.6 km/h
509 07-06-2014 18:20:00 26.4 C 17.43 g/m*3 26.4 C 3.2 km/h
510 07-06-2014 18:25:00 26.5 C 17.52 g/m*3 26.5 C 0 km/h
511 07-06-2014 18:30:00 26.8 C 17.82 g/m*3 26.8 C 0 km/h
512 07-06-2014 18:35:00 27.1 C 17.6 g/m*3 27.1 C 0 km/h
513 07-06-2014 18:40:00 26.9 C 17.4 g/m*3 26.9 C 0 km/h
514 07-06-2014 18:45:00 26.7 C 17.21 g/m*3 26.7 C 0 km/h
515 07-06-2014 18:50:00 26.3 C 17.08 g/m*3 26.3 C 1.6 km/h
516 07-06-2014 18:55:00 25.8 C 16.85 g/m*3 25.8 C 1.6 km/h
517 07-06-2014 19:00:00 25.7 C 17 g/m*3 25.7 C 0 km/h
518 07-06-2014 19:05:00 25.6 C 16.67 g/m*3 25.6 C 0 km/h
519 07-06-2014 19:10:00 25.2 C 16.53 g/m*3 25.2 C 1.6 km/h
520 07-06-2014 19:15:00 24.9 C 16.48 g/m*3 24.9 C 0 km/h
521 07-06-2014 19:20:00 24.6 C 16.21 g/m*3 24.6 C 0 km/h
522 07-06-2014 19:25:00 24.4 C 16.02 g/m*3 24.4 C 0 km/h
523 07-06-2014 19:30:00 24.4 C 16.25 g/m*3 24.4 C 1.6 km/h
524 07-06-2014 19:35:00 24.4 C 16.25 g/m*3 24.4 C 0 km/h
525 07-06-2014 19:40:00 24.7 C 16.3 g/m*3 24.7 C 0 km/h
Sensor: Nr:Datum:Temp:Abs-Feuchte:Windchill:Wind:
Aussen-T/F 526 07-06-2014 19:45:00 24.9 C 16.25 g/m*3 24.9 C 0 km/h
527 07-06-2014 19:50:00 25 C 16.34 g/m*3 25 C 1.6 km/h
528 07-06-2014 19:55:00 25 C 16.57 g/m*3 25 C 1.6 km/h
529 07-06-2014 20:00:00 24.9 C 16.02 g/m*3 24.9 C 0 km/h
530 07-06-2014 20:05:00 24.9 C 16.02 g/m*3 24.9 C 0 km/h
531 07-06-2014 20:10:00 24.8 C 15.93 g/m*3 24.8 C 1.6 km/h
532 07-06-2014 20:15:00 24.7 C 15.62 g/m*3 24.7 C 0 km/h
533 07-06-2014 20:20:00 24.6 C 15.75 g/m*3 24.6 C 1.6 km/h
534 07-06-2014 20:25:00 24.4 C 15.58 g/m*3 24.4 C 0 km/h
535 07-06-2014 20:30:00 24.3 C 15.49 g/m*3 24.3 C 0 km/h
536 07-06-2014 20:35:00 24.1 C 15.32 g/m*3 24.1 C 1.6 km/h
537 07-06-2014 20:40:00 23.9 C 15.36 g/m*3 23.9 C 1.6 km/h
538 07-06-2014 20:45:00 23.8 C 15.27 g/m*3 23.8 C 0 km/h
539 07-06-2014 20:50:00 23.6 C 15.1 g/m*3 23.6 C 0 km/h
540 07-06-2014 20:55:00 23.4 C 15.14 g/m*3 23.4 C 0 km/h
541 07-06-2014 21:00:00 23.2 C 14.97 g/m*3 23.2 C 0 km/h
542 07-06-2014 21:05:00 23.1 C 14.88 g/m*3 23.1 C 0 km/h
543 07-06-2014 21:10:00 23 C 14.8 g/m*3 23 C 1.6 km/h
544 07-06-2014 21:15:00 22.8 C 14.63 g/m*3 22.8 C 1.6 km/h
545 07-06-2014 21:20:00 22.7 C 14.75 g/m*3 22.7 C 1.6 km/h
546 07-06-2014 21:25:00 22.5 C 14.58 g/m*3 22.5 C 1.6 km/h
547 07-06-2014 21:30:00 22.3 C 14.61 g/m*3 22.3 C 1.6 km/h
548 07-06-2014 21:35:00 22.2 C 14.53 g/m*3 22.2 C 1.6 km/h
549 07-06-2014 21:40:00 22 C 14.56 g/m*3 22 C 1.6 km/h
550 07-06-2014 21:45:00 21.9 C 14.47 g/m*3 21.9 C 1.6 km/h
Sensor: Nr:Datum:Temp:Abs-Feuchte:Windchill:Wind:
Aussen-T/F 551 07-06-2014 21:50:00 21.8 C 14.39 g/m*3 21.8 C 1.6 km/h
552 07-06-2014 21:55:00 21.8 C 14.39 g/m*3 21.8 C 1.6 km/h
553 07-06-2014 22:00:00 21.7 C 14.31 g/m*3 21.7 C 1.6 km/h
554 07-06-2014 22:05:00 21.6 C 14.22 g/m*3 21.6 C 1.6 km/h
555 07-06-2014 22:10:00 21.6 C 14.22 g/m*3 21.6 C 0 km/h
556 07-06-2014 22:15:00 21.4 C 14.25 g/m*3 21.4 C 0 km/h
557 07-06-2014 22:20:00 21.2 C 14.08 g/m*3 21.2 C 0 km/h
558 07-06-2014 22:25:00 21.1 C 14.19 g/m*3 21.1 C 1.6 km/h
559 07-06-2014 22:30:00 21 C 13.92 g/m*3 21 C 0 km/h
560 07-06-2014 22:35:00 20.9 C 14.02 g/m*3 20.9 C 1.6 km/h
561 07-06-2014 22:40:00 20.9 C 13.84 g/m*3 20.9 C 1.6 km/h
562 07-06-2014 22:45:00 20.9 C 14.02 g/m*3 20.9 C 0 km/h
563 07-06-2014 22:50:00 20.8 C 13.94 g/m*3 20.8 C 1.6 km/h
564 07-06-2014 22:55:00 20.8 C 13.76 g/m*3 20.8 C 1.6 km/h
565 07-06-2014 23:00:00 20.8 C 13.94 g/m*3 20.8 C 1.6 km/h
566 07-06-2014 23:05:00 20.7 C 13.86 g/m*3 20.7 C 0 km/h
567 07-06-2014 23:10:00 20.7 C 13.86 g/m*3 20.7 C 1.6 km/h
568 07-06-2014 23:15:00 20.6 C 13.78 g/m*3 20.6 C 0 km/h
569 07-06-2014 23:20:00 20.4 C 13.62 g/m*3 20.4 C 0 km/h
570 07-06-2014 23:25:00 20.3 C 13.72 g/m*3 20.3 C 0 km/h
571 07-06-2014 23:30:00 20.1 C 13.73 g/m*3 20.1 C 0 km/h
572 07-06-2014 23:35:00 20 C 13.65 g/m*3 20 C 1.6 km/h
573 07-06-2014 23:40:00 19.9 C 13.74 g/m*3 19.9 C 0 km/h
574 07-06-2014 23:45:00 19.8 C 13.66 g/m*3 19.8 C 0 km/h
575 07-06-2014 23:50:00 19.7 C 13.58 g/m*3 19.7 C 0 km/h
Sensor: Nr:Datum:Temp:Abs-Feuchte:Windchill:Wind:
Aussen-T/F 576 07-06-2014 23:55:00 19.6 C 13.51 g/m*3 19.6 C 0 km/h
577 08-06-2014 00:00:00 19.5 C 13.43 g/m*3 19.5 C 0 km/h
578 08-06-2014 00:05:00 19.3 C 13.44 g/m*3 19.3 C 0 km/h
579 08-06-2014 00:10:00 19.3 C 13.44 g/m*3 19.3 C 0 km/h
580 08-06-2014 00:15:00 19.2 C 13.52 g/m*3 19.2 C 0 km/h
581 08-06-2014 00:20:00 19.1 C 13.44 g/m*3 19.1 C 0 km/h
582 08-06-2014 00:25:00 18.9 C 13.45 g/m*3 18.9 C 0 km/h
583 08-06-2014 00:30:00 18.8 C 13.37 g/m*3 18.8 C 0 km/h
584 08-06-2014 00:35:00 18.7 C 13.29 g/m*3 18.7 C 0 km/h
585 08-06-2014 00:40:00 18.7 C 13.29 g/m*3 18.7 C 1.6 km/h
586 08-06-2014 00:45:00 18.7 C 13.29 g/m*3 18.7 C 0 km/h
587 08-06-2014 00:50:00 18.7 C 13.29 g/m*3 18.7 C 0 km/h
588 08-06-2014 00:55:00 18.7 C 13.29 g/m*3 18.7 C 0 km/h
589 08-06-2014 01:00:00 18.6 C 13.21 g/m*3 18.6 C 0 km/h
590 08-06-2014 01:05:00 18.4 C 13.05 g/m*3 18.4 C 1.6 km/h
591 08-06-2014 01:10:00 18.4 C 13.21 g/m*3 18.4 C 0 km/h
592 08-06-2014 01:15:00 18.3 C 13.13 g/m*3 18.3 C 0 km/h
593 08-06-2014 01:20:00 18.2 C 13.21 g/m*3 18.2 C 0 km/h
594 08-06-2014 01:25:00 18.1 C 13.13 g/m*3 18.1 C 0 km/h
595 08-06-2014 01:30:00 18 C 13.21 g/m*3 18 C 0 km/h
596 08-06-2014 01:35:00 17.9 C 13.13 g/m*3 17.9 C 0 km/h
597 08-06-2014 01:40:00 17.9 C 13.13 g/m*3 17.9 C 0 km/h
598 08-06-2014 01:45:00 17.8 C 13.05 g/m*3 17.8 C 0 km/h
599 08-06-2014 01:50:00 17.8 C 13.05 g/m*3 17.8 C 0 km/h
600 08-06-2014 01:55:00 17.7 C 12.98 g/m*3 17.7 C 1.6 km/h
Sensor: Nr:Datum:Temp:Abs-Feuchte:Windchill:Wind:
Aussen-T/F 601 08-06-2014 02:00:00 17.7 C 12.98 g/m*3 17.7 C 0 km/h
602 08-06-2014 02:05:00 17.6 C 13.05 g/m*3 17.6 C 0 km/h
603 08-06-2014 02:10:00 17.5 C 12.97 g/m*3 17.5 C 0 km/h
604 08-06-2014 02:15:00 17.4 C 12.89 g/m*3 17.4 C 0 km/h
605 08-06-2014 02:20:00 17.3 C 12.82 g/m*3 17.3 C 0 km/h
606 08-06-2014 02:25:00 17.3 C 12.82 g/m*3 17.3 C 0 km/h
607 08-06-2014 02:30:00 17.2 C 12.74 g/m*3 17.2 C 0 km/h
608 08-06-2014 02:35:00 17.1 C 12.81 g/m*3 17.1 C 0 km/h
609 08-06-2014 02:40:00 17.1 C 12.81 g/m*3 17.1 C 0 km/h
610 08-06-2014 02:45:00 17 C 12.73 g/m*3 17 C 0 km/h
611 08-06-2014 02:50:00 16.9 C 12.66 g/m*3 16.9 C 0 km/h
612 08-06-2014 02:55:00 16.9 C 12.66 g/m*3 16.9 C 0 km/h
613 08-06-2014 03:00:00 16.9 C 12.66 g/m*3 16.9 C 0 km/h
614 08-06-2014 03:05:00 16.8 C 12.58 g/m*3 16.8 C 0 km/h
615 08-06-2014 03:10:00 16.8 C 12.58 g/m*3 16.8 C 0 km/h
616 08-06-2014 03:15:00 16.7 C 12.51 g/m*3 16.7 C 0 km/h
617 08-06-2014 03:20:00 16.7 C 12.65 g/m*3 16.7 C 0 km/h
618 08-06-2014 03:25:00 16.6 C 12.57 g/m*3 16.6 C 0 km/h
619 08-06-2014 03:30:00 16.4 C 12.42 g/m*3 16.4 C 0 km/h
620 08-06-2014 03:35:00 16.4 C 12.56 g/m*3 16.4 C 0 km/h
621 08-06-2014 03:40:00 16.3 C 12.49 g/m*3 16.3 C 0 km/h
622 08-06-2014 03:45:00 16.3 C 12.62 g/m*3 16.3 C 0 km/h
623 08-06-2014 03:50:00 16.3 C 12.62 g/m*3 16.3 C 0 km/h
624 08-06-2014 03:55:00 16.3 C 12.62 g/m*3 16.3 C 0 km/h
625 08-06-2014 04:00:00 16.3 C 12.62 g/m*3 16.3 C 0 km/h
Sensor: Nr:Datum:Temp:Abs-Feuchte:Windchill:Wind:
Aussen-T/F 626 08-06-2014 04:05:00 16.3 C 12.62 g/m*3 16.3 C 0 km/h
627 08-06-2014 04:10:00 16.3 C 12.62 g/m*3 16.3 C 0 km/h
628 08-06-2014 04:15:00 16.2 C 12.55 g/m*3 16.2 C 0 km/h
629 08-06-2014 04:20:00 16.2 C 12.55 g/m*3 16.2 C 0 km/h
630 08-06-2014 04:25:00 16.2 C 12.55 g/m*3 16.2 C 0 km/h
631 08-06-2014 04:30:00 16.2 C 12.69 g/m*3 16.2 C 0 km/h
632 08-06-2014 04:35:00 16.2 C 12.55 g/m*3 16.2 C 0 km/h
633 08-06-2014 04:40:00 16.2 C 12.55 g/m*3 16.2 C 0 km/h
634 08-06-2014 04:45:00 16.2 C 12.55 g/m*3 16.2 C 0 km/h
635 08-06-2014 04:50:00 16 C 12.4 g/m*3 16 C 0 km/h
636 08-06-2014 04:55:00 15.9 C 12.32 g/m*3 15.9 C 0 km/h
637 08-06-2014 05:00:00 15.8 C 12.38 g/m*3 15.8 C 0 km/h
638 08-06-2014 05:05:00 15.8 C 12.38 g/m*3 15.8 C 0 km/h
639 08-06-2014 05:10:00 15.8 C 12.38 g/m*3 15.8 C 1.6 km/h
640 08-06-2014 05:15:00 15.8 C 12.38 g/m*3 15.8 C 0 km/h
641 08-06-2014 05:20:00 15.8 C 12.38 g/m*3 15.8 C 0 km/h
642 08-06-2014 05:25:00 15.8 C 12.38 g/m*3 15.8 C 0 km/h
643 08-06-2014 05:30:00 15.7 C 12.31 g/m*3 15.7 C 0 km/h
644 08-06-2014 05:35:00 15.7 C 12.31 g/m*3 15.7 C 0 km/h
645 08-06-2014 05:40:00 15.6 C 12.23 g/m*3 15.6 C 0 km/h
646 08-06-2014 05:45:00 15.6 C 12.37 g/m*3 15.6 C 0 km/h
647 08-06-2014 05:50:00 15.6 C 12.37 g/m*3 15.6 C 0 km/h
648 08-06-2014 05:55:00 15.6 C 12.37 g/m*3 15.6 C 0 km/h
649 08-06-2014 06:00:00 15.5 C 12.29 g/m*3 15.5 C 0 km/h
650 08-06-2014 06:05:00 15.6 C 12.37 g/m*3 15.6 C 0 km/h
Sensor: Nr:Datum:Temp:Abs-Feuchte:Windchill:Wind:
Aussen-T/F 651 08-06-2014 06:10:00 15.6 C 12.5 g/m*3 15.6 C 0 km/h
652 08-06-2014 06:15:00 15.7 C 12.58 g/m*3 15.7 C 0 km/h
653 08-06-2014 06:20:00 15.8 C 12.65 g/m*3 15.8 C 0 km/h
654 08-06-2014 06:25:00 15.9 C 12.73 g/m*3 15.9 C 0 km/h
655 08-06-2014 06:30:00 16.1 C 12.88 g/m*3 16.1 C 0 km/h
656 08-06-2014 06:35:00 16.2 C 12.82 g/m*3 16.2 C 0 km/h
657 08-06-2014 06:40:00 16.4 C 12.98 g/m*3 16.4 C 0 km/h
658 08-06-2014 06:45:00 16.5 C 13.06 g/m*3 16.5 C 0 km/h
659 08-06-2014 06:50:00 16.6 C 13.14 g/m*3 16.6 C 0 km/h
660 08-06-2014 06:55:00 16.8 C 13.15 g/m*3 16.8 C 0 km/h
661 08-06-2014 07:00:00 16.9 C 13.09 g/m*3 16.9 C 0 km/h
662 08-06-2014 07:05:00 17 C 13.02 g/m*3 17 C 0 km/h
663 08-06-2014 07:10:00 17 C 13.02 g/m*3 17 C 0 km/h
664 08-06-2014 07:15:00 17.1 C 13.1 g/m*3 17.1 C 0 km/h
665 08-06-2014 07:20:00 17.1 C 13.1 g/m*3 17.1 C 0 km/h
666 08-06-2014 07:25:00 17.1 C 13.1 g/m*3 17.1 C 0 km/h
667 08-06-2014 07:30:00 17.2 C 13.33 g/m*3 17.2 C 0 km/h
668 08-06-2014 07:35:00 17.2 C 13.33 g/m*3 17.2 C 0 km/h
669 08-06-2014 07:40:00 17.2 C 13.33 g/m*3 17.2 C 0 km/h
670 08-06-2014 07:45:00 17.3 C 13.26 g/m*3 17.3 C 1.6 km/h
671 08-06-2014 07:50:00 17.5 C 13.42 g/m*3 17.5 C 0 km/h
672 08-06-2014 07:55:00 17.7 C 13.58 g/m*3 17.7 C 0 km/h
673 08-06-2014 08:00:00 18.1 C 13.75 g/m*3 18.1 C 0 km/h
674 08-06-2014 08:05:00 18.3 C 13.76 g/m*3 18.3 C 0 km/h
675 08-06-2014 08:10:00 18.6 C 13.85 g/m*3 18.6 C 0 km/h
Sensor: Nr:Datum:Temp:Abs-Feuchte:Windchill:Wind:
Aussen-T/F 676 08-06-2014 08:15:00 18.8 C 14.01 g/m*3 18.8 C 0 km/h
677 08-06-2014 08:20:00 19.1 C 13.93 g/m*3 19.1 C 0 km/h
678 08-06-2014 08:25:00 19.2 C 14.02 g/m*3 19.2 C 0 km/h
679 08-06-2014 08:30:00 19.4 C 14.18 g/m*3 19.4 C 0 km/h
680 08-06-2014 08:35:00 19.7 C 14.26 g/m*3 19.7 C 0 km/h
681 08-06-2014 08:40:00 19.9 C 14.43 g/m*3 19.9 C 0 km/h
682 08-06-2014 08:45:00 20 C 14.17 g/m*3 20 C 0 km/h
683 08-06-2014 08:50:00 20.1 C 14.43 g/m*3 20.1 C 0 km/h
684 08-06-2014 08:55:00 20.1 C 14.43 g/m*3 20.1 C 0 km/h
685 08-06-2014 09:00:00 20.4 C 14.51 g/m*3 20.4 C 0 km/h
686 08-06-2014 09:05:00 20.6 C 14.5 g/m*3 20.6 C 0 km/h
687 08-06-2014 09:10:00 20.6 C 14.5 g/m*3 20.6 C 0 km/h
688 08-06-2014 09:15:00 20.6 C 14.68 g/m*3 20.6 C 0 km/h
689 08-06-2014 09:20:00 20.4 C 14.68 g/m*3 20.4 C 0 km/h
690 08-06-2014 09:25:00 20.3 C 14.6 g/m*3 20.3 C 0 km/h
691 08-06-2014 09:30:00 20.3 C 14.6 g/m*3 20.3 C 0 km/h
692 08-06-2014 09:35:00 20.3 C 14.77 g/m*3 20.3 C 0 km/h
693 08-06-2014 09:40:00 20.4 C 14.86 g/m*3 20.4 C 0 km/h
694 08-06-2014 09:45:00 20.5 C 14.95 g/m*3 20.5 C 0 km/h
695 08-06-2014 09:50:00 20.8 C 15.21 g/m*3 20.8 C 0 km/h
696 08-06-2014 09:55:00 21.1 C 15.29 g/m*3 21.1 C 0 km/h
697 08-06-2014 10:00:00 21.6 C 15.55 g/m*3 21.6 C 0 km/h
698 08-06-2014 10:05:00 21.9 C 15.63 g/m*3 21.9 C 0 km/h
699 08-06-2014 10:10:00 22.2 C 15.71 g/m*3 22.2 C 0 km/h
700 08-06-2014 10:15:00 22.4 C 15.89 g/m*3 22.4 C 0 km/h
Sensor: Nr:Datum:Temp:Abs-Feuchte:Windchill:Wind:
Aussen-T/F 701 08-06-2014 10:20:00 22.7 C 15.96 g/m*3 22.7 C 0 km/h
702 08-06-2014 10:25:00 22.9 C 16.14 g/m*3 22.9 C 0 km/h
703 08-06-2014 10:30:00 22.8 C 15.85 g/m*3 22.8 C 0 km/h
704 08-06-2014 10:35:00 22.9 C 16.14 g/m*3 22.9 C 0 km/h
705 08-06-2014 10:40:00 23.1 C 16.33 g/m*3 23.1 C 0 km/h
706 08-06-2014 10:45:00 23.3 C 16.52 g/m*3 23.3 C 0 km/h
707 08-06-2014 10:50:00 23.4 C 16.4 g/m*3 23.4 C 0 km/h
708 08-06-2014 10:55:00 23.2 C 16.22 g/m*3 23.2 C 0 km/h
709 08-06-2014 11:00:00 23.2 C 16.22 g/m*3 23.2 C 0 km/h
710 08-06-2014 11:05:00 23.3 C 16.1 g/m*3 23.3 C 0 km/h
711 08-06-2014 11:10:00 23.7 C 15.4 g/m*3 23.7 C 0 km/h
712 08-06-2014 11:15:00 24.6 C 16.43 g/m*3 24.6 C 0 km/h
713 08-06-2014 11:20:00 25.3 C 16.86 g/m*3 25.3 C 0 km/h
714 08-06-2014 11:25:00 25.6 C 16.19 g/m*3 25.6 C 0 km/h
715 08-06-2014 11:30:00 25.5 C 16.1 g/m*3 25.5 C 0 km/h
716 08-06-2014 11:35:00 25.3 C 16.62 g/m*3 25.3 C 0 km/h
717 08-06-2014 11:40:00 25.4 C 16.24 g/m*3 25.4 C 0 km/h
718 08-06-2014 11:45:00 25.8 C 16.61 g/m*3 25.8 C 0 km/h
719 08-06-2014 11:50:00 25.7 C 16.28 g/m*3 25.7 C 0 km/h
720 08-06-2014 11:55:00 25.5 C 15.86 g/m*3 25.5 C 1.6 km/h
721 08-06-2014 12:00:00 26 C 16.55 g/m*3 26 C 4.8 km/h
722 08-06-2014 12:05:00 26.9 C 15.87 g/m*3 26.9 C 4.8 km/h
723 08-06-2014 12:10:00 27.7 C 15.25 g/m*3 27.7 C 4.8 km/h
724 08-06-2014 12:15:00 28.3 C 15.48 g/m*3 28.3 C 8.1 km/h
725 08-06-2014 12:20:00 28.8 C 14.77 g/m*3 28.8 C 6.4 km/h
Sensor: Nr:Datum:Temp:Abs-Feuchte:Windchill:Wind:
Aussen-T/F 726 08-06-2014 12:25:00 29.2 C 16.55 g/m*3 29.2 C 3.2 km/h
727 08-06-2014 12:30:00 29.2 C 15.97 g/m*3 29.2 C 4.8 km/h
728 08-06-2014 12:35:00 29.1 C 14.73 g/m*3 29.1 C 6.4 km/h
729 08-06-2014 12:40:00 29.5 C 15.64 g/m*3 29.5 C 6.4 km/h
730 08-06-2014 12:45:00 29.7 C 14.92 g/m*3 29.7 C 1.6 km/h
731 08-06-2014 12:50:00 29.9 C 14.78 g/m*3 29.9 C 3.2 km/h
732 08-06-2014 12:55:00 30.1 C 14.63 g/m*3 30.1 C 4.8 km/h
733 08-06-2014 13:00:00 30.3 C 14.49 g/m*3 30.3 C 6.4 km/h
734 08-06-2014 13:05:00 30.6 C 14.72 g/m*3 30.6 C 6.4 km/h
735 08-06-2014 13:10:00 30.8 C 14.88 g/m*3 30.8 C 4.8 km/h
736 08-06-2014 13:15:00 30.8 C 14.88 g/m*3 30.8 C 6.4 km/h
737 08-06-2014 13:20:00 30.8 C 14.56 g/m*3 30.8 C 6.4 km/h
738 08-06-2014 13:25:00 30.9 C 16.23 g/m*3 30.9 C 6.4 km/h
739 08-06-2014 13:30:00 31.1 C 15.44 g/m*3 31.1 C 4.8 km/h
740 08-06-2014 13:35:00 31.2 C 14.88 g/m*3 31.2 C 8.1 km/h
741 08-06-2014 13:40:00 31.5 C 14.79 g/m*3 31.5 C 9.7 km/h
742 08-06-2014 13:45:00 31.6 C 14.54 g/m*3 31.6 C 9.7 km/h
743 08-06-2014 13:50:00 31.7 C 15.95 g/m*3 31.7 C 6.4 km/h
744 08-06-2014 13:55:00 31.9 C 15.45 g/m*3 31.9 C 4.8 km/h
745 08-06-2014 14:00:00 32 C 15.53 g/m*3 32 C 8.1 km/h
746 08-06-2014 14:05:00 32.2 C 15.35 g/m*3 32.2 C 3.2 km/h
747 08-06-2014 14:10:00 32.2 C 16.04 g/m*3 32.2 C 6.4 km/h
748 08-06-2014 14:15:00 32.3 C 15.78 g/m*3 32.3 C 9.7 km/h
749 08-06-2014 14:20:00 32.4 C 15.86 g/m*3 32.4 C 9.7 km/h
750 08-06-2014 14:25:00 32.3 C 16.12 g/m*3 32.3 C 11.3 km/h
Sensor: Nr:Datum:Temp:Abs-Feuchte:Windchill:Wind:
Aussen-T/F 751 08-06-2014 14:30:00 32.3 C 15.44 g/m*3 32.3 C 8.1 km/h
752 08-06-2014 14:35:00 32.4 C 14.83 g/m*3 32.4 C 8.1 km/h
753 08-06-2014 14:40:00 32.7 C 14.72 g/m*3 32.7 C 6.4 km/h
754 08-06-2014 14:45:00 32.7 C 15.77 g/m*3 32.7 C 4.8 km/h
755 08-06-2014 14:50:00 32.8 C 14.79 g/m*3 32.8 C 4.8 km/h
756 08-06-2014 14:55:00 32.8 C 14.09 g/m*3 32.8 C 8.1 km/h
757 08-06-2014 15:00:00 32.5 C 14.21 g/m*3 32.5 C 4.8 km/h
758 08-06-2014 15:05:00 32.6 C 14.64 g/m*3 32.6 C 6.4 km/h
759 08-06-2014 15:10:00 32.8 C 14.79 g/m*3 32.8 C 6.4 km/h
760 08-06-2014 15:15:00 33.2 C 14.75 g/m*3 33.2 C 6.4 km/h
761 08-06-2014 15:20:00 33.6 C 14.7 g/m*3 33.6 C 4.8 km/h
762 08-06-2014 15:25:00 33.7 C 13.67 g/m*3 33.7 C 8.1 km/h
763 08-06-2014 15:30:00 33.6 C 14.33 g/m*3 33.6 C 8.1 km/h
764 08-06-2014 15:35:00 33.2 C 14.39 g/m*3 33.2 C 8.1 km/h
765 08-06-2014 15:40:00 32.8 C 15.85 g/m*3 32.8 C 0 km/h
766 08-06-2014 15:45:00 31.7 C 16.28 g/m*3 31.7 C 1.6 km/h
767 08-06-2014 15:50:00 30.6 C 16.91 g/m*3 30.6 C 0 km/h
768 08-06-2014 15:55:00 29.3 C 16.93 g/m*3 29.3 C 1.6 km/h
769 08-06-2014 16:00:00 29.2 C 16.55 g/m*3 29.2 C 6.4 km/h
770 08-06-2014 16:05:00 30.5 C 16.51 g/m*3 30.5 C 6.4 km/h
771 08-06-2014 16:10:00 31.1 C 16.09 g/m*3 31.1 C 11.3 km/h
772 08-06-2014 16:15:00 31.8 C 16.37 g/m*3 31.8 C 14.5 km/h
773 08-06-2014 16:20:00 32.4 C 15.86 g/m*3 32.4 C 11.3 km/h
774 08-06-2014 16:25:00 32.7 C 17.17 g/m*3 32.7 C 8.1 km/h
775 08-06-2014 16:30:00 32.8 C 16.55 g/m*3 32.8 C 11.3 km/h
Sensor: Nr:Datum:Temp:Abs-Feuchte:Windchill:Wind:
Aussen-T/F 776 08-06-2014 16:35:00 32.7 C 15.77 g/m*3 32.7 C 8.1 km/h
777 08-06-2014 16:40:00 32.4 C 16.21 g/m*3 32.4 C 8.1 km/h
778 08-06-2014 16:45:00 32.5 C 15.95 g/m*3 32.5 C 8.1 km/h
779 08-06-2014 16:50:00 32.9 C 15.58 g/m*3 32.9 C 6.4 km/h
780 08-06-2014 16:55:00 32.9 C 16.29 g/m*3 32.9 C 9.7 km/h
781 08-06-2014 17:00:00 33.1 C 17.18 g/m*3 33.1 C 9.7 km/h
782 08-06-2014 17:05:00 33.6 C 16.53 g/m*3 33.6 C 4.8 km/h
783 08-06-2014 17:10:00 33.7 C 15.51 g/m*3 33.7 C 6.4 km/h
784 08-06-2014 17:15:00 33.6 C 16.17 g/m*3 33.6 C 6.4 km/h
785 08-06-2014 17:20:00 33.9 C 16.05 g/m*3 33.9 C 8.1 km/h
786 08-06-2014 17:25:00 34 C 16.51 g/m*3 34 C 4.8 km/h
787 08-06-2014 17:30:00 33.8 C 16.71 g/m*3 33.8 C 4.8 km/h
788 08-06-2014 17:35:00 33.6 C 16.9 g/m*3 33.6 C 6.4 km/h
789 08-06-2014 17:40:00 33.5 C 14.98 g/m*3 33.5 C 4.8 km/h
790 08-06-2014 17:45:00 33.4 C 14.91 g/m*3 33.4 C 3.2 km/h
791 08-06-2014 17:50:00 33.6 C 17.64 g/m*3 33.6 C 6.4 km/h
792 08-06-2014 17:55:00 33.7 C 15.51 g/m*3 33.7 C 6.4 km/h
793 08-06-2014 18:00:00 33.7 C 15.88 g/m*3 33.7 C 9.7 km/h
794 08-06-2014 18:05:00 33.6 C 15.8 g/m*3 33.6 C 6.4 km/h
795 08-06-2014 18:10:00 33.4 C 16 g/m*3 33.4 C 6.4 km/h
796 08-06-2014 18:15:00 33.5 C 16.81 g/m*3 33.5 C 8.1 km/h
797 08-06-2014 18:20:00 33.6 C 15.8 g/m*3 33.6 C 4.8 km/h
798 08-06-2014 18:25:00 33.6 C 16.53 g/m*3 33.6 C 6.4 km/h
799 08-06-2014 18:30:00 33.4 C 15.63 g/m*3 33.4 C 8.1 km/h
800 08-06-2014 18:35:00 33.4 C 15.27 g/m*3 33.4 C 3.2 km/h
Sensor: Nr:Datum:Temp:Abs-Feuchte:Windchill:Wind:
Aussen-T/F 801 08-06-2014 18:40:00 33.4 C 15.63 g/m*3 33.4 C 6.4 km/h
802 08-06-2014 18:45:00 33.4 C 16.36 g/m*3 33.4 C 9.7 km/h
803 08-06-2014 18:50:00 33.2 C 16.91 g/m*3 33.2 C 11.3 km/h
804 08-06-2014 18:55:00 33 C 16.02 g/m*3 33 C 8.1 km/h
805 08-06-2014 19:00:00 32.8 C 16.2 g/m*3 32.8 C 9.7 km/h
806 08-06-2014 19:05:00 32.5 C 16.29 g/m*3 32.5 C 8.1 km/h
807 08-06-2014 19:10:00 32.3 C 16.81 g/m*3 32.3 C 8.1 km/h
808 08-06-2014 19:15:00 32.1 C 16.29 g/m*3 32.1 C 9.7 km/h
809 08-06-2014 19:20:00 31.8 C 16.7 g/m*3 31.8 C 8.1 km/h
810 08-06-2014 19:25:00 31.6 C 16.52 g/m*3 31.6 C 4.8 km/h
811 08-06-2014 19:30:00 31.3 C 16.59 g/m*3 31.3 C 8.1 km/h
812 08-06-2014 19:35:00 31.1 C 16.41 g/m*3 31.1 C 6.4 km/h
813 08-06-2014 19:40:00 30.8 C 16.15 g/m*3 30.8 C 8.1 km/h
814 08-06-2014 19:45:00 30.6 C 16.6 g/m*3 30.6 C 8.1 km/h
815 08-06-2014 19:50:00 30.4 C 16.42 g/m*3 30.4 C 6.4 km/h
816 08-06-2014 19:55:00 30.4 C 16.42 g/m*3 30.4 C 6.4 km/h
817 08-06-2014 20:00:00 30.3 C 16.64 g/m*3 30.3 C 4.8 km/h
818 08-06-2014 20:05:00 30.2 C 16.86 g/m*3 30.2 C 6.4 km/h
819 08-06-2014 20:10:00 30.1 C 16.46 g/m*3 30.1 C 6.4 km/h
820 08-06-2014 20:15:00 29.8 C 16.2 g/m*3 29.8 C 8.1 km/h
821 08-06-2014 20:20:00 29.6 C 16.02 g/m*3 29.6 C 9.7 km/h
822 08-06-2014 20:25:00 29.4 C 16.15 g/m*3 29.4 C 8.1 km/h
823 08-06-2014 20:30:00 29.2 C 16.26 g/m*3 29.2 C 8.1 km/h
824 08-06-2014 20:35:00 28.9 C 16 g/m*3 28.9 C 6.4 km/h
825 08-06-2014 20:40:00 28.7 C 16.11 g/m*3 28.7 C 8.1 km/h
Sensor: Nr:Datum:Temp:Abs-Feuchte:Windchill:Wind:
Aussen-T/F 826 08-06-2014 20:45:00 28.5 C 16.21 g/m*3 28.5 C 8.1 km/h
827 08-06-2014 20:50:00 28.3 C 16.03 g/m*3 28.3 C 9.7 km/h
828 08-06-2014 20:55:00 28.1 C 16.13 g/m*3 28.1 C 6.4 km/h
829 08-06-2014 21:00:00 27.7 C 17.12 g/m*3 27.7 C 8.1 km/h
830 08-06-2014 21:05:00 26.9 C 16.89 g/m*3 26.9 C 1.6 km/h
831 08-06-2014 21:10:00 26.1 C 16.89 g/m*3 26.1 C 0 km/h
832 08-06-2014 21:15:00 25.5 C 16.81 g/m*3 25.5 C 0 km/h
833 08-06-2014 21:20:00 25.1 C 16.67 g/m*3 25.1 C 0 km/h
834 08-06-2014 21:25:00 24.9 C 16.71 g/m*3 24.9 C 0 km/h
835 08-06-2014 21:30:00 24.7 C 16.75 g/m*3 24.7 C 0 km/h
836 08-06-2014 21:35:00 24.4 C 16.69 g/m*3 24.4 C 0 km/h
837 08-06-2014 21:40:00 24.2 C 16.72 g/m*3 24.2 C 1.6 km/h
838 08-06-2014 21:45:00 23.9 C 16.44 g/m*3 23.9 C 1.6 km/h
839 08-06-2014 21:50:00 23.8 C 16.56 g/m*3 23.8 C 0 km/h
840 08-06-2014 21:55:00 23.8 C 16.78 g/m*3 23.8 C 0 km/h
841 08-06-2014 22:00:00 23.7 C 16.68 g/m*3 23.7 C 1.6 km/h
842 08-06-2014 22:05:00 23.5 C 16.71 g/m*3 23.5 C 0 km/h
843 08-06-2014 22:10:00 23.4 C 16.61 g/m*3 23.4 C 0 km/h
844 08-06-2014 22:15:00 23.3 C 16.73 g/m*3 23.3 C 0 km/h
845 08-06-2014 22:20:00 23.2 C 16.63 g/m*3 23.2 C 0 km/h
846 08-06-2014 22:25:00 23.1 C 16.54 g/m*3 23.1 C 0 km/h
847 08-06-2014 22:30:00 23.2 C 16.63 g/m*3 23.2 C 1.6 km/h
848 08-06-2014 22:35:00 23.1 C 16.54 g/m*3 23.1 C 0 km/h
849 08-06-2014 22:40:00 23 C 16.65 g/m*3 23 C 1.6 km/h
850 08-06-2014 22:45:00 22.9 C 16.55 g/m*3 22.9 C 0 km/h
Sensor: Nr:Datum:Temp:Abs-Feuchte:Windchill:Wind:
Aussen-T/F 851 08-06-2014 22:50:00 22.8 C 16.66 g/m*3 22.8 C 0 km/h
852 08-06-2014 22:55:00 22.7 C 16.57 g/m*3 22.7 C 0 km/h
853 08-06-2014 23:00:00 22.6 C 16.47 g/m*3 22.6 C 0 km/h
854 08-06-2014 23:05:00 22.5 C 16.38 g/m*3 22.5 C 0 km/h
855 08-06-2014 23:10:00 22.4 C 16.28 g/m*3 22.4 C 0 km/h
856 08-06-2014 23:15:00 22.3 C 16.39 g/m*3 22.3 C 0 km/h
857 08-06-2014 23:20:00 22.3 C 16.39 g/m*3 22.3 C 0 km/h
858 08-06-2014 23:25:00 22.2 C 16.3 g/m*3 22.2 C 0 km/h
859 08-06-2014 23:30:00 22.2 C 16.3 g/m*3 22.2 C 0 km/h
860 08-06-2014 23:35:00 22.1 C 16.4 g/m*3 22.1 C 0 km/h
861 08-06-2014 23:40:00 21.9 C 16.21 g/m*3 21.9 C 0 km/h
862 08-06-2014 23:45:00 21.9 C 16.21 g/m*3 21.9 C 0 km/h
863 08-06-2014 23:50:00 21.8 C 16.12 g/m*3 21.8 C 0 km/h
864 08-06-2014 23:55:00 21.7 C 16.21 g/m*3 21.7 C 0 km/h
865 09-06-2014 00:00:00 21.7 C 16.21 g/m*3 21.7 C 1.6 km/h
866 09-06-2014 00:05:00 21.6 C 16.12 g/m*3 21.6 C 0 km/h
867 09-06-2014 00:10:00 21.5 C 16.03 g/m*3 21.5 C 0 km/h
868 09-06-2014 00:15:00 21.4 C 16.12 g/m*3 21.4 C 0 km/h
869 09-06-2014 00:20:00 21.4 C 16.12 g/m*3 21.4 C 0 km/h
870 09-06-2014 00:25:00 21.3 C 16.03 g/m*3 21.3 C 0 km/h
871 09-06-2014 00:30:00 21.2 C 15.94 g/m*3 21.2 C 0 km/h
872 09-06-2014 00:35:00 21.2 C 15.94 g/m*3 21.2 C 0 km/h
873 09-06-2014 00:40:00 21.1 C 15.85 g/m*3 21.1 C 1.6 km/h
874 09-06-2014 00:45:00 20.9 C 15.66 g/m*3 20.9 C 0 km/h
875 09-06-2014 00:50:00 20.8 C 15.75 g/m*3 20.8 C 0 km/h
Sensor: Nr:Datum:Temp:Abs-Feuchte:Windchill:Wind:
Aussen-T/F 876 09-06-2014 00:55:00 20.7 C 15.66 g/m*3 20.7 C 0 km/h
877 09-06-2014 01:00:00 20.7 C 15.66 g/m*3 20.7 C 0 km/h
878 09-06-2014 01:05:00 20.6 C 15.57 g/m*3 20.6 C 0 km/h
879 09-06-2014 01:10:00 20.5 C 15.66 g/m*3 20.5 C 0 km/h
880 09-06-2014 01:15:00 20.4 C 15.57 g/m*3 20.4 C 0 km/h
881 09-06-2014 01:20:00 20.3 C 15.48 g/m*3 20.3 C 0 km/h
882 09-06-2014 01:25:00 20.3 C 15.48 g/m*3 20.3 C 0 km/h
883 09-06-2014 01:30:00 20.3 C 15.48 g/m*3 20.3 C 0 km/h
884 09-06-2014 01:35:00 20.3 C 15.65 g/m*3 20.3 C 0 km/h
885 09-06-2014 01:40:00 20.2 C 15.39 g/m*3 20.2 C 0 km/h
886 09-06-2014 01:45:00 20.1 C 15.47 g/m*3 20.1 C 0 km/h
887 09-06-2014 01:50:00 20.1 C 15.47 g/m*3 20.1 C 0 km/h
888 09-06-2014 01:55:00 20 C 15.38 g/m*3 20 C 0 km/h
889 09-06-2014 02:00:00 19.9 C 15.29 g/m*3 19.9 C 0 km/h
890 09-06-2014 02:05:00 19.8 C 15.37 g/m*3 19.8 C 0 km/h
891 09-06-2014 02:10:00 19.8 C 15.37 g/m*3 19.8 C 0 km/h
892 09-06-2014 02:15:00 19.7 C 15.28 g/m*3 19.7 C 0 km/h
893 09-06-2014 02:20:00 19.7 C 15.28 g/m*3 19.7 C 0 km/h
894 09-06-2014 02:25:00 19.7 C 15.28 g/m*3 19.7 C 1.6 km/h
895 09-06-2014 02:30:00 19.7 C 15.45 g/m*3 19.7 C 1.6 km/h
896 09-06-2014 02:35:00 19.7 C 15.45 g/m*3 19.7 C 0 km/h
897 09-06-2014 02:40:00 19.7 C 15.45 g/m*3 19.7 C 0 km/h
898 09-06-2014 02:45:00 19.7 C 15.28 g/m*3 19.7 C 0 km/h
899 09-06-2014 02:50:00 19.7 C 15.45 g/m*3 19.7 C 0 km/h
900 09-06-2014 02:55:00 19.7 C 15.45 g/m*3 19.7 C 0 km/h
Sensor: Nr:Datum:Temp:Abs-Feuchte:Windchill:Wind:
Aussen-T/F 901 09-06-2014 03:00:00 19.6 C 15.36 g/m*3 19.6 C 0 km/h
902 09-06-2014 03:05:00 19.6 C 15.36 g/m*3 19.6 C 0 km/h
903 09-06-2014 03:10:00 19.6 C 15.53 g/m*3 19.6 C 0 km/h
904 09-06-2014 03:15:00 19.6 C 15.53 g/m*3 19.6 C 0 km/h
905 09-06-2014 03:20:00 19.6 C 15.53 g/m*3 19.6 C 0 km/h
906 09-06-2014 03:25:00 19.4 C 15.35 g/m*3 19.4 C 0 km/h
907 09-06-2014 03:30:00 19.4 C 15.35 g/m*3 19.4 C 0 km/h
908 09-06-2014 03:35:00 19.3 C 15.26 g/m*3 19.3 C 0 km/h
909 09-06-2014 03:40:00 19.3 C 15.26 g/m*3 19.3 C 0 km/h
910 09-06-2014 03:45:00 19.4 C 15.35 g/m*3 19.4 C 0 km/h
911 09-06-2014 03:50:00 19.3 C 15.26 g/m*3 19.3 C 0 km/h
912 09-06-2014 03:55:00 19.4 C 15.35 g/m*3 19.4 C 1.6 km/h
913 09-06-2014 04:00:00 19.4 C 15.35 g/m*3 19.4 C 1.6 km/h
914 09-06-2014 04:05:00 19.4 C 15.35 g/m*3 19.4 C 0 km/h
915 09-06-2014 04:10:00 19.4 C 15.35 g/m*3 19.4 C 3.2 km/h
916 09-06-2014 04:15:00 19.4 C 15.35 g/m*3 19.4 C 0 km/h
917 09-06-2014 04:20:00 19.5 C 15.44 g/m*3 19.5 C 1.6 km/h
918 09-06-2014 04:25:00 19.6 C 15.53 g/m*3 19.6 C 1.6 km/h
919 09-06-2014 04:30:00 19.6 C 15.36 g/m*3 19.6 C 0 km/h
920 09-06-2014 04:35:00 19.6 C 15.19 g/m*3 19.6 C 0 km/h
921 09-06-2014 04:40:00 19.6 C 15.19 g/m*3 19.6 C 1.6 km/h
922 09-06-2014 04:45:00 19.5 C 15.1 g/m*3 19.5 C 1.6 km/h
923 09-06-2014 04:50:00 19.6 C 15.19 g/m*3 19.6 C 8.1 km/h
924 09-06-2014 04:55:00 19.8 C 15.2 g/m*3 19.8 C 8.1 km/h
925 09-06-2014 05:00:00 19.7 C 15.11 g/m*3 19.7 C 0 km/h
Sensor: Nr:Datum:Temp:Abs-Feuchte:Windchill:Wind:
Aussen-T/F 926 09-06-2014 05:05:00 19.5 C 14.94 g/m*3 19.5 C 0 km/h
927 09-06-2014 05:10:00 19.4 C 15.02 g/m*3 19.4 C 0 km/h
928 09-06-2014 05:15:00 19.3 C 14.93 g/m*3 19.3 C 0 km/h
929 09-06-2014 05:20:00 19.1 C 14.75 g/m*3 19.1 C 0 km/h
930 09-06-2014 05:25:00 19 C 14.83 g/m*3 19 C 0 km/h
931 09-06-2014 05:30:00 18.9 C 14.74 g/m*3 18.9 C 0 km/h
932 09-06-2014 05:35:00 18.8 C 14.66 g/m*3 18.8 C 0 km/h
933 09-06-2014 05:40:00 18.8 C 14.82 g/m*3 18.8 C 0 km/h
934 09-06-2014 05:45:00 18.7 C 14.73 g/m*3 18.7 C 0 km/h
935 09-06-2014 05:50:00 18.7 C 14.73 g/m*3 18.7 C 0 km/h
936 09-06-2014 05:55:00 18.7 C 14.73 g/m*3 18.7 C 0 km/h
937 09-06-2014 06:00:00 18.7 C 14.73 g/m*3 18.7 C 0 km/h
938 09-06-2014 06:05:00 18.6 C 14.64 g/m*3 18.6 C 0 km/h
939 09-06-2014 06:10:00 18.6 C 14.64 g/m*3 18.6 C 0 km/h
940 09-06-2014 06:15:00 18.6 C 14.64 g/m*3 18.6 C 0 km/h
941 09-06-2014 06:20:00 18.6 C 14.64 g/m*3 18.6 C 0 km/h
942 09-06-2014 06:25:00 18.6 C 14.64 g/m*3 18.6 C 0 km/h
943 09-06-2014 06:30:00 18.6 C 14.8 g/m*3 18.6 C 0 km/h
944 09-06-2014 06:35:00 18.6 C 14.8 g/m*3 18.6 C 0 km/h
945 09-06-2014 06:40:00 18.6 C 14.8 g/m*3 18.6 C 0 km/h
946 09-06-2014 06:45:00 18.6 C 14.8 g/m*3 18.6 C 0 km/h
947 09-06-2014 06:50:00 18.7 C 14.89 g/m*3 18.7 C 1.6 km/h
948 09-06-2014 06:55:00 18.7 C 14.89 g/m*3 18.7 C 0 km/h
949 09-06-2014 07:00:00 18.8 C 14.98 g/m*3 18.8 C 0 km/h
950 09-06-2014 07:05:00 18.8 C 14.98 g/m*3 18.8 C 0 km/h
Sensor: Nr:Datum:Temp:Abs-Feuchte:Windchill:Wind:
Aussen-T/F 951 09-06-2014 07:10:00 18.8 C 14.98 g/m*3 18.8 C 0 km/h
952 09-06-2014 07:15:00 18.8 C 14.98 g/m*3 18.8 C 0 km/h
953 09-06-2014 07:20:00 18.9 C 15.07 g/m*3 18.9 C 0 km/h
954 09-06-2014 07:25:00 19 C 15.16 g/m*3 19 C 0 km/h
955 09-06-2014 07:30:00 19.1 C 15.25 g/m*3 19.1 C 0 km/h
956 09-06-2014 07:35:00 19.2 C 15.34 g/m*3 19.2 C 0 km/h
957 09-06-2014 07:40:00 19.3 C 15.43 g/m*3 19.3 C 0 km/h
958 09-06-2014 07:45:00 19.3 C 15.43 g/m*3 19.3 C 0 km/h
959 09-06-2014 07:50:00 19.4 C 15.52 g/m*3 19.4 C 0 km/h
960 09-06-2014 07:55:00 19.7 C 15.79 g/m*3 19.7 C 0 km/h
961 09-06-2014 08:00:00 19.9 C 15.81 g/m*3 19.9 C 0 km/h
962 09-06-2014 08:05:00 20.2 C 15.91 g/m*3 20.2 C 0 km/h
963 09-06-2014 08:10:00 20.5 C 16.01 g/m*3 20.5 C 0 km/h
964 09-06-2014 08:15:00 20.7 C 16.02 g/m*3 20.7 C 0 km/h
965 09-06-2014 08:20:00 20.9 C 16.03 g/m*3 20.9 C 0 km/h
966 09-06-2014 08:25:00 21.2 C 16.31 g/m*3 21.2 C 0 km/h
967 09-06-2014 08:30:00 21.4 C 16.5 g/m*3 21.4 C 0 km/h
968 09-06-2014 08:35:00 21.6 C 16.31 g/m*3 21.6 C 0 km/h
969 09-06-2014 08:40:00 21.8 C 16.5 g/m*3 21.8 C 0 km/h
970 09-06-2014 08:45:00 21.9 C 16.6 g/m*3 21.9 C 0 km/h
971 09-06-2014 08:50:00 21.9 C 16.4 g/m*3 21.9 C 0 km/h
972 09-06-2014 08:55:00 22.1 C 16.79 g/m*3 22.1 C 0 km/h
973 09-06-2014 09:00:00 22.4 C 17.08 g/m*3 22.4 C 0 km/h
974 09-06-2014 09:05:00 22.7 C 16.77 g/m*3 22.7 C 4.8 km/h
975 09-06-2014 09:10:00 23.2 C 16.84 g/m*3 23.2 C 4.8 km/h
Sensor: Nr:Datum:Temp:Abs-Feuchte:Windchill:Wind:
Aussen-T/F 976 09-06-2014 09:15:00 23.6 C 17.23 g/m*3 23.6 C 3.2 km/h
977 09-06-2014 09:20:00 23.7 C 16.9 g/m*3 23.7 C 1.6 km/h
978 09-06-2014 09:25:00 23.7 C 17.11 g/m*3 23.7 C 3.2 km/h
979 09-06-2014 09:30:00 23.4 C 16.82 g/m*3 23.4 C 9.7 km/h
980 09-06-2014 09:35:00 23.6 C 16.8 g/m*3 23.6 C 9.7 km/h
981 09-06-2014 09:40:00 23.9 C 16.66 g/m*3 23.9 C 1.6 km/h
982 09-06-2014 09:45:00 24.2 C 16.72 g/m*3 24.2 C 6.4 km/h
983 09-06-2014 09:50:00 24.4 C 16.91 g/m*3 24.4 C 4.8 km/h
984 09-06-2014 09:55:00 24.8 C 17.07 g/m*3 24.8 C 8.1 km/h
985 09-06-2014 10:00:00 25.2 C 16.76 g/m*3 25.2 C 4.8 km/h
986 09-06-2014 10:05:00 25.6 C 16.9 g/m*3 25.6 C 3.2 km/h
987 09-06-2014 10:10:00 25.9 C 16.95 g/m*3 25.9 C 9.7 km/h
988 09-06-2014 10:15:00 26.3 C 17.08 g/m*3 26.3 C 8.1 km/h
989 09-06-2014 10:20:00 26.5 C 17.02 g/m*3 26.5 C 6.4 km/h
990 09-06-2014 10:25:00 26.7 C 16.96 g/m*3 26.7 C 8.1 km/h
991 09-06-2014 10:30:00 26.7 C 16.71 g/m*3 26.7 C 6.4 km/h
992 09-06-2014 10:35:00 26.8 C 17.05 g/m*3 26.8 C 8.1 km/h
993 09-06-2014 10:40:00 26.9 C 16.89 g/m*3 26.9 C 6.4 km/h
994 09-06-2014 10:45:00 27.1 C 17.08 g/m*3 27.1 C 6.4 km/h
995 09-06-2014 10:50:00 27.1 C 16.82 g/m*3 27.1 C 12.9 km/h
996 09-06-2014 10:55:00 27.2 C 16.39 g/m*3 27.2 C 6.4 km/h
997 09-06-2014 11:00:00 27.4 C 16.84 g/m*3 27.4 C 6.4 km/h
998 09-06-2014 11:05:00 27.6 C 16.76 g/m*3 27.6 C 6.4 km/h
999 09-06-2014 11:10:00 27.8 C 17.21 g/m*3 27.8 C 9.7 km/h
1000 09-06-2014 11:15:00 28.1 C 17.23 g/m*3 28.1 C 6.4 km/h
Sensor: Nr:Datum:Temp:Abs-Feuchte:Windchill:Wind:
Aussen-T/F 1001 09-06-2014 11:20:00 28.2 C 17.32 g/m*3 28.2 C 9.7 km/h
1002 09-06-2014 11:25:00 28.4 C 17.51 g/m*3 28.4 C 4.8 km/h
1003 09-06-2014 11:30:00 28.4 C 17.51 g/m*3 28.4 C 4.8 km/h
1004 09-06-2014 11:35:00 28.6 C 17.99 g/m*3 28.6 C 4.8 km/h
1005 09-06-2014 11:40:00 28.9 C 17.43 g/m*3 28.9 C 6.4 km/h
1006 09-06-2014 11:45:00 29.2 C 17.42 g/m*3 29.2 C 8.1 km/h
1007 09-06-2014 11:50:00 29.3 C 17.81 g/m*3 29.3 C 8.1 km/h
1008 09-06-2014 11:55:00 29.6 C 18.1 g/m*3 29.6 C 6.4 km/h
1009 09-06-2014 12:00:00 29.8 C 18 g/m*3 29.8 C 6.4 km/h
1010 09-06-2014 12:05:00 30 C 17.89 g/m*3 30 C 11.3 km/h
1011 09-06-2014 12:10:00 30.2 C 17.47 g/m*3 30.2 C 8.1 km/h
1012 09-06-2014 12:15:00 30.2 C 18.09 g/m*3 30.2 C 8.1 km/h
1013 09-06-2014 12:20:00 30.2 C 17.78 g/m*3 30.2 C 9.7 km/h
1014 09-06-2014 12:25:00 30.2 C 18.39 g/m*3 30.2 C 9.7 km/h
1015 09-06-2014 12:30:00 30.3 C 17.88 g/m*3 30.3 C 9.7 km/h
1016 09-06-2014 12:35:00 30.4 C 17.66 g/m*3 30.4 C 8.1 km/h
1017 09-06-2014 12:40:00 30.5 C 18.07 g/m*3 30.5 C 11.3 km/h
1018 09-06-2014 12:45:00 30.7 C 17.95 g/m*3 30.7 C 8.1 km/h
1019 09-06-2014 12:50:00 30.8 C 17.73 g/m*3 30.8 C 9.7 km/h
1020 09-06-2014 12:55:00 31 C 17.92 g/m*3 31 C 9.7 km/h
1021 09-06-2014 13:00:00 31.2 C 17.79 g/m*3 31.2 C 8.1 km/h
1022 09-06-2014 13:05:00 31.5 C 17.75 g/m*3 31.5 C 12.9 km/h
1023 09-06-2014 13:10:00 31.5 C 18.08 g/m*3 31.5 C 12.9 km/h
1024 09-06-2014 13:15:00 31.7 C 17.28 g/m*3 31.7 C 12.9 km/h
1025 09-06-2014 13:20:00 32 C 17.89 g/m*3 32 C 11.3 km/h
Sensor: Nr:Datum:Temp:Abs-Feuchte:Windchill:Wind:
Aussen-T/F 1026 09-06-2014 13:25:00 32.2 C 17.4 g/m*3 32.2 C 8.1 km/h
1027 09-06-2014 13:30:00 32.5 C 18.37 g/m*3 32.5 C 6.4 km/h
1028 09-06-2014 13:35:00 32.7 C 17.52 g/m*3 32.7 C 11.3 km/h
1029 09-06-2014 13:40:00 32.9 C 17.35 g/m*3 32.9 C 8.1 km/h
1030 09-06-2014 13:45:00 33 C 17.44 g/m*3 33 C 4.8 km/h
1031 09-06-2014 13:50:00 33.1 C 17.54 g/m*3 33.1 C 6.4 km/h
1032 09-06-2014 13:55:00 33.3 C 17.36 g/m*3 33.3 C 9.7 km/h
1033 09-06-2014 14:00:00 33.3 C 17.72 g/m*3 33.3 C 12.9 km/h
1034 09-06-2014 14:05:00 33 C 17.09 g/m*3 33 C 9.7 km/h
1035 09-06-2014 14:10:00 33.3 C 17.72 g/m*3 33.3 C 6.4 km/h
1036 09-06-2014 14:15:00 33.5 C 17.91 g/m*3 33.5 C 9.7 km/h
1037 09-06-2014 14:20:00 33.6 C 16.9 g/m*3 33.6 C 8.1 km/h
1038 09-06-2014 14:25:00 33.7 C 17.73 g/m*3 33.7 C 8.1 km/h
1039 09-06-2014 14:30:00 33.8 C 17.82 g/m*3 33.8 C 6.4 km/h
1040 09-06-2014 14:35:00 33.8 C 17.82 g/m*3 33.8 C 9.7 km/h
1041 09-06-2014 14:40:00 33.8 C 17.82 g/m*3 33.8 C 8.1 km/h
1042 09-06-2014 14:45:00 33.9 C 17.54 g/m*3 33.9 C 9.7 km/h
1043 09-06-2014 14:50:00 34.2 C 17.44 g/m*3 34.2 C 9.7 km/h
1044 09-06-2014 14:55:00 34.2 C 16.68 g/m*3 34.2 C 9.7 km/h
1045 09-06-2014 15:00:00 34.2 C 17.06 g/m*3 34.2 C 6.4 km/h
1046 09-06-2014 15:05:00 34.2 C 17.44 g/m*3 34.2 C 11.3 km/h
1047 09-06-2014 15:10:00 34.3 C 17.15 g/m*3 34.3 C 11.3 km/h
1048 09-06-2014 15:15:00 34.2 C 17.06 g/m*3 34.2 C 14.5 km/h
1049 09-06-2014 15:20:00 34.1 C 16.6 g/m*3 34.1 C 9.7 km/h
1050 09-06-2014 15:25:00 34.2 C 17.44 g/m*3 34.2 C 9.7 km/h
Sensor: Nr:Datum:Temp:Abs-Feuchte:Windchill:Wind:
Aussen-T/F 1051 09-06-2014 15:30:00 34.4 C 17.62 g/m*3 34.4 C 9.7 km/h
1052 09-06-2014 15:35:00 34.4 C 17.24 g/m*3 34.4 C 8.1 km/h
1053 09-06-2014 15:40:00 34.4 C 16.09 g/m*3 34.4 C 6.4 km/h
1054 09-06-2014 15:45:00 34.6 C 15.87 g/m*3 34.6 C 11.3 km/h
1055 09-06-2014 15:50:00 34.6 C 16.26 g/m*3 34.6 C 8.1 km/h
1056 09-06-2014 15:55:00 34.7 C 16.35 g/m*3 34.7 C 4.8 km/h
1057 09-06-2014 16:00:00 34.8 C 16.04 g/m*3 34.8 C 11.3 km/h
1058 09-06-2014 16:05:00 34.8 C 16.04 g/m*3 34.8 C 8.1 km/h
1059 09-06-2014 16:10:00 34.9 C 16.52 g/m*3 34.9 C 6.4 km/h
1060 09-06-2014 16:15:00 34.8 C 15.65 g/m*3 34.8 C 8.1 km/h
1061 09-06-2014 16:20:00 34.7 C 15.18 g/m*3 34.7 C 8.1 km/h
1062 09-06-2014 16:25:00 34.8 C 15.65 g/m*3 34.8 C 4.8 km/h
1063 09-06-2014 16:30:00 34.8 C 15.26 g/m*3 34.8 C 4.8 km/h
1064 09-06-2014 16:35:00 34.8 C 15.26 g/m*3 34.8 C 6.4 km/h
1065 09-06-2014 16:40:00 34.9 C 16.91 g/m*3 34.9 C 4.8 km/h
1066 09-06-2014 16:45:00 35.1 C 16.29 g/m*3 35.1 C 4.8 km/h
1067 09-06-2014 16:50:00 35.1 C 16.69 g/m*3 35.1 C 6.4 km/h
1068 09-06-2014 16:55:00 34.8 C 16.82 g/m*3 34.8 C 3.2 km/h
1069 09-06-2014 17:00:00 34.7 C 17.51 g/m*3 34.7 C 8.1 km/h
1070 09-06-2014 17:05:00 35 C 17.39 g/m*3 35 C 8.1 km/h
1071 09-06-2014 17:10:00 35.3 C 17.67 g/m*3 35.3 C 9.7 km/h
1072 09-06-2014 17:15:00 35 C 16.6 g/m*3 35 C 6.4 km/h
1073 09-06-2014 17:20:00 35.2 C 16.38 g/m*3 35.2 C 8.1 km/h
1074 09-06-2014 17:25:00 35.2 C 16.78 g/m*3 35.2 C 6.4 km/h
1075 09-06-2014 17:30:00 35.2 C 17.18 g/m*3 35.2 C 6.4 km/h
Sensor: Nr:Datum:Temp:Abs-Feuchte:Windchill:Wind:
Aussen-T/F 1076 09-06-2014 17:35:00 35.1 C 17.48 g/m*3 35.1 C 3.2 km/h
1077 09-06-2014 17:40:00 35.1 C 17.09 g/m*3 35.1 C 6.4 km/h
1078 09-06-2014 17:45:00 35.2 C 17.18 g/m*3 35.2 C 12.9 km/h
1079 09-06-2014 17:50:00 35.2 C 17.18 g/m*3 35.2 C 8.1 km/h
1080 09-06-2014 17:55:00 35.3 C 16.46 g/m*3 35.3 C 4.8 km/h
1081 09-06-2014 18:00:00 35.4 C 17.36 g/m*3 35.4 C 8.1 km/h
1082 09-06-2014 18:05:00 35.3 C 16.46 g/m*3 35.3 C 6.4 km/h
1083 09-06-2014 18:10:00 35.2 C 16.38 g/m*3 35.2 C 8.1 km/h
1084 09-06-2014 18:15:00 35.2 C 16.38 g/m*3 35.2 C 11.3 km/h
1085 09-06-2014 18:20:00 35 C 16.6 g/m*3 35 C 16.1 km/h
1086 09-06-2014 18:25:00 34.8 C 16.43 g/m*3 34.8 C 16.1 km/h
1087 09-06-2014 18:30:00 34.8 C 16.43 g/m*3 34.8 C 9.7 km/h
1088 09-06-2014 18:35:00 34.8 C 16.43 g/m*3 34.8 C 9.7 km/h
1089 09-06-2014 18:40:00 34.8 C 16.43 g/m*3 34.8 C 9.7 km/h
1090 09-06-2014 18:45:00 34.6 C 17.42 g/m*3 34.6 C 11.3 km/h
1091 09-06-2014 18:50:00 34.2 C 18.2 g/m*3 34.2 C 11.3 km/h
1092 09-06-2014 18:55:00 33.9 C 17.54 g/m*3 33.9 C 9.7 km/h
1093 09-06-2014 19:00:00 33.5 C 17.54 g/m*3 33.5 C 12.9 km/h
1094 09-06-2014 19:05:00 33.4 C 17.45 g/m*3 33.4 C 11.3 km/h
1095 09-06-2014 19:10:00 33.3 C 17.72 g/m*3 33.3 C 9.7 km/h
1096 09-06-2014 19:15:00 33.1 C 18.25 g/m*3 33.1 C 4.8 km/h
1097 09-06-2014 19:20:00 32.9 C 17.7 g/m*3 32.9 C 6.4 km/h
1098 09-06-2014 19:25:00 32.7 C 18.57 g/m*3 32.7 C 3.2 km/h
1099 09-06-2014 19:30:00 32.4 C 17.93 g/m*3 32.4 C 3.2 km/h
1100 09-06-2014 19:35:00 32.2 C 19.11 g/m*3 32.2 C 3.2 km/h
Sensor: Nr:Datum:Temp:Abs-Feuchte:Windchill:Wind:
Aussen-T/F 1101 09-06-2014 19:40:00 31.2 C 18.76 g/m*3 31.2 C 1.6 km/h
1102 09-06-2014 19:45:00 30.2 C 19.01 g/m*3 30.2 C 0 km/h
1103 09-06-2014 19:50:00 29.1 C 19.06 g/m*3 29.1 C 1.6 km/h
1104 09-06-2014 19:55:00 28.2 C 18.97 g/m*3 28.2 C 1.6 km/h
1105 09-06-2014 20:00:00 27.6 C 18.89 g/m*3 27.6 C 1.6 km/h
1106 09-06-2014 20:05:00 27.2 C 18.74 g/m*3 27.2 C 0 km/h
1107 09-06-2014 20:10:00 26.8 C 18.58 g/m*3 26.8 C 1.6 km/h
1108 09-06-2014 20:15:00 26.7 C 18.48 g/m*3 26.7 C 0 km/h
1109 09-06-2014 20:20:00 26.5 C 18.52 g/m*3 26.5 C 0 km/h
1110 09-06-2014 20:25:00 26.3 C 18.32 g/m*3 26.3 C 1.6 km/h
1111 09-06-2014 20:30:00 26.1 C 17.38 g/m*3 26.1 C 1.6 km/h
1112 09-06-2014 20:35:00 25.9 C 17.19 g/m*3 25.9 C 1.6 km/h
1113 09-06-2014 20:40:00 25.7 C 16.76 g/m*3 25.7 C 0 km/h
1114 09-06-2014 20:45:00 25.4 C 16.72 g/m*3 25.4 C 1.6 km/h
1115 09-06-2014 20:50:00 25.3 C 16.62 g/m*3 25.3 C 1.6 km/h
1116 09-06-2014 20:55:00 25.2 C 16.76 g/m*3 25.2 C 1.6 km/h
1117 09-06-2014 21:00:00 25.1 C 16.67 g/m*3 25.1 C 0 km/h
1118 09-06-2014 21:05:00 25.1 C 16.67 g/m*3 25.1 C 1.6 km/h
1119 09-06-2014 21:10:00 25.2 C 16.3 g/m*3 25.2 C 1.6 km/h
1120 09-06-2014 21:15:00 25.1 C 16.2 g/m*3 25.1 C 1.6 km/h
1121 09-06-2014 21:20:00 25.3 C 16.86 g/m*3 25.3 C 11.3 km/h
1122 09-06-2014 21:25:00 26.3 C 15.84 g/m*3 26.3 C 14.5 km/h
1123 09-06-2014 21:30:00 26.8 C 15.27 g/m*3 26.8 C 20.9 km/h
1124 09-06-2014 21:35:00 26.8 C 14.76 g/m*3 26.8 C 11.3 km/h
1125 09-06-2014 21:40:00 26.3 C 13.62 g/m*3 26.3 C 19.3 km/h
Sensor: Nr:Datum:Temp:Abs-Feuchte:Windchill:Wind:
Aussen-T/F 1126 09-06-2014 21:45:00 25.8 C 13 g/m*3 25.8 C 11.3 km/h
1127 09-06-2014 21:50:00 25.2 C 12.8 g/m*3 25.2 C 14.5 km/h
1128 09-06-2014 21:55:00 24.8 C 12.29 g/m*3 24.8 C 11.3 km/h
1129 09-06-2014 22:00:00 24.4 C 12.24 g/m*3 24.4 C 19.3 km/h
1130 09-06-2014 22:05:00 23.9 C 12.33 g/m*3 23.9 C 14.5 km/h
1131 09-06-2014 22:10:00 23.1 C 12.4 g/m*3 23.1 C 9.7 km/h
1132 09-06-2014 22:15:00 22.3 C 12.44 g/m*3 22.3 C 16.1 km/h
1133 09-06-2014 22:20:00 21.8 C 12.47 g/m*3 21.8 C 6.4 km/h
1134 09-06-2014 22:25:00 21.6 C 12.52 g/m*3 21.6 C 6.4 km/h
1135 09-06-2014 22:30:00 21.4 C 12.75 g/m*3 21.4 C 12.9 km/h
1136 09-06-2014 22:35:00 21.2 C 12.79 g/m*3 21.2 C 9.7 km/h
1137 09-06-2014 22:40:00 21.2 C 12.79 g/m*3 21.2 C 8.1 km/h
1138 09-06-2014 22:45:00 21.1 C 12.9 g/m*3 21.1 C 4.8 km/h
1139 09-06-2014 22:50:00 20.9 C 12.75 g/m*3 20.9 C 3.2 km/h
1140 09-06-2014 22:55:00 20.8 C 12.86 g/m*3 20.8 C 3.2 km/h
1141 09-06-2014 23:00:00 20.7 C 12.78 g/m*3 20.7 C 3.2 km/h
1142 09-06-2014 23:05:00 20.6 C 12.71 g/m*3 20.6 C 4.8 km/h
1143 09-06-2014 23:10:00 20.6 C 12.89 g/m*3 20.6 C 3.2 km/h
1144 09-06-2014 23:15:00 20.5 C 12.99 g/m*3 20.5 C 0 km/h
1145 09-06-2014 23:20:00 20.2 C 12.94 g/m*3 20.2 C 0 km/h
1146 09-06-2014 23:25:00 19.9 C 12.89 g/m*3 19.9 C 0 km/h
1147 09-06-2014 23:30:00 19.7 C 12.91 g/m*3 19.7 C 0 km/h
1148 09-06-2014 23:35:00 19.6 C 13 g/m*3 19.6 C 0 km/h
1149 09-06-2014 23:40:00 19.4 C 12.85 g/m*3 19.4 C 0 km/h
1150 09-06-2014 23:45:00 19.3 C 12.94 g/m*3 19.3 C 0 km/h
Sensor: Nr:Datum:Temp:Abs-Feuchte:Windchill:Wind:
Aussen-T/F 1151 09-06-2014 23:50:00 19.2 C 12.86 g/m*3 19.2 C 0 km/h
1152 09-06-2014 23:55:00 18.9 C 12.8 g/m*3 18.9 C 0 km/h
1153 10-06-2014 00:00:00 18.8 C 12.88 g/m*3 18.8 C 0 km/h
1154 10-06-2014 00:05:00 18.7 C 12.81 g/m*3 18.7 C 0 km/h
1155 10-06-2014 00:10:00 18.6 C 12.89 g/m*3 18.6 C 0 km/h
1156 10-06-2014 00:15:00 18.6 C 12.89 g/m*3 18.6 C 0 km/h
1157 10-06-2014 00:20:00 18.6 C 12.89 g/m*3 18.6 C 0 km/h
1158 10-06-2014 00:25:00 18.5 C 12.82 g/m*3 18.5 C 0 km/h
1159 10-06-2014 00:30:00 18.4 C 12.9 g/m*3 18.4 C 0 km/h
1160 10-06-2014 00:35:00 18.4 C 12.9 g/m*3 18.4 C 0 km/h
1161 10-06-2014 00:40:00 18.3 C 12.82 g/m*3 18.3 C 0 km/h
1162 10-06-2014 00:45:00 18.3 C 12.82 g/m*3 18.3 C 0 km/h
1163 10-06-2014 00:50:00 18.2 C 12.75 g/m*3 18.2 C 0 km/h
1164 10-06-2014 00:55:00 18.2 C 12.75 g/m*3 18.2 C 0 km/h
1165 10-06-2014 01:00:00 18.1 C 12.82 g/m*3 18.1 C 0 km/h
1166 10-06-2014 01:05:00 18 C 12.75 g/m*3 18 C 0 km/h
1167 10-06-2014 01:10:00 17.9 C 12.67 g/m*3 17.9 C 0 km/h
1168 10-06-2014 01:15:00 17.9 C 12.67 g/m*3 17.9 C 0 km/h
1169 10-06-2014 01:20:00 17.8 C 12.6 g/m*3 17.8 C 0 km/h
1170 10-06-2014 01:25:00 17.8 C 12.75 g/m*3 17.8 C 0 km/h
1171 10-06-2014 01:30:00 17.7 C 12.67 g/m*3 17.7 C 0 km/h
1172 10-06-2014 01:35:00 17.6 C 12.6 g/m*3 17.6 C 0 km/h
1173 10-06-2014 01:40:00 17.6 C 12.75 g/m*3 17.6 C 1.6 km/h
1174 10-06-2014 01:45:00 17.6 C 12.75 g/m*3 17.6 C 0 km/h
1175 10-06-2014 01:50:00 17.5 C 12.67 g/m*3 17.5 C 0 km/h
Sensor: Nr:Datum:Temp:Abs-Feuchte:Windchill:Wind:
Aussen-T/F 1176 10-06-2014 01:55:00 17.5 C 12.67 g/m*3 17.5 C 0 km/h
1177 10-06-2014 02:00:00 17.4 C 12.75 g/m*3 17.4 C 0 km/h
1178 10-06-2014 02:05:00 17.4 C 12.75 g/m*3 17.4 C 1.6 km/h
1179 10-06-2014 02:10:00 17.4 C 12.75 g/m*3 17.4 C 1.6 km/h
1180 10-06-2014 02:15:00 17.3 C 12.67 g/m*3 17.3 C 0 km/h
1181 10-06-2014 02:20:00 17.3 C 12.67 g/m*3 17.3 C 0 km/h
1182 10-06-2014 02:25:00 17.2 C 12.59 g/m*3 17.2 C 0 km/h
1183 10-06-2014 02:30:00 17.1 C 12.66 g/m*3 17.1 C 0 km/h
1184 10-06-2014 02:35:00 17 C 12.59 g/m*3 17 C 0 km/h
1185 10-06-2014 02:40:00 17 C 12.59 g/m*3 17 C 0 km/h
1186 10-06-2014 02:45:00 16.9 C 12.51 g/m*3 16.9 C 0 km/h
1187 10-06-2014 02:50:00 16.9 C 12.51 g/m*3 16.9 C 0 km/h
1188 10-06-2014 02:55:00 16.8 C 12.58 g/m*3 16.8 C 0 km/h
1189 10-06-2014 03:00:00 16.8 C 12.58 g/m*3 16.8 C 0 km/h
1190 10-06-2014 03:05:00 16.7 C 12.51 g/m*3 16.7 C 0 km/h
1191 10-06-2014 03:10:00 16.6 C 12.43 g/m*3 16.6 C 0 km/h
1192 10-06-2014 03:15:00 16.6 C 12.57 g/m*3 16.6 C 0 km/h
1193 10-06-2014 03:20:00 16.6 C 12.57 g/m*3 16.6 C 0 km/h
1194 10-06-2014 03:25:00 16.6 C 12.57 g/m*3 16.6 C 0 km/h
1195 10-06-2014 03:30:00 16.6 C 12.57 g/m*3 16.6 C 3.2 km/h
1196 10-06-2014 03:35:00 16.6 C 12.57 g/m*3 16.6 C 0 km/h
1197 10-06-2014 03:40:00 16.6 C 12.57 g/m*3 16.6 C 0 km/h
1198 10-06-2014 03:45:00 16.6 C 12.57 g/m*3 16.6 C 0 km/h
1199 10-06-2014 03:50:00 16.6 C 12.57 g/m*3 16.6 C 1.6 km/h
1200 10-06-2014 03:55:00 16.6 C 12.57 g/m*3 16.6 C 0 km/h
Sensor: Nr:Datum:Temp:Abs-Feuchte:Windchill:Wind:
Aussen-T/F 1201 10-06-2014 04:00:00 16.6 C 12.57 g/m*3 16.6 C 1.6 km/h
1202 10-06-2014 04:05:00 16.6 C 12.57 g/m*3 16.6 C 0 km/h
1203 10-06-2014 04:10:00 16.6 C 12.57 g/m*3 16.6 C 0 km/h
1204 10-06-2014 04:15:00 16.4 C 12.42 g/m*3 16.4 C 0 km/h
1205 10-06-2014 04:20:00 16.3 C 12.35 g/m*3 16.3 C 0 km/h
1206 10-06-2014 04:25:00 16.3 C 12.35 g/m*3 16.3 C 0 km/h
1207 10-06-2014 04:30:00 16.3 C 12.35 g/m*3 16.3 C 0 km/h
1208 10-06-2014 04:35:00 16.3 C 12.35 g/m*3 16.3 C 0 km/h
1209 10-06-2014 04:40:00 16.2 C 12.27 g/m*3 16.2 C 0 km/h
1210 10-06-2014 04:45:00 16.2 C 12.41 g/m*3 16.2 C 4.8 km/h
1211 10-06-2014 04:50:00 16.2 C 12.27 g/m*3 16.2 C 4.8 km/h
1212 10-06-2014 04:55:00 16.2 C 12.41 g/m*3 16.2 C 0 km/h
1213 10-06-2014 05:00:00 16.1 C 12.2 g/m*3 16.1 C 0 km/h
1214 10-06-2014 05:05:00 16.1 C 12.2 g/m*3 16.1 C 0 km/h
1215 10-06-2014 05:10:00 16 C 12.26 g/m*3 16 C 0 km/h
1216 10-06-2014 05:15:00 16 C 12.4 g/m*3 16 C 0 km/h
1217 10-06-2014 05:20:00 15.9 C 12.32 g/m*3 15.9 C 0 km/h
1218 10-06-2014 05:25:00 15.9 C 12.32 g/m*3 15.9 C 0 km/h
1219 10-06-2014 05:30:00 15.9 C 12.32 g/m*3 15.9 C 0 km/h
1220 10-06-2014 05:35:00 15.9 C 12.32 g/m*3 15.9 C 0 km/h
1221 10-06-2014 05:40:00 16 C 12.4 g/m*3 16 C 0 km/h
1222 10-06-2014 05:45:00 16.1 C 12.61 g/m*3 16.1 C 0 km/h
1223 10-06-2014 05:50:00 16.1 C 12.47 g/m*3 16.1 C 1.6 km/h
1224 10-06-2014 05:55:00 16.3 C 12.62 g/m*3 16.3 C 6.4 km/h
1225 10-06-2014 06:00:00 16.4 C 12.56 g/m*3 16.4 C 6.4 km/h
Sensor: Nr:Datum:Temp:Abs-Feuchte:Windchill:Wind:
Aussen-T/F 1226 10-06-2014 06:05:00 16.5 C 12.64 g/m*3 16.5 C 1.6 km/h
1227 10-06-2014 06:10:00 16.6 C 12.71 g/m*3 16.6 C 6.4 km/h
1228 10-06-2014 06:15:00 16.7 C 12.79 g/m*3 16.7 C 1.6 km/h
1229 10-06-2014 06:20:00 16.6 C 12.71 g/m*3 16.6 C 0 km/h
1230 10-06-2014 06:25:00 16.7 C 12.79 g/m*3 16.7 C 0 km/h
1231 10-06-2014 06:30:00 16.6 C 12.71 g/m*3 16.6 C 0 km/h
1232 10-06-2014 06:35:00 16.7 C 12.65 g/m*3 16.7 C 1.6 km/h
1233 10-06-2014 06:40:00 16.7 C 12.65 g/m*3 16.7 C 1.6 km/h
1234 10-06-2014 06:45:00 16.8 C 12.72 g/m*3 16.8 C 4.8 km/h
1235 10-06-2014 06:50:00 16.8 C 12.87 g/m*3 16.8 C 0 km/h
1236 10-06-2014 06:55:00 16.8 C 12.87 g/m*3 16.8 C 0 km/h
1237 10-06-2014 07:00:00 16.8 C 12.87 g/m*3 16.8 C 4.8 km/h
1238 10-06-2014 07:05:00 16.8 C 12.87 g/m*3 16.8 C 4.8 km/h
1239 10-06-2014 07:10:00 17.3 C 13.11 g/m*3 17.3 C 1.6 km/h
1240 10-06-2014 07:15:00 17.6 C 13.35 g/m*3 17.6 C 4.8 km/h
1241 10-06-2014 07:20:00 17.7 C 13.28 g/m*3 17.7 C 3.2 km/h
1242 10-06-2014 07:25:00 18 C 13.36 g/m*3 18 C 4.8 km/h
1243 10-06-2014 07:30:00 18.3 C 13.6 g/m*3 18.3 C 0 km/h
1244 10-06-2014 07:35:00 18.4 C 13.68 g/m*3 18.4 C 0 km/h
1245 10-06-2014 07:40:00 18.6 C 13.69 g/m*3 18.6 C 1.6 km/h
1246 10-06-2014 07:45:00 18.7 C 13.77 g/m*3 18.7 C 0 km/h
1247 10-06-2014 07:50:00 18.8 C 13.53 g/m*3 18.8 C 0 km/h
1248 10-06-2014 07:55:00 18.9 C 13.93 g/m*3 18.9 C 0 km/h
1249 10-06-2014 08:00:00 18.9 C 13.61 g/m*3 18.9 C 0 km/h
1250 10-06-2014 08:05:00 19.1 C 13.93 g/m*3 19.1 C 0 km/h
Sensor: Nr:Datum:Temp:Abs-Feuchte:Windchill:Wind:
Aussen-T/F 1251 10-06-2014 08:10:00 19.2 C 14.02 g/m*3 19.2 C 0 km/h
1252 10-06-2014 08:15:00 19.4 C 14.01 g/m*3 19.4 C 0 km/h
1253 10-06-2014 08:20:00 19.6 C 14.18 g/m*3 19.6 C 0 km/h
1254 10-06-2014 08:25:00 19.8 C 14.35 g/m*3 19.8 C 0 km/h
1255 10-06-2014 08:30:00 19.9 C 14.43 g/m*3 19.9 C 1.6 km/h
1256 10-06-2014 08:35:00 20.1 C 14.25 g/m*3 20.1 C 0 km/h
1257 10-06-2014 08:40:00 20.4 C 14.51 g/m*3 20.4 C 0 km/h
1258 10-06-2014 08:45:00 20.7 C 14.58 g/m*3 20.7 C 0 km/h
1259 10-06-2014 08:50:00 21 C 14.65 g/m*3 21 C 0 km/h
1260 10-06-2014 08:55:00 21.2 C 14.83 g/m*3 21.2 C 0 km/h
1261 10-06-2014 09:00:00 21.2 C 14.64 g/m*3 21.2 C 0 km/h
1262 10-06-2014 09:05:00 21.3 C 14.35 g/m*3 21.3 C 0 km/h
1263 10-06-2014 09:10:00 21.3 C 14.73 g/m*3 21.3 C 0 km/h
1264 10-06-2014 09:15:00 21.3 C 14.54 g/m*3 21.3 C 0 km/h
1265 10-06-2014 09:20:00 21.1 C 14.56 g/m*3 21.1 C 0 km/h
1266 10-06-2014 09:25:00 20.8 C 14.67 g/m*3 20.8 C 0 km/h
1267 10-06-2014 09:30:00 20.8 C 14.67 g/m*3 20.8 C 0 km/h
1268 10-06-2014 09:35:00 21 C 14.65 g/m*3 21 C 3.2 km/h
1269 10-06-2014 09:40:00 21.4 C 13.87 g/m*3 21.4 C 3.2 km/h
1270 10-06-2014 09:45:00 21.8 C 14.01 g/m*3 21.8 C 1.6 km/h
1271 10-06-2014 09:50:00 21.8 C 14.58 g/m*3 21.8 C 0 km/h
1272 10-06-2014 09:55:00 21.6 C 14.79 g/m*3 21.6 C 0 km/h
1273 10-06-2014 10:00:00 21.4 C 15 g/m*3 21.4 C 0 km/h
1274 10-06-2014 10:05:00 21.7 C 15.26 g/m*3 21.7 C 0 km/h
1275 10-06-2014 10:10:00 22.2 C 14.53 g/m*3 22.2 C 0 km/h
Sensor: Nr:Datum:Temp:Abs-Feuchte:Windchill:Wind:
Aussen-T/F 1276 10-06-2014 10:15:00 22.6 C 15.27 g/m*3 22.6 C 1.6 km/h
1277 10-06-2014 10:20:00 23.1 C 14.06 g/m*3 23.1 C 1.6 km/h
1278 10-06-2014 10:25:00 23.7 C 14.33 g/m*3 23.7 C 1.6 km/h
1279 10-06-2014 10:30:00 24.2 C 14.3 g/m*3 24.2 C 3.2 km/h
1280 10-06-2014 10:35:00 24.6 C 14.4 g/m*3 24.6 C 4.8 km/h
1281 10-06-2014 10:40:00 25 C 14.27 g/m*3 25 C 6.4 km/h
1282 10-06-2014 10:45:00 25.4 C 14.36 g/m*3 25.4 C 8.1 km/h
1283 10-06-2014 10:50:00 25.7 C 14.36 g/m*3 25.7 C 11.3 km/h
1284 10-06-2014 10:55:00 25.9 C 14.04 g/m*3 25.9 C 6.4 km/h
1285 10-06-2014 11:00:00 26 C 14.12 g/m*3 26 C 4.8 km/h
1286 10-06-2014 11:05:00 25.9 C 14.04 g/m*3 25.9 C 3.2 km/h
1287 10-06-2014 11:10:00 25.9 C 14.28 g/m*3 25.9 C 1.6 km/h
1288 10-06-2014 11:15:00 25.8 C 14.69 g/m*3 25.8 C 1.6 km/h
1289 10-06-2014 11:20:00 25.6 C 15.24 g/m*3 25.6 C 0 km/h
1290 10-06-2014 11:25:00 25.2 C 15.83 g/m*3 25.2 C 0 km/h
1291 10-06-2014 11:30:00 24.7 C 16.07 g/m*3 24.7 C 0 km/h
1292 10-06-2014 11:35:00 24.3 C 15.93 g/m*3 24.3 C 0 km/h
1293 10-06-2014 11:40:00 24.2 C 16.06 g/m*3 24.2 C 0 km/h
1294 10-06-2014 11:45:00 24.4 C 15.58 g/m*3 24.4 C 0 km/h
1295 10-06-2014 11:50:00 24.8 C 15.25 g/m*3 24.8 C 0 km/h
1296 10-06-2014 11:55:00 25.2 C 16.06 g/m*3 25.2 C 1.6 km/h
1297 10-06-2014 12:00:00 25 C 15.88 g/m*3 25 C 0 km/h
1298 10-06-2014 12:05:00 25.1 C 16.2 g/m*3 25.1 C 3.2 km/h
1299 10-06-2014 12:10:00 25.8 C 16.37 g/m*3 25.8 C 6.4 km/h
1300 10-06-2014 12:15:00 26.7 C 15.69 g/m*3 26.7 C 11.3 km/h
Sensor: Nr:Datum:Temp:Abs-Feuchte:Windchill:Wind:
Aussen-T/F 1301 10-06-2014 12:20:00 27.2 C 15.61 g/m*3 27.2 C 9.7 km/h
1302 10-06-2014 12:25:00 27.6 C 16.49 g/m*3 27.6 C 9.7 km/h
1303 10-06-2014 12:30:00 27.9 C 16.5 g/m*3 27.9 C 9.7 km/h
1304 10-06-2014 12:35:00 28.1 C 16.13 g/m*3 28.1 C 11.3 km/h
1305 10-06-2014 12:40:00 28.4 C 15.84 g/m*3 28.4 C 9.7 km/h
1306 10-06-2014 12:45:00 28.7 C 16.11 g/m*3 28.7 C 11.3 km/h
1307 10-06-2014 12:50:00 28.7 C 15.82 g/m*3 28.7 C 11.3 km/h
1308 10-06-2014 12:55:00 28.9 C 16.85 g/m*3 28.9 C 11.3 km/h
1309 10-06-2014 13:00:00 29.2 C 15.97 g/m*3 29.2 C 8.1 km/h
1310 10-06-2014 13:05:00 29.4 C 16.44 g/m*3 29.4 C 8.1 km/h
1311 10-06-2014 13:10:00 29.8 C 16.2 g/m*3 29.8 C 6.4 km/h
1312 10-06-2014 13:15:00 30.2 C 16.86 g/m*3 30.2 C 6.4 km/h
1313 10-06-2014 13:20:00 30.3 C 16.33 g/m*3 30.3 C 4.8 km/h
1314 10-06-2014 13:25:00 30.7 C 16.69 g/m*3 30.7 C 6.4 km/h
1315 10-06-2014 13:30:00 30.7 C 17.01 g/m*3 30.7 C 4.8 km/h
1316 10-06-2014 13:35:00 30.6 C 16.6 g/m*3 30.6 C 3.2 km/h
1317 10-06-2014 13:40:00 30.5 C 15.89 g/m*3 30.5 C 8.1 km/h
1318 10-06-2014 13:45:00 30.6 C 16.29 g/m*3 30.6 C 4.8 km/h
1319 10-06-2014 13:50:00 30.6 C 16.6 g/m*3 30.6 C 8.1 km/h
1320 10-06-2014 13:55:00 30.7 C 16.06 g/m*3 30.7 C 8.1 km/h
1321 10-06-2014 14:00:00 31.1 C 16.73 g/m*3 31.1 C 3.2 km/h
1322 10-06-2014 14:05:00 31.3 C 16.91 g/m*3 31.3 C 4.8 km/h
1323 10-06-2014 14:10:00 31.4 C 16.67 g/m*3 31.4 C 4.8 km/h
1324 10-06-2014 14:15:00 31.4 C 16.35 g/m*3 31.4 C 6.4 km/h
1325 10-06-2014 14:20:00 31.6 C 16.19 g/m*3 31.6 C 1.6 km/h
Sensor: Nr:Datum:Temp:Abs-Feuchte:Windchill:Wind:
Aussen-T/F 1326 10-06-2014 14:25:00 31.7 C 15.95 g/m*3 31.7 C 4.8 km/h
1327 10-06-2014 14:30:00 31.8 C 16.7 g/m*3 31.8 C 3.2 km/h
1328 10-06-2014 14:35:00 32.2 C 16.04 g/m*3 32.2 C 3.2 km/h
1329 10-06-2014 14:40:00 32.4 C 16.21 g/m*3 32.4 C 3.2 km/h
1330 10-06-2014 14:45:00 32.2 C 15.7 g/m*3 32.2 C 4.8 km/h
1331 10-06-2014 14:50:00 32.1 C 16.97 g/m*3 32.1 C 4.8 km/h
1332 10-06-2014 14:55:00 32.3 C 15.78 g/m*3 32.3 C 6.4 km/h
1333 10-06-2014 15:00:00 32.4 C 16.21 g/m*3 32.4 C 3.2 km/h
1334 10-06-2014 15:05:00 32.7 C 15.42 g/m*3 32.7 C 4.8 km/h
1335 10-06-2014 15:10:00 32.9 C 15.58 g/m*3 32.9 C 4.8 km/h
1336 10-06-2014 15:15:00 33.1 C 15.39 g/m*3 33.1 C 4.8 km/h
1337 10-06-2014 15:20:00 33.1 C 16.1 g/m*3 33.1 C 6.4 km/h
1338 10-06-2014 15:25:00 33.1 C 15.39 g/m*3 33.1 C 6.4 km/h
1339 10-06-2014 15:30:00 33.4 C 15.63 g/m*3 33.4 C 3.2 km/h
1340 10-06-2014 15:35:00 33.6 C 15.43 g/m*3 33.6 C 4.8 km/h
1341 10-06-2014 15:40:00 33.8 C 15.59 g/m*3 33.8 C 4.8 km/h
1342 10-06-2014 15:45:00 34 C 14.26 g/m*3 34 C 8.1 km/h
1343 10-06-2014 15:50:00 33.9 C 14.18 g/m*3 33.9 C 9.7 km/h
1344 10-06-2014 15:55:00 33.5 C 14.25 g/m*3 33.5 C 4.8 km/h
1345 10-06-2014 16:00:00 33.3 C 13.74 g/m*3 33.3 C 1.6 km/h
1346 10-06-2014 16:05:00 33.6 C 15.06 g/m*3 33.6 C 4.8 km/h
1347 10-06-2014 16:10:00 33.8 C 14.48 g/m*3 33.8 C 4.8 km/h
1348 10-06-2014 16:15:00 34 C 15.01 g/m*3 34 C 8.1 km/h
1349 10-06-2014 16:20:00 34.3 C 14.1 g/m*3 34.3 C 4.8 km/h
1350 10-06-2014 16:25:00 34.6 C 14.71 g/m*3 34.6 C 6.4 km/h
Sensor: Nr:Datum:Temp:Abs-Feuchte:Windchill:Wind:
Aussen-T/F 1351 10-06-2014 16:30:00 34.2 C 14.41 g/m*3 34.2 C 6.4 km/h
1352 10-06-2014 16:35:00 34.1 C 14.71 g/m*3 34.1 C 4.8 km/h
1353 10-06-2014 16:40:00 34.1 C 14.33 g/m*3 34.1 C 8.1 km/h
1354 10-06-2014 16:45:00 34.1 C 15.09 g/m*3 34.1 C 8.1 km/h
1355 10-06-2014 16:50:00 34.1 C 14.71 g/m*3 34.1 C 3.2 km/h
1356 10-06-2014 16:55:00 34.1 C 14.33 g/m*3 34.1 C 4.8 km/h
1357 10-06-2014 17:00:00 34.4 C 13.79 g/m*3 34.4 C 8.1 km/h
1358 10-06-2014 17:05:00 34.6 C 13.94 g/m*3 34.6 C 6.4 km/h
1359 10-06-2014 17:10:00 35.1 C 13.11 g/m*3 35.1 C 6.4 km/h
1360 10-06-2014 17:15:00 34.6 C 12.39 g/m*3 34.6 C 4.8 km/h
1361 10-06-2014 17:20:00 33.9 C 14.93 g/m*3 33.9 C 4.8 km/h
1362 10-06-2014 17:25:00 32.8 C 16.2 g/m*3 32.8 C 3.2 km/h
1363 10-06-2014 17:30:00 31.5 C 16.44 g/m*3 31.5 C 1.6 km/h
1364 10-06-2014 17:35:00 30.7 C 15.43 g/m*3 30.7 C 6.4 km/h
1365 10-06-2014 17:40:00 30.6 C 15.03 g/m*3 30.6 C 4.8 km/h
1366 10-06-2014 17:45:00 30.6 C 15.66 g/m*3 30.6 C 3.2 km/h
1367 10-06-2014 17:50:00 30.1 C 14.63 g/m*3 30.1 C 29 km/h
1368 10-06-2014 17:55:00 29.9 C 14.78 g/m*3 29.9 C 11.3 km/h
1369 10-06-2014 18:00:00 30.1 C 15.85 g/m*3 30.1 C 8.1 km/h
1370 10-06-2014 18:05:00 30.4 C 16.73 g/m*3 30.4 C 24.1 km/h
1371 10-06-2014 18:10:00 30.6 C 16.29 g/m*3 30.6 C 16.1 km/h
1372 10-06-2014 18:15:00 30.5 C 16.51 g/m*3 30.5 C 16.1 km/h
1373 10-06-2014 18:20:00 30.4 C 16.42 g/m*3 30.4 C 16.1 km/h
1374 10-06-2014 18:25:00 30.2 C 16.55 g/m*3 30.2 C 24.1 km/h
1375 10-06-2014 18:30:00 30.3 C 15.72 g/m*3 30.3 C 19.3 km/h
Sensor: Nr:Datum:Temp:Abs-Feuchte:Windchill:Wind:
Aussen-T/F 1376 10-06-2014 18:35:00 29.7 C 15.22 g/m*3 29.7 C 14.5 km/h
1377 10-06-2014 18:40:00 29.2 C 15.39 g/m*3 29.2 C 14.5 km/h
1378 10-06-2014 18:45:00 28.9 C 15.43 g/m*3 28.9 C 12.9 km/h
1379 10-06-2014 18:50:00 28.8 C 14.49 g/m*3 28.8 C 12.9 km/h
1380 10-06-2014 18:55:00 28.6 C 14.33 g/m*3 28.6 C 11.3 km/h
1381 10-06-2014 19:00:00 28.3 C 15.2 g/m*3 28.3 C 6.4 km/h
1382 10-06-2014 19:05:00 27.9 C 14.87 g/m*3 27.9 C 9.7 km/h
1383 10-06-2014 19:10:00 27.8 C 15.33 g/m*3 27.8 C 6.4 km/h
1384 10-06-2014 19:15:00 27.8 C 15.6 g/m*3 27.8 C 4.8 km/h
1385 10-06-2014 19:20:00 27.8 C 15.87 g/m*3 27.8 C 3.2 km/h
1386 10-06-2014 19:25:00 27.7 C 16.05 g/m*3 27.7 C 8.1 km/h
1387 10-06-2014 19:30:00 27.9 C 15.96 g/m*3 27.9 C 16.1 km/h
1388 10-06-2014 19:35:00 27.9 C 15.69 g/m*3 27.9 C 19.3 km/h
1389 10-06-2014 19:40:00 27.8 C 15.33 g/m*3 27.8 C 14.5 km/h
1390 10-06-2014 19:45:00 27.7 C 15.78 g/m*3 27.7 C 9.7 km/h
1391 10-06-2014 19:50:00 27.8 C 15.6 g/m*3 27.8 C 8.1 km/h
1392 10-06-2014 19:55:00 27.7 C 15.51 g/m*3 27.7 C 11.3 km/h
1393 10-06-2014 20:00:00 27.4 C 15.52 g/m*3 27.4 C 9.7 km/h
1394 10-06-2014 20:05:00 27.2 C 15.35 g/m*3 27.2 C 6.4 km/h
1395 10-06-2014 20:10:00 26.8 C 15.27 g/m*3 26.8 C 12.9 km/h
1396 10-06-2014 20:15:00 26.7 C 15.44 g/m*3 26.7 C 9.7 km/h
1397 10-06-2014 20:20:00 26.5 C 15.52 g/m*3 26.5 C 11.3 km/h
1398 10-06-2014 20:25:00 26.4 C 15.43 g/m*3 26.4 C 4.8 km/h
1399 10-06-2014 20:30:00 26.3 C 15.6 g/m*3 26.3 C 8.1 km/h
1400 10-06-2014 20:35:00 26.2 C 15.51 g/m*3 26.2 C 6.4 km/h
Sensor: Nr:Datum:Temp:Abs-Feuchte:Windchill:Wind:
Aussen-T/F 1401 10-06-2014 20:40:00 26.1 C 15.67 g/m*3 26.1 C 6.4 km/h
1402 10-06-2014 20:45:00 25.9 C 16.46 g/m*3 25.9 C 4.8 km/h
1403 10-06-2014 20:50:00 25.7 C 16.52 g/m*3 25.7 C 1.6 km/h
1404 10-06-2014 20:55:00 25.2 C 16.99 g/m*3 25.2 C 4.8 km/h
1405 10-06-2014 21:00:00 24.6 C 16.66 g/m*3 24.6 C 3.2 km/h
1406 10-06-2014 21:05:00 24.4 C 16.02 g/m*3 24.4 C 8.1 km/h
1407 10-06-2014 21:10:00 24.4 C 16.69 g/m*3 24.4 C 6.4 km/h
1408 10-06-2014 21:15:00 24.2 C 16.28 g/m*3 24.2 C 6.4 km/h
1409 10-06-2014 21:20:00 24.1 C 16.85 g/m*3 24.1 C 4.8 km/h
1410 10-06-2014 21:25:00 23.9 C 16.66 g/m*3 23.9 C 3.2 km/h
1411 10-06-2014 21:30:00 23.7 C 16.68 g/m*3 23.7 C 1.6 km/h
1412 10-06-2014 21:35:00 23.5 C 16.5 g/m*3 23.5 C 0 km/h
1413 10-06-2014 21:40:00 23.4 C 16.61 g/m*3 23.4 C 1.6 km/h
1414 10-06-2014 21:45:00 23.3 C 16.52 g/m*3 23.3 C 1.6 km/h
1415 10-06-2014 21:50:00 23.3 C 16.52 g/m*3 23.3 C 0 km/h
1416 10-06-2014 21:55:00 23.1 C 16.54 g/m*3 23.1 C 0 km/h
1417 10-06-2014 22:00:00 23 C 16.44 g/m*3 23 C 0 km/h
1418 10-06-2014 22:05:00 22.8 C 16.26 g/m*3 22.8 C 1.6 km/h
1419 10-06-2014 22:10:00 22.7 C 16.37 g/m*3 22.7 C 1.6 km/h
1420 10-06-2014 22:15:00 22.6 C 16.27 g/m*3 22.6 C 1.6 km/h
1421 10-06-2014 22:20:00 22.4 C 16.09 g/m*3 22.4 C 1.6 km/h
1422 10-06-2014 22:25:00 22.3 C 15.99 g/m*3 22.3 C 0 km/h
1423 10-06-2014 22:30:00 22.2 C 15.9 g/m*3 22.2 C 0 km/h
1424 10-06-2014 22:35:00 22.1 C 15.81 g/m*3 22.1 C 0 km/h
1425 10-06-2014 22:40:00 22.1 C 15.81 g/m*3 22.1 C 1.6 km/h
Sensor: Nr:Datum:Temp:Abs-Feuchte:Windchill:Wind:
Aussen-T/F 1426 10-06-2014 22:45:00 22.1 C 15.81 g/m*3 22.1 C 0 km/h
1427 10-06-2014 22:50:00 22.1 C 15.81 g/m*3 22.1 C 0 km/h
1428 10-06-2014 22:55:00 22 C 15.91 g/m*3 22 C 0 km/h
1429 10-06-2014 23:00:00 21.9 C 15.82 g/m*3 21.9 C 0 km/h
1430 10-06-2014 23:05:00 21.8 C 15.73 g/m*3 21.8 C 0 km/h
1431 10-06-2014 23:10:00 21.8 C 15.73 g/m*3 21.8 C 0 km/h
1432 10-06-2014 23:15:00 21.7 C 15.64 g/m*3 21.7 C 0 km/h
1433 10-06-2014 23:20:00 21.6 C 15.74 g/m*3 21.6 C 0 km/h
1434 10-06-2014 23:25:00 21.4 C 15.75 g/m*3 21.4 C 0 km/h
1435 10-06-2014 23:30:00 21.4 C 15.75 g/m*3 21.4 C 0 km/h
1436 10-06-2014 23:35:00 21.3 C 15.66 g/m*3 21.3 C 0 km/h
1437 10-06-2014 23:40:00 21.2 C 15.57 g/m*3 21.2 C 0 km/h
1438 10-06-2014 23:45:00 21.2 C 15.75 g/m*3 21.2 C 0 km/h
1439 10-06-2014 23:50:00 21.2 C 15.75 g/m*3 21.2 C 0 km/h
1440 10-06-2014 23:55:00 21.1 C 15.66 g/m*3 21.1 C 0 km/h
1441 11-06-2014 00:00:00 20.9 C 15.48 g/m*3 20.9 C 0 km/h
1442 11-06-2014 00:05:00 20.7 C 15.48 g/m*3 20.7 C 0 km/h
1443 11-06-2014 00:10:00 20.6 C 15.57 g/m*3 20.6 C 0 km/h
1444 11-06-2014 00:15:00 20.5 C 15.48 g/m*3 20.5 C 0 km/h
1445 11-06-2014 00:20:00 20.4 C 15.57 g/m*3 20.4 C 0 km/h
1446 11-06-2014 00:25:00 20.4 C 15.57 g/m*3 20.4 C 0 km/h
1447 11-06-2014 00:30:00 20.3 C 15.48 g/m*3 20.3 C 0 km/h
1448 11-06-2014 00:35:00 20.3 C 15.65 g/m*3 20.3 C 0 km/h
1449 11-06-2014 00:40:00 20.2 C 15.56 g/m*3 20.2 C 0 km/h
1450 11-06-2014 00:45:00 20.1 C 15.47 g/m*3 20.1 C 0 km/h
Sensor: Nr:Datum:Temp:Abs-Feuchte:Windchill:Wind:
Aussen-T/F 1451 11-06-2014 00:50:00 20 C 15.38 g/m*3 20 C 0 km/h
1452 11-06-2014 00:55:00 19.9 C 15.46 g/m*3 19.9 C 0 km/h
1453 11-06-2014 01:00:00 19.9 C 15.46 g/m*3 19.9 C 0 km/h
1454 11-06-2014 01:05:00 19.9 C 15.46 g/m*3 19.9 C 0 km/h
1455 11-06-2014 01:10:00 19.8 C 15.37 g/m*3 19.8 C 0 km/h
1456 11-06-2014 01:15:00 19.8 C 15.54 g/m*3 19.8 C 0 km/h
1457 11-06-2014 01:20:00 19.8 C 15.54 g/m*3 19.8 C 0 km/h
1458 11-06-2014 01:25:00 19.7 C 15.28 g/m*3 19.7 C 0 km/h
1459 11-06-2014 01:30:00 19.7 C 15.45 g/m*3 19.7 C 0 km/h
1460 11-06-2014 01:35:00 19.6 C 15.36 g/m*3 19.6 C 0 km/h
1461 11-06-2014 01:40:00 19.6 C 15.36 g/m*3 19.6 C 0 km/h
1462 11-06-2014 01:45:00 19.5 C 15.27 g/m*3 19.5 C 0 km/h
1463 11-06-2014 01:50:00 19.5 C 15.44 g/m*3 19.5 C 0 km/h
1464 11-06-2014 01:55:00 19.4 C 15.35 g/m*3 19.4 C 0 km/h
1465 11-06-2014 02:00:00 19.4 C 15.35 g/m*3 19.4 C 0 km/h
1466 11-06-2014 02:05:00 19.4 C 15.35 g/m*3 19.4 C 3.2 km/h
1467 11-06-2014 02:10:00 19.6 C 15.36 g/m*3 19.6 C 3.2 km/h
1468 11-06-2014 02:15:00 19.8 C 15.37 g/m*3 19.8 C 4.8 km/h
1469 11-06-2014 02:20:00 20.2 C 15.39 g/m*3 20.2 C 6.4 km/h
1470 11-06-2014 02:25:00 20.4 C 15.39 g/m*3 20.4 C 1.6 km/h
1471 11-06-2014 02:30:00 20.5 C 15.48 g/m*3 20.5 C 4.8 km/h
1472 11-06-2014 02:35:00 20.7 C 15.48 g/m*3 20.7 C 8.1 km/h
1473 11-06-2014 02:40:00 20.7 C 15.3 g/m*3 20.7 C 9.7 km/h
1474 11-06-2014 02:45:00 20.7 C 15.3 g/m*3 20.7 C 14.5 km/h
1475 11-06-2014 02:50:00 20.6 C 15.21 g/m*3 20.6 C 11.3 km/h
Sensor: Nr:Datum:Temp:Abs-Feuchte:Windchill:Wind:
Aussen-T/F 1476 11-06-2014 02:55:00 20.6 C 15.03 g/m*3 20.6 C 6.4 km/h
1477 11-06-2014 03:00:00 20.5 C 14.95 g/m*3 20.5 C 6.4 km/h
1478 11-06-2014 03:05:00 20.4 C 14.86 g/m*3 20.4 C 4.8 km/h
1479 11-06-2014 03:10:00 20.3 C 14.77 g/m*3 20.3 C 1.6 km/h
1480 11-06-2014 03:15:00 20.2 C 14.69 g/m*3 20.2 C 3.2 km/h
1481 11-06-2014 03:20:00 20.2 C 14.69 g/m*3 20.2 C 1.6 km/h
1482 11-06-2014 03:25:00 20.1 C 14.6 g/m*3 20.1 C 4.8 km/h
1483 11-06-2014 03:30:00 20.2 C 14.69 g/m*3 20.2 C 3.2 km/h
1484 11-06-2014 03:35:00 20.2 C 14.69 g/m*3 20.2 C 0 km/h
1485 11-06-2014 03:40:00 20.2 C 14.69 g/m*3 20.2 C 1.6 km/h
1486 11-06-2014 03:45:00 20.1 C 14.6 g/m*3 20.1 C 3.2 km/h
1487 11-06-2014 03:50:00 20.1 C 14.43 g/m*3 20.1 C 1.6 km/h
1488 11-06-2014 03:55:00 20.2 C 14.51 g/m*3 20.2 C 1.6 km/h
1489 11-06-2014 04:00:00 20.2 C 14.51 g/m*3 20.2 C 0 km/h
1490 11-06-2014 04:05:00 20.2 C 14.86 g/m*3 20.2 C 1.6 km/h
1491 11-06-2014 04:10:00 20.1 C 14.95 g/m*3 20.1 C 0 km/h
1492 11-06-2014 04:15:00 19.8 C 14.69 g/m*3 19.8 C 0 km/h
1493 11-06-2014 04:20:00 19.8 C 14.69 g/m*3 19.8 C 0 km/h
1494 11-06-2014 05:20:00 18.4 C 14.63 g/m*3 18.4 C 12.9 km/h
1495 11-06-2014 05:25:00 18.8 C 14.82 g/m*3 18.8 C 14.5 km/h
1496 11-06-2014 05:30:00 18.9 C 14.74 g/m*3 18.9 C 9.7 km/h
1497 11-06-2014 05:35:00 19.1 C 14.75 g/m*3 19.1 C 9.7 km/h
1498 11-06-2014 05:40:00 19.1 C 14.75 g/m*3 19.1 C 8.1 km/h
1499 11-06-2014 05:45:00 19.1 C 14.75 g/m*3 19.1 C 6.4 km/h
1500 11-06-2014 05:50:00 18.7 C 14.57 g/m*3 18.7 C 17.7 km/h
Sensor: Nr:Datum:Temp:Abs-Feuchte:Windchill:Wind:
Aussen-T/F 1501 11-06-2014 05:55:00 18.7 C 14.57 g/m*3 18.7 C 8.1 km/h
1502 11-06-2014 06:00:00 18.4 C 14.47 g/m*3 18.4 C 8.1 km/h
1503 11-06-2014 06:05:00 18.3 C 14.38 g/m*3 18.3 C 4.8 km/h
1504 11-06-2014 06:10:00 18.1 C 14.37 g/m*3 18.1 C 3.2 km/h
1505 11-06-2014 06:15:00 18 C 14.44 g/m*3 18 C 1.6 km/h
1506 11-06-2014 06:20:00 17.9 C 14.35 g/m*3 17.9 C 0 km/h
1507 11-06-2014 06:25:00 17.9 C 14.35 g/m*3 17.9 C 0 km/h
1508 11-06-2014 06:30:00 17.9 C 14.5 g/m*3 17.9 C 1.6 km/h
1509 11-06-2014 06:35:00 17.9 C 14.5 g/m*3 17.9 C 0 km/h
1510 11-06-2014 06:40:00 17.8 C 14.42 g/m*3 17.8 C 0 km/h
1511 11-06-2014 06:45:00 17.9 C 14.5 g/m*3 17.9 C 0 km/h
1512 11-06-2014 06:50:00 17.9 C 14.5 g/m*3 17.9 C 0 km/h
1513 11-06-2014 06:55:00 17.9 C 14.5 g/m*3 17.9 C 0 km/h
1514 11-06-2014 07:00:00 17.8 C 14.42 g/m*3 17.8 C 0 km/h
1515 11-06-2014 07:05:00 17.8 C 14.42 g/m*3 17.8 C 0 km/h
1516 11-06-2014 07:10:00 17.8 C 14.57 g/m*3 17.8 C 0 km/h
1517 11-06-2014 07:15:00 17.8 C 14.57 g/m*3 17.8 C 0 km/h
1518 11-06-2014 07:20:00 17.8 C 14.57 g/m*3 17.8 C 0 km/h
1519 11-06-2014 07:40:00 17.9 C 14.66 g/m*3 17.9 C 0 km/h
1520 11-06-2014 07:45:00 17.9 C 14.66 g/m*3 17.9 C 1.6 km/h
1521 11-06-2014 07:50:00 17.8 C 14.57 g/m*3 17.8 C 0 km/h
1522 11-06-2014 07:55:00 17.9 C 14.66 g/m*3 17.9 C 0 km/h
1523 11-06-2014 08:00:00 17.9 C 14.66 g/m*3 17.9 C 0 km/h
1524 11-06-2014 08:05:00 18 C 14.9 g/m*3 18 C 0 km/h
1525 11-06-2014 08:10:00 18 C 14.9 g/m*3 18 C 1.6 km/h
Sensor: Nr:Datum:Temp:Abs-Feuchte:Windchill:Wind:
Aussen-T/F 1526 11-06-2014 08:15:00 18.1 C 14.99 g/m*3 18.1 C 3.2 km/h
1527 11-06-2014 08:20:00 18.1 C 14.99 g/m*3 18.1 C 0 km/h
1528 11-06-2014 08:25:00 18.1 C 14.99 g/m*3 18.1 C 1.6 km/h
1529 11-06-2014 08:30:00 18.2 C 15.08 g/m*3 18.2 C 1.6 km/h
1530 11-06-2014 08:35:00 18.3 C 15.01 g/m*3 18.3 C 1.6 km/h
1531 11-06-2014 08:40:00 18.3 C 15.01 g/m*3 18.3 C 1.6 km/h
1532 11-06-2014 08:45:00 18.6 C 15.44 g/m*3 18.6 C 1.6 km/h
1533 11-06-2014 08:50:00 18.8 C 15.62 g/m*3 18.8 C 3.2 km/h
1534 11-06-2014 08:55:00 19 C 15.81 g/m*3 19 C 3.2 km/h
1535 11-06-2014 09:00:00 18.9 C 15.55 g/m*3 18.9 C 0 km/h
1536 11-06-2014 09:05:00 19 C 15.64 g/m*3 19 C 1.6 km/h
1537 11-06-2014 09:10:00 19 C 15.64 g/m*3 19 C 3.2 km/h
1538 11-06-2014 09:15:00 19.1 C 15.74 g/m*3 19.1 C 0 km/h
1539 11-06-2014 09:20:00 19.1 C 15.41 g/m*3 19.1 C 3.2 km/h
1540 11-06-2014 09:25:00 19.1 C 15.41 g/m*3 19.1 C 1.6 km/h
1541 11-06-2014 09:30:00 19.3 C 15.76 g/m*3 19.3 C 3.2 km/h
1542 11-06-2014 09:35:00 19.3 C 15.59 g/m*3 19.3 C 8.1 km/h
1543 11-06-2014 09:40:00 19.4 C 15.52 g/m*3 19.4 C 6.4 km/h
1544 11-06-2014 09:45:00 19.6 C 15.7 g/m*3 19.6 C 9.7 km/h
1545 11-06-2014 09:50:00 19.6 C 15.36 g/m*3 19.6 C 6.4 km/h
1546 11-06-2014 09:55:00 19.6 C 15.19 g/m*3 19.6 C 3.2 km/h
1547 11-06-2014 10:00:00 19.6 C 15.19 g/m*3 19.6 C 1.6 km/h
1548 11-06-2014 10:05:00 19.6 C 15.36 g/m*3 19.6 C 11.3 km/h
1549 11-06-2014 10:10:00 19.2 C 14.68 g/m*3 19.2 C 12.9 km/h
1550 11-06-2014 10:15:00 18.8 C 14.33 g/m*3 18.8 C 17.7 km/h
Sensor: Nr:Datum:Temp:Abs-Feuchte:Windchill:Wind:
Aussen-T/F 1551 11-06-2014 10:20:00 18.3 C 13.92 g/m*3 18.3 C 14.5 km/h
1552 11-06-2014 10:25:00 18.2 C 13.99 g/m*3 18.2 C 12.9 km/h
1553 11-06-2014 10:30:00 18 C 13.82 g/m*3 18 C 11.3 km/h
1554 11-06-2014 10:35:00 18 C 13.82 g/m*3 18 C 14.5 km/h
1555 11-06-2014 10:40:00 17.9 C 13.74 g/m*3 17.9 C 12.9 km/h
1556 11-06-2014 10:45:00 17.9 C 13.89 g/m*3 17.9 C 11.3 km/h
1557 11-06-2014 10:50:00 17.9 C 13.59 g/m*3 17.9 C 17.7 km/h
1558 11-06-2014 10:55:00 17.8 C 13.66 g/m*3 17.8 C 14.5 km/h
1559 11-06-2014 11:00:00 17.8 C 13.66 g/m*3 17.8 C 9.7 km/h
1560 11-06-2014 11:05:00 17.8 C 13.51 g/m*3 17.8 C 14.5 km/h
1561 11-06-2014 11:10:00 17.8 C 13.51 g/m*3 17.8 C 8.1 km/h
1562 11-06-2014 11:15:00 17.8 C 13.51 g/m*3 17.8 C 6.4 km/h
1563 11-06-2014 11:20:00 17.8 C 13.66 g/m*3 17.8 C 17.7 km/h
1564 11-06-2014 11:25:00 17.7 C 13.43 g/m*3 17.7 C 8.1 km/h
1565 11-06-2014 11:30:00 17.7 C 13.43 g/m*3 17.7 C 14.5 km/h
1566 11-06-2014 11:35:00 17.7 C 13.43 g/m*3 17.7 C 14.5 km/h
1567 11-06-2014 11:40:00 17.7 C 13.43 g/m*3 17.7 C 14.5 km/h
1568 11-06-2014 11:45:00 17.7 C 13.43 g/m*3 17.7 C 8.1 km/h
1569 11-06-2014 11:50:00 17.8 C 13.51 g/m*3 17.8 C 6.4 km/h
1570 11-06-2014 11:55:00 17.8 C 13.51 g/m*3 17.8 C 8.1 km/h
1571 11-06-2014 12:00:00 17.8 C 13.51 g/m*3 17.8 C 8.1 km/h
1572 11-06-2014 12:05:00 18.2 C 13.83 g/m*3 18.2 C 11.3 km/h
1573 11-06-2014 12:10:00 18.3 C 13.92 g/m*3 18.3 C 8.1 km/h
1574 11-06-2014 12:15:00 18.4 C 13.68 g/m*3 18.4 C 11.3 km/h
1575 11-06-2014 12:20:00 18.5 C 13.45 g/m*3 18.5 C 9.7 km/h
Sensor: Nr:Datum:Temp:Abs-Feuchte:Windchill:Wind:
Aussen-T/F 1576 11-06-2014 12:25:00 18.6 C 13.85 g/m*3 18.6 C 9.7 km/h
1577 11-06-2014 12:30:00 18.7 C 13.61 g/m*3 18.7 C 12.9 km/h
1578 11-06-2014 12:35:00 18.9 C 13.77 g/m*3 18.9 C 9.7 km/h
1579 11-06-2014 12:40:00 18.9 C 13.61 g/m*3 18.9 C 8.1 km/h
1580 11-06-2014 12:45:00 18.9 C 13.61 g/m*3 18.9 C 11.3 km/h
1581 11-06-2014 12:50:00 19.1 C 13.93 g/m*3 19.1 C 6.4 km/h
1582 11-06-2014 12:55:00 19.2 C 13.69 g/m*3 19.2 C 8.1 km/h
1583 11-06-2014 13:00:00 19.2 C 13.85 g/m*3 19.2 C 16.1 km/h
1584 11-06-2014 13:05:00 19.3 C 13.6 g/m*3 19.3 C 9.7 km/h
1585 11-06-2014 13:10:00 19.3 C 13.44 g/m*3 19.3 C 11.3 km/h
1586 11-06-2014 13:15:00 19.3 C 13.6 g/m*3 19.3 C 4.8 km/h
1587 11-06-2014 13:20:00 19.4 C 13.68 g/m*3 19.4 C 6.4 km/h
1588 11-06-2014 13:25:00 19.4 C 13.68 g/m*3 19.4 C 9.7 km/h
1589 11-06-2014 13:30:00 19.4 C 13.85 g/m*3 19.4 C 6.4 km/h
1590 11-06-2014 13:35:00 19.6 C 13.84 g/m*3 19.6 C 6.4 km/h
1591 11-06-2014 13:40:00 19.6 C 13.84 g/m*3 19.6 C 4.8 km/h
1592 11-06-2014 13:45:00 19.7 C 14.09 g/m*3 19.7 C 4.8 km/h
1593 11-06-2014 13:50:00 19.9 C 14.26 g/m*3 19.9 C 6.4 km/h
1594 11-06-2014 13:55:00 20.2 C 14.34 g/m*3 20.2 C 6.4 km/h
1595 11-06-2014 14:00:00 20.3 C 14.25 g/m*3 20.3 C 9.7 km/h
1596 11-06-2014 14:05:00 20.4 C 14.33 g/m*3 20.4 C 6.4 km/h
1597 11-06-2014 14:10:00 20.5 C 14.41 g/m*3 20.5 C 8.1 km/h
1598 11-06-2014 14:15:00 20.6 C 14.32 g/m*3 20.6 C 6.4 km/h
1599 11-06-2014 14:20:00 20.6 C 14.32 g/m*3 20.6 C 4.8 km/h
1600 11-06-2014 14:25:00 20.7 C 14.22 g/m*3 20.7 C 8.1 km/h
Sensor: Nr:Datum:Temp:Abs-Feuchte:Windchill:Wind:
Aussen-T/F 1601 11-06-2014 14:30:00 20.7 C 14.22 g/m*3 20.7 C 4.8 km/h
1602 11-06-2014 14:35:00 20.7 C 14.58 g/m*3 20.7 C 11.3 km/h
1603 11-06-2014 14:40:00 20.7 C 14.22 g/m*3 20.7 C 9.7 km/h
1604 11-06-2014 14:45:00 20.9 C 14.57 g/m*3 20.9 C 9.7 km/h
1605 11-06-2014 14:50:00 21.1 C 14.19 g/m*3 21.1 C 8.1 km/h
1606 11-06-2014 14:55:00 21.2 C 14.27 g/m*3 21.2 C 4.8 km/h
1607 11-06-2014 15:00:00 21.3 C 14.35 g/m*3 21.3 C 8.1 km/h
1608 11-06-2014 15:05:00 21.4 C 14.44 g/m*3 21.4 C 8.1 km/h
1609 11-06-2014 15:10:00 21.5 C 14.52 g/m*3 21.5 C 8.1 km/h
1610 11-06-2014 15:15:00 21.6 C 14.22 g/m*3 21.6 C 4.8 km/h
1611 11-06-2014 15:20:00 21.7 C 14.31 g/m*3 21.7 C 6.4 km/h
1612 11-06-2014 15:25:00 21.9 C 14.47 g/m*3 21.9 C 8.1 km/h
1613 11-06-2014 15:30:00 22 C 14.17 g/m*3 22 C 6.4 km/h
1614 11-06-2014 15:35:00 22.2 C 14.14 g/m*3 22.2 C 6.4 km/h
1615 11-06-2014 15:40:00 22.2 C 14.33 g/m*3 22.2 C 8.1 km/h
1616 11-06-2014 15:45:00 22.2 C 14.33 g/m*3 22.2 C 4.8 km/h
1617 11-06-2014 15:50:00 22.1 C 14.05 g/m*3 22.1 C 3.2 km/h
1618 11-06-2014 15:55:00 22.1 C 14.25 g/m*3 22.1 C 3.2 km/h
1619 11-06-2014 16:00:00 22.5 C 14.78 g/m*3 22.5 C 8.1 km/h
1620 11-06-2014 16:05:00 22.9 C 14.31 g/m*3 22.9 C 8.1 km/h
1621 11-06-2014 16:10:00 23.1 C 14.68 g/m*3 23.1 C 4.8 km/h
1622 11-06-2014 16:15:00 23.1 C 14.47 g/m*3 23.1 C 4.8 km/h
1623 11-06-2014 16:20:00 23.1 C 14.47 g/m*3 23.1 C 8.1 km/h
1624 11-06-2014 16:25:00 23.2 C 14.34 g/m*3 23.2 C 4.8 km/h
1625 11-06-2014 16:30:00 23.3 C 14.64 g/m*3 23.3 C 6.4 km/h
Sensor: Nr:Datum:Temp:Abs-Feuchte:Windchill:Wind:
Aussen-T/F 1626 11-06-2014 16:35:00 23.1 C 14.06 g/m*3 23.1 C 4.8 km/h
1627 11-06-2014 16:40:00 23.3 C 14.43 g/m*3 23.3 C 9.7 km/h
1628 11-06-2014 16:45:00 23.8 C 14.63 g/m*3 23.8 C 8.1 km/h
1629 11-06-2014 16:50:00 24.1 C 14.66 g/m*3 24.1 C 11.3 km/h
1630 11-06-2014 16:55:00 24.1 C 14.66 g/m*3 24.1 C 6.4 km/h
1631 11-06-2014 17:00:00 24.3 C 14.16 g/m*3 24.3 C 3.2 km/h
1632 11-06-2014 17:05:00 24.4 C 14.69 g/m*3 24.4 C 6.4 km/h
1633 11-06-2014 17:10:00 24.4 C 14.02 g/m*3 24.4 C 12.9 km/h
1634 11-06-2014 17:15:00 24.3 C 14.61 g/m*3 24.3 C 6.4 km/h
1635 11-06-2014 17:20:00 24.2 C 13.86 g/m*3 24.2 C 8.1 km/h
1636 11-06-2014 17:25:00 24.3 C 13.94 g/m*3 24.3 C 8.1 km/h
1637 11-06-2014 17:30:00 24.3 C 13.72 g/m*3 24.3 C 6.4 km/h
1638 11-06-2014 17:35:00 24.3 C 13.94 g/m*3 24.3 C 6.4 km/h
1639 11-06-2014 17:40:00 24.2 C 13.86 g/m*3 24.2 C 8.1 km/h
1640 11-06-2014 17:45:00 24.1 C 14 g/m*3 24.1 C 11.3 km/h
1641 11-06-2014 17:50:00 23.9 C 14.06 g/m*3 23.9 C 9.7 km/h
1642 11-06-2014 17:55:00 24 C 13.92 g/m*3 24 C 6.4 km/h
1643 11-06-2014 18:00:00 24.2 C 13.42 g/m*3 24.2 C 9.7 km/h
1644 11-06-2014 18:05:00 24.2 C 13.42 g/m*3 24.2 C 11.3 km/h
1645 11-06-2014 18:10:00 24 C 13.71 g/m*3 24 C 9.7 km/h
1646 11-06-2014 18:15:00 24 C 13.05 g/m*3 24 C 8.1 km/h
1647 11-06-2014 18:20:00 24.2 C 12.76 g/m*3 24.2 C 6.4 km/h
1648 11-06-2014 18:25:00 24.4 C 12.91 g/m*3 24.4 C 9.7 km/h
1649 11-06-2014 18:30:00 24.4 C 13.35 g/m*3 24.4 C 9.7 km/h
1650 11-06-2014 18:35:00 24.7 C 13.81 g/m*3 24.7 C 9.7 km/h
Sensor: Nr:Datum:Temp:Abs-Feuchte:Windchill:Wind:
Aussen-T/F 1651 11-06-2014 18:40:00 24.8 C 12.75 g/m*3 24.8 C 6.4 km/h
1652 11-06-2014 18:45:00 24.7 C 13.35 g/m*3 24.7 C 9.7 km/h
1653 11-06-2014 18:50:00 24.6 C 13.05 g/m*3 24.6 C 8.1 km/h
1654 11-06-2014 18:55:00 24.7 C 12.9 g/m*3 24.7 C 9.7 km/h
1655 11-06-2014 19:00:00 24.8 C 12.75 g/m*3 24.8 C 9.7 km/h
1656 11-06-2014 19:05:00 24.7 C 12.9 g/m*3 24.7 C 9.7 km/h
1657 11-06-2014 19:10:00 24.8 C 12.97 g/m*3 24.8 C 11.3 km/h
1658 11-06-2014 19:15:00 24.8 C 12.97 g/m*3 24.8 C 8.1 km/h
1659 11-06-2014 19:20:00 24.6 C 12.6 g/m*3 24.6 C 9.7 km/h
1660 11-06-2014 19:25:00 24.3 C 12.17 g/m*3 24.3 C 8.1 km/h
1661 11-06-2014 19:30:00 24.1 C 12.03 g/m*3 24.1 C 9.7 km/h
1662 11-06-2014 19:35:00 23.8 C 11.83 g/m*3 23.8 C 9.7 km/h
1663 11-06-2014 19:40:00 23.6 C 12.12 g/m*3 23.6 C 9.7 km/h
1664 11-06-2014 19:45:00 23.3 C 12.13 g/m*3 23.3 C 11.3 km/h
1665 11-06-2014 19:50:00 23.1 C 11.58 g/m*3 23.1 C 9.7 km/h
1666 11-06-2014 19:55:00 22.9 C 11.04 g/m*3 22.9 C 11.3 km/h
1667 11-06-2014 20:00:00 22.7 C 11.31 g/m*3 22.7 C 8.1 km/h
1668 11-06-2014 20:05:00 22.7 C 11.52 g/m*3 22.7 C 11.3 km/h
1669 11-06-2014 20:10:00 22.6 C 11.25 g/m*3 22.6 C 8.1 km/h
1670 11-06-2014 20:15:00 22.4 C 11.12 g/m*3 22.4 C 8.1 km/h
1671 11-06-2014 20:20:00 22.3 C 11.45 g/m*3 22.3 C 8.1 km/h
1672 11-06-2014 20:25:00 22.2 C 11.19 g/m*3 22.2 C 9.7 km/h
1673 11-06-2014 20:30:00 22.1 C 11.32 g/m*3 22.1 C 6.4 km/h
1674 11-06-2014 20:35:00 22.1 C 11.32 g/m*3 22.1 C 4.8 km/h
1675 11-06-2014 20:40:00 22.1 C 11.32 g/m*3 22.1 C 3.2 km/h
Sensor: Nr:Datum:Temp:Abs-Feuchte:Windchill:Wind:
Aussen-T/F 1676 11-06-2014 20:45:00 22 C 11.45 g/m*3 22 C 3.2 km/h
1677 11-06-2014 20:50:00 21.9 C 11.39 g/m*3 21.9 C 3.2 km/h
1678 11-06-2014 20:55:00 21.8 C 12.66 g/m*3 21.8 C 1.6 km/h
1679 11-06-2014 21:00:00 21.4 C 11.81 g/m*3 21.4 C 4.8 km/h
1680 11-06-2014 21:05:00 21.2 C 12.23 g/m*3 21.2 C 3.2 km/h
1681 11-06-2014 21:10:00 20.9 C 12.2 g/m*3 20.9 C 0 km/h
1682 11-06-2014 21:15:00 20.6 C 12.53 g/m*3 20.6 C 1.6 km/h
1683 11-06-2014 21:20:00 20.2 C 12.59 g/m*3 20.2 C 0 km/h
1684 11-06-2014 21:25:00 19.8 C 12.81 g/m*3 19.8 C 1.6 km/h
1685 11-06-2014 21:30:00 19.4 C 12.68 g/m*3 19.4 C 0 km/h
1686 11-06-2014 21:35:00 19.1 C 12.62 g/m*3 19.1 C 0 km/h
1687 11-06-2014 21:40:00 18.8 C 12.56 g/m*3 18.8 C 0 km/h
1688 11-06-2014 21:45:00 18.7 C 12.65 g/m*3 18.7 C 0 km/h
1689 11-06-2014 21:50:00 18.5 C 12.82 g/m*3 18.5 C 0 km/h
1690 11-06-2014 21:55:00 18.3 C 12.98 g/m*3 18.3 C 1.6 km/h
1691 11-06-2014 22:00:00 18.2 C 12.75 g/m*3 18.2 C 1.6 km/h
1692 11-06-2014 22:05:00 17.9 C 12.52 g/m*3 17.9 C 0 km/h
1693 11-06-2014 22:10:00 17.8 C 12.45 g/m*3 17.8 C 0 km/h
1694 11-06-2014 22:15:00 17.7 C 12.52 g/m*3 17.7 C 0 km/h
1695 11-06-2014 22:20:00 17.5 C 12.52 g/m*3 17.5 C 0 km/h
1696 11-06-2014 22:25:00 17.4 C 12.6 g/m*3 17.4 C 1.6 km/h
1697 11-06-2014 22:30:00 17.3 C 12.52 g/m*3 17.3 C 0 km/h
1698 11-06-2014 22:35:00 17.2 C 12.45 g/m*3 17.2 C 0 km/h
1699 11-06-2014 22:40:00 17.1 C 12.52 g/m*3 17.1 C 1.6 km/h
1700 11-06-2014 22:45:00 16.9 C 12.37 g/m*3 16.9 C 0 km/h
Sensor: Nr:Datum:Temp:Abs-Feuchte:Windchill:Wind:
Aussen-T/F 1701 11-06-2014 22:50:00 16.9 C 12.37 g/m*3 16.9 C 1.6 km/h
1702 11-06-2014 22:55:00 16.8 C 12.3 g/m*3 16.8 C 0 km/h
1703 11-06-2014 23:00:00 16.8 C 12.3 g/m*3 16.8 C 1.6 km/h
1704 11-06-2014 23:05:00 16.8 C 12.44 g/m*3 16.8 C 1.6 km/h
1705 11-06-2014 23:10:00 16.7 C 12.36 g/m*3 16.7 C 0 km/h
1706 11-06-2014 23:15:00 16.7 C 12.36 g/m*3 16.7 C 0 km/h
1707 11-06-2014 23:20:00 16.7 C 12.36 g/m*3 16.7 C 0 km/h
1708 11-06-2014 23:25:00 16.6 C 12.29 g/m*3 16.6 C 0 km/h
1709 11-06-2014 23:30:00 16.6 C 12.29 g/m*3 16.6 C 0 km/h
1710 11-06-2014 23:35:00 16.5 C 12.36 g/m*3 16.5 C 0 km/h
1711 11-06-2014 23:40:00 16.4 C 12.28 g/m*3 16.4 C 0 km/h
1712 11-06-2014 23:45:00 16.4 C 12.28 g/m*3 16.4 C 1.6 km/h
1713 11-06-2014 23:50:00 16.4 C 12.28 g/m*3 16.4 C 0 km/h
1714 11-06-2014 23:55:00 16.3 C 12.21 g/m*3 16.3 C 0 km/h
1715 12-06-2014 00:00:00 16.3 C 12.21 g/m*3 16.3 C 0 km/h
1716 12-06-2014 00:05:00 16.3 C 12.07 g/m*3 16.3 C 0 km/h
1717 12-06-2014 00:10:00 16.3 C 12.07 g/m*3 16.3 C 0 km/h
1718 12-06-2014 00:15:00 16.3 C 12.07 g/m*3 16.3 C 0 km/h
1719 12-06-2014 00:20:00 16.2 C 12 g/m*3 16.2 C 1.6 km/h
1720 12-06-2014 00:25:00 16.2 C 12 g/m*3 16.2 C 0 km/h
1721 12-06-2014 00:30:00 16.2 C 12.14 g/m*3 16.2 C 0 km/h
1722 12-06-2014 00:35:00 16.1 C 12.06 g/m*3 16.1 C 0 km/h
1723 12-06-2014 00:40:00 16.1 C 12.2 g/m*3 16.1 C 0 km/h
1724 12-06-2014 00:45:00 16.1 C 12.2 g/m*3 16.1 C 0 km/h
1725 12-06-2014 00:50:00 15.9 C 11.92 g/m*3 15.9 C 0 km/h
Sensor: Nr:Datum:Temp:Abs-Feuchte:Windchill:Wind:
Aussen-T/F 1726 12-06-2014 00:55:00 15.9 C 11.92 g/m*3 15.9 C 0 km/h
1727 12-06-2014 01:00:00 15.8 C 11.98 g/m*3 15.8 C 0 km/h
1728 12-06-2014 01:05:00 15.8 C 11.98 g/m*3 15.8 C 0 km/h
1729 12-06-2014 01:10:00 15.8 C 12.11 g/m*3 15.8 C 1.6 km/h
1730 12-06-2014 01:15:00 15.7 C 11.91 g/m*3 15.7 C 1.6 km/h
1731 12-06-2014 01:20:00 15.7 C 11.91 g/m*3 15.7 C 0 km/h
1732 12-06-2014 01:25:00 15.7 C 11.91 g/m*3 15.7 C 0 km/h
1733 12-06-2014 01:30:00 15.7 C 12.04 g/m*3 15.7 C 0 km/h
1734 12-06-2014 01:35:00 15.6 C 11.84 g/m*3 15.6 C 0 km/h
1735 12-06-2014 01:40:00 15.6 C 11.84 g/m*3 15.6 C 0 km/h
1736 12-06-2014 01:45:00 15.6 C 11.97 g/m*3 15.6 C 0 km/h
1737 12-06-2014 01:50:00 15.5 C 11.9 g/m*3 15.5 C 1.6 km/h
1738 12-06-2014 01:55:00 15.4 C 11.69 g/m*3 15.4 C 0 km/h
1739 12-06-2014 02:00:00 15.4 C 11.82 g/m*3 15.4 C 0 km/h
1740 12-06-2014 02:05:00 15.4 C 11.82 g/m*3 15.4 C 0 km/h
1741 12-06-2014 02:10:00 15.4 C 11.82 g/m*3 15.4 C 0 km/h
1742 12-06-2014 02:15:00 15.4 C 11.82 g/m*3 15.4 C 1.6 km/h
1743 12-06-2014 02:20:00 15.3 C 11.62 g/m*3 15.3 C 0 km/h
1744 12-06-2014 02:25:00 15.3 C 11.62 g/m*3 15.3 C 0 km/h
1745 12-06-2014 02:30:00 15.2 C 11.55 g/m*3 15.2 C 0 km/h
1746 12-06-2014 02:35:00 15.2 C 11.55 g/m*3 15.2 C 0 km/h
1747 12-06-2014 02:40:00 15.2 C 11.68 g/m*3 15.2 C 0 km/h
1748 12-06-2014 02:45:00 15.1 C 11.48 g/m*3 15.1 C 0 km/h
1749 12-06-2014 02:50:00 15 C 11.41 g/m*3 15 C 1.6 km/h
1750 12-06-2014 02:55:00 15 C 11.41 g/m*3 15 C 0 km/h
Sensor: Nr:Datum:Temp:Abs-Feuchte:Windchill:Wind:
Aussen-T/F 1751 12-06-2014 03:00:00 14.9 C 11.47 g/m*3 14.9 C 1.6 km/h
1752 12-06-2014 03:05:00 14.9 C 11.47 g/m*3 14.9 C 0 km/h
1753 12-06-2014 03:10:00 14.9 C 11.47 g/m*3 14.9 C 0 km/h
1754 12-06-2014 03:15:00 14.8 C 11.4 g/m*3 14.8 C 0 km/h
1755 12-06-2014 03:20:00 14.8 C 11.27 g/m*3 14.8 C 0 km/h
1756 12-06-2014 03:25:00 14.7 C 11.33 g/m*3 14.7 C 0 km/h
1757 12-06-2014 03:30:00 14.7 C 11.33 g/m*3 14.7 C 0 km/h
1758 12-06-2014 03:35:00 14.7 C 11.33 g/m*3 14.7 C 0 km/h
1759 12-06-2014 03:40:00 14.6 C 11.26 g/m*3 14.6 C 0 km/h
1760 12-06-2014 03:45:00 14.6 C 11.26 g/m*3 14.6 C 0 km/h
1761 12-06-2014 03:50:00 14.6 C 11.26 g/m*3 14.6 C 0 km/h
1762 12-06-2014 03:55:00 14.6 C 11.26 g/m*3 14.6 C 1.6 km/h
1763 12-06-2014 04:00:00 14.6 C 11.14 g/m*3 14.6 C 0 km/h
1764 12-06-2014 04:05:00 14.7 C 11.21 g/m*3 14.7 C 0 km/h
1765 12-06-2014 04:10:00 14.7 C 11.08 g/m*3 14.7 C 1.6 km/h
1766 12-06-2014 04:15:00 14.7 C 11.21 g/m*3 14.7 C 4.8 km/h
1767 12-06-2014 04:20:00 14.8 C 11.02 g/m*3 14.8 C 3.2 km/h
1768 12-06-2014 04:25:00 15 C 11.03 g/m*3 15 C 1.6 km/h
1769 12-06-2014 04:30:00 15.1 C 10.97 g/m*3 15.1 C 3.2 km/h
1770 12-06-2014 04:35:00 15.2 C 11.03 g/m*3 15.2 C 4.8 km/h
1771 12-06-2014 04:40:00 15.1 C 11.09 g/m*3 15.1 C 0 km/h
1772 12-06-2014 04:45:00 14.9 C 10.96 g/m*3 14.9 C 0 km/h
1773 12-06-2014 04:50:00 14.7 C 10.95 g/m*3 14.7 C 0 km/h
1774 12-06-2014 04:55:00 14.6 C 10.89 g/m*3 14.6 C 0 km/h
1775 12-06-2014 05:00:00 14.5 C 10.94 g/m*3 14.5 C 1.6 km/h
Sensor: Nr:Datum:Temp:Abs-Feuchte:Windchill:Wind:
Aussen-T/F 1776 12-06-2014 05:05:00 14.4 C 11 g/m*3 14.4 C 0 km/h
1777 12-06-2014 05:10:00 14.3 C 10.93 g/m*3 14.3 C 0 km/h
1778 12-06-2014 05:15:00 14.3 C 10.93 g/m*3 14.3 C 1.6 km/h
1779 12-06-2014 05:20:00 14.3 C 10.81 g/m*3 14.3 C 1.6 km/h
1780 12-06-2014 05:25:00 14.4 C 10.88 g/m*3 14.4 C 0 km/h
1781 12-06-2014 05:30:00 14.4 C 10.75 g/m*3 14.4 C 0 km/h
1782 12-06-2014 05:35:00 14.5 C 10.82 g/m*3 14.5 C 1.6 km/h
1783 12-06-2014 05:40:00 14.5 C 10.82 g/m*3 14.5 C 0 km/h
1784 12-06-2014 05:45:00 14.4 C 10.88 g/m*3 14.4 C 0 km/h
1785 12-06-2014 05:50:00 14.3 C 10.81 g/m*3 14.3 C 0 km/h
1786 12-06-2014 05:55:00 14.2 C 10.75 g/m*3 14.2 C 0 km/h
1787 12-06-2014 06:00:00 14.2 C 10.87 g/m*3 14.2 C 0 km/h
1788 12-06-2014 06:05:00 14.1 C 10.8 g/m*3 14.1 C 0 km/h
1789 12-06-2014 06:10:00 14.1 C 10.8 g/m*3 14.1 C 0 km/h
1790 12-06-2014 06:15:00 14.1 C 10.8 g/m*3 14.1 C 1.6 km/h
1791 12-06-2014 06:20:00 14.2 C 10.87 g/m*3 14.2 C 0 km/h
1792 12-06-2014 06:25:00 14.2 C 10.99 g/m*3 14.2 C 0 km/h
1793 12-06-2014 06:30:00 14.2 C 10.87 g/m*3 14.2 C 0 km/h
1794 12-06-2014 06:35:00 14.2 C 10.99 g/m*3 14.2 C 0 km/h
1795 12-06-2014 06:40:00 14.2 C 10.99 g/m*3 14.2 C 0 km/h
1796 12-06-2014 06:45:00 14.2 C 10.99 g/m*3 14.2 C 0 km/h
1797 12-06-2014 06:50:00 14.3 C 10.93 g/m*3 14.3 C 0 km/h
1798 12-06-2014 06:55:00 14.4 C 11 g/m*3 14.4 C 0 km/h
1799 12-06-2014 07:00:00 14.4 C 10.88 g/m*3 14.4 C 0 km/h
1800 12-06-2014 07:05:00 14.4 C 10.88 g/m*3 14.4 C 0 km/h
Sensor: Nr:Datum:Temp:Abs-Feuchte:Windchill:Wind:
Aussen-T/F 1801 12-06-2014 07:10:00 14.6 C 11.14 g/m*3 14.6 C 0 km/h
1802 12-06-2014 07:15:00 14.6 C 11.14 g/m*3 14.6 C 0 km/h
1803 12-06-2014 07:20:00 14.6 C 11.26 g/m*3 14.6 C 0 km/h
1804 12-06-2014 07:25:00 14.6 C 11.14 g/m*3 14.6 C 0 km/h
1805 12-06-2014 07:30:00 14.7 C 11.33 g/m*3 14.7 C 0 km/h
1806 12-06-2014 07:35:00 14.8 C 11.27 g/m*3 14.8 C 0 km/h
1807 12-06-2014 07:40:00 14.8 C 11.15 g/m*3 14.8 C 0 km/h
1808 12-06-2014 07:45:00 14.9 C 11.22 g/m*3 14.9 C 0 km/h
1809 12-06-2014 07:50:00 15.2 C 11.42 g/m*3 15.2 C 0 km/h
1810 12-06-2014 07:55:00 15.3 C 11.36 g/m*3 15.3 C 1.6 km/h
1811 12-06-2014 08:00:00 15.6 C 11.44 g/m*3 15.6 C 0 km/h
1812 12-06-2014 08:05:00 15.8 C 11.31 g/m*3 15.8 C 1.6 km/h
1813 12-06-2014 08:10:00 16.1 C 11.38 g/m*3 16.1 C 3.2 km/h
1814 12-06-2014 08:15:00 16.3 C 11.38 g/m*3 16.3 C 4.8 km/h
1815 12-06-2014 08:20:00 16.4 C 11.31 g/m*3 16.4 C 3.2 km/h
1816 12-06-2014 08:25:00 16.6 C 11.3 g/m*3 16.6 C 6.4 km/h
1817 12-06-2014 08:30:00 16.7 C 11.51 g/m*3 16.7 C 4.8 km/h
1818 12-06-2014 08:35:00 16.9 C 11.51 g/m*3 16.9 C 3.2 km/h
1819 12-06-2014 08:40:00 17.1 C 11.65 g/m*3 17.1 C 6.4 km/h
1820 12-06-2014 08:45:00 17.2 C 11.42 g/m*3 17.2 C 4.8 km/h
1821 12-06-2014 08:50:00 17.3 C 11.49 g/m*3 17.3 C 4.8 km/h
1822 12-06-2014 08:55:00 17.4 C 11.41 g/m*3 17.4 C 1.6 km/h
1823 12-06-2014 09:00:00 17.6 C 11.55 g/m*3 17.6 C 4.8 km/h
1824 12-06-2014 09:05:00 17.7 C 11.62 g/m*3 17.7 C 4.8 km/h
1825 12-06-2014 09:10:00 17.8 C 11.69 g/m*3 17.8 C 4.8 km/h
Sensor: Nr:Datum:Temp:Abs-Feuchte:Windchill:Wind:
Aussen-T/F 1826 12-06-2014 09:15:00 17.7 C 11.62 g/m*3 17.7 C 1.6 km/h
1827 12-06-2014 09:20:00 17.7 C 11.62 g/m*3 17.7 C 0 km/h
1828 12-06-2014 09:25:00 17.8 C 11.84 g/m*3 17.8 C 1.6 km/h
1829 12-06-2014 09:30:00 17.9 C 11.91 g/m*3 17.9 C 1.6 km/h
1830 12-06-2014 09:35:00 18 C 11.83 g/m*3 18 C 4.8 km/h
1831 12-06-2014 09:40:00 18.1 C 11.74 g/m*3 18.1 C 0 km/h
1832 12-06-2014 09:45:00 18.2 C 11.81 g/m*3 18.2 C 4.8 km/h
1833 12-06-2014 09:50:00 18.4 C 11.95 g/m*3 18.4 C 6.4 km/h
1834 12-06-2014 09:55:00 18.7 C 12.17 g/m*3 18.7 C 4.8 km/h
1835 12-06-2014 10:00:00 18.9 C 12.15 g/m*3 18.9 C 4.8 km/h
1836 12-06-2014 10:05:00 19.1 C 12.46 g/m*3 19.1 C 1.6 km/h
1837 12-06-2014 10:10:00 19.4 C 12.35 g/m*3 19.4 C 3.2 km/h
1838 12-06-2014 10:15:00 19.7 C 12.4 g/m*3 19.7 C 3.2 km/h
1839 12-06-2014 10:20:00 19.9 C 12.2 g/m*3 19.9 C 3.2 km/h
1840 12-06-2014 10:25:00 20.1 C 12.86 g/m*3 20.1 C 1.6 km/h
1841 12-06-2014 10:30:00 20.3 C 12.31 g/m*3 20.3 C 1.6 km/h
1842 12-06-2014 10:35:00 20.6 C 12.71 g/m*3 20.6 C 4.8 km/h
1843 12-06-2014 10:40:00 20.9 C 12.75 g/m*3 20.9 C 4.8 km/h
1844 12-06-2014 10:45:00 21 C 12.64 g/m*3 21 C 4.8 km/h
1845 12-06-2014 10:50:00 21.2 C 12.6 g/m*3 21.2 C 4.8 km/h
1846 12-06-2014 10:55:00 21.4 C 12 g/m*3 21.4 C 3.2 km/h
1847 12-06-2014 11:00:00 21.4 C 12.19 g/m*3 21.4 C 4.8 km/h
1848 12-06-2014 11:05:00 21.6 C 12.33 g/m*3 21.6 C 4.8 km/h
1849 12-06-2014 11:10:00 21.8 C 12.28 g/m*3 21.8 C 9.7 km/h
1850 12-06-2014 11:15:00 21.9 C 11.96 g/m*3 21.9 C 11.3 km/h
Sensor: Nr:Datum:Temp:Abs-Feuchte:Windchill:Wind:
Aussen-T/F 1851 12-06-2014 11:20:00 21.9 C 11.77 g/m*3 21.9 C 11.3 km/h
1852 12-06-2014 11:25:00 22.1 C 12.1 g/m*3 22.1 C 9.7 km/h
1853 12-06-2014 11:30:00 22.3 C 12.24 g/m*3 22.3 C 8.1 km/h
1854 12-06-2014 11:35:00 22.4 C 12.11 g/m*3 22.4 C 8.1 km/h
1855 12-06-2014 11:40:00 22.5 C 12.18 g/m*3 22.5 C 9.7 km/h
1856 12-06-2014 11:45:00 22.6 C 12.05 g/m*3 22.6 C 6.4 km/h
1857 12-06-2014 11:50:00 22.8 C 12.19 g/m*3 22.8 C 12.9 km/h
1858 12-06-2014 11:55:00 22.9 C 11.85 g/m*3 22.9 C 6.4 km/h
1859 12-06-2014 12:00:00 23 C 11.92 g/m*3 23 C 4.8 km/h
1860 12-06-2014 12:05:00 23 C 11.92 g/m*3 23 C 9.7 km/h
1861 12-06-2014 12:10:00 23.1 C 11.37 g/m*3 23.1 C 6.4 km/h
1862 12-06-2014 12:15:00 23.2 C 11.64 g/m*3 23.2 C 9.7 km/h
1863 12-06-2014 12:20:00 23.3 C 11.29 g/m*3 23.3 C 9.7 km/h
1864 12-06-2014 12:25:00 23.4 C 11.78 g/m*3 23.4 C 9.7 km/h
1865 12-06-2014 12:30:00 23.7 C 11.98 g/m*3 23.7 C 9.7 km/h
1866 12-06-2014 12:35:00 23.9 C 11.25 g/m*3 23.9 C 9.7 km/h
1867 12-06-2014 12:40:00 23.9 C 11.68 g/m*3 23.9 C 4.8 km/h
1868 12-06-2014 12:45:00 23.9 C 11.47 g/m*3 23.9 C 11.3 km/h
1869 12-06-2014 12:50:00 24 C 10.88 g/m*3 24 C 4.8 km/h
1870 12-06-2014 12:55:00 23.9 C 11.9 g/m*3 23.9 C 9.7 km/h
1871 12-06-2014 13:00:00 24.1 C 11.82 g/m*3 24.1 C 9.7 km/h
1872 12-06-2014 13:05:00 24.3 C 11.29 g/m*3 24.3 C 12.9 km/h
1873 12-06-2014 13:10:00 24.5 C 11.19 g/m*3 24.5 C 6.4 km/h
1874 12-06-2014 13:15:00 24.3 C 11.29 g/m*3 24.3 C 6.4 km/h
1875 12-06-2014 13:20:00 24.3 C 11.51 g/m*3 24.3 C 9.7 km/h
Sensor: Nr:Datum:Temp:Abs-Feuchte:Windchill:Wind:
Aussen-T/F 1876 12-06-2014 13:25:00 24.5 C 12.53 g/m*3 24.5 C 9.7 km/h
1877 12-06-2014 13:30:00 24.7 C 12.22 g/m*3 24.7 C 9.7 km/h
1878 12-06-2014 13:35:00 24.7 C 11.32 g/m*3 24.7 C 6.4 km/h
1879 12-06-2014 13:40:00 24.7 C 11.32 g/m*3 24.7 C 8.1 km/h
1880 12-06-2014 13:45:00 24.8 C 11.61 g/m*3 24.8 C 9.7 km/h
1881 12-06-2014 13:50:00 24.9 C 11.45 g/m*3 24.9 C 4.8 km/h
1882 12-06-2014 13:55:00 25.1 C 11.57 g/m*3 25.1 C 9.7 km/h
1883 12-06-2014 14:00:00 25.2 C 11.17 g/m*3 25.2 C 8.1 km/h
1884 12-06-2014 14:05:00 25.3 C 11.94 g/m*3 25.3 C 9.7 km/h
1885 12-06-2014 14:10:00 25.4 C 11.54 g/m*3 25.4 C 8.1 km/h
1886 12-06-2014 14:15:00 25.6 C 11.9 g/m*3 25.6 C 12.9 km/h
1887 12-06-2014 14:20:00 25.5 C 11.6 g/m*3 25.5 C 9.7 km/h
1888 12-06-2014 14:25:00 25.5 C 10.42 g/m*3 25.5 C 9.7 km/h
1889 12-06-2014 14:30:00 25.4 C 11.3 g/m*3 25.4 C 11.3 km/h
1890 12-06-2014 14:35:00 25.7 C 11.25 g/m*3 25.7 C 9.7 km/h
1891 12-06-2014 14:40:00 25.7 C 10.77 g/m*3 25.7 C 8.1 km/h
1892 12-06-2014 14:45:00 25.8 C 10.83 g/m*3 25.8 C 12.9 km/h
1893 12-06-2014 14:50:00 25.8 C 10.35 g/m*3 25.8 C 9.7 km/h
1894 12-06-2014 14:55:00 25.6 C 10.71 g/m*3 25.6 C 8.1 km/h
1895 12-06-2014 15:00:00 25.7 C 10.53 g/m*3 25.7 C 8.1 km/h
1896 12-06-2014 15:05:00 26.1 C 10.28 g/m*3 26.1 C 8.1 km/h
1897 12-06-2014 15:10:00 26.2 C 10.34 g/m*3 26.2 C 9.7 km/h
1898 12-06-2014 15:15:00 26.1 C 10.28 g/m*3 26.1 C 9.7 km/h
1899 12-06-2014 15:20:00 26.1 C 10.28 g/m*3 26.1 C 11.3 km/h
1900 12-06-2014 15:25:00 26.1 C 10.53 g/m*3 26.1 C 14.5 km/h
Sensor: Nr:Datum:Temp:Abs-Feuchte:Windchill:Wind:
Aussen-T/F 1901 12-06-2014 15:30:00 26 C 10.96 g/m*3 26 C 11.3 km/h
1902 12-06-2014 15:35:00 26 C 10.47 g/m*3 26 C 8.1 km/h
1903 12-06-2014 15:40:00 26.2 C 9.6 g/m*3 26.2 C 9.7 km/h
1904 12-06-2014 15:45:00 26.4 C 9.46 g/m*3 26.4 C 6.4 km/h
1905 12-06-2014 15:50:00 26.4 C 9.21 g/m*3 26.4 C 12.9 km/h
1906 12-06-2014 15:55:00 26.5 C 9.01 g/m*3 26.5 C 8.1 km/h
1907 12-06-2014 16:00:00 26.5 C 9.26 g/m*3 26.5 C 11.3 km/h
1908 12-06-2014 16:05:00 26.5 C 9.01 g/m*3 26.5 C 12.9 km/h
1909 12-06-2014 16:10:00 26.6 C 9.57 g/m*3 26.6 C 6.4 km/h
1910 12-06-2014 16:15:00 26.8 C 9.67 g/m*3 26.8 C 8.1 km/h
1911 12-06-2014 16:20:00 26.8 C 9.42 g/m*3 26.8 C 11.3 km/h
1912 12-06-2014 16:25:00 26.7 C 9.11 g/m*3 26.7 C 12.9 km/h
1913 12-06-2014 16:30:00 26.8 C 8.91 g/m*3 26.8 C 12.9 km/h
1914 12-06-2014 16:35:00 26.7 C 9.62 g/m*3 26.7 C 6.4 km/h
1915 12-06-2014 16:40:00 27 C 9.52 g/m*3 27 C 9.7 km/h
1916 12-06-2014 16:45:00 27.1 C 9.32 g/m*3 27.1 C 14.5 km/h
1917 12-06-2014 16:50:00 27.1 C 9.32 g/m*3 27.1 C 8.1 km/h
1918 12-06-2014 16:55:00 26.8 C 9.67 g/m*3 26.8 C 9.7 km/h
1919 12-06-2014 17:00:00 26.8 C 9.16 g/m*3 26.8 C 11.3 km/h
1920 12-06-2014 17:05:00 26.8 C 9.16 g/m*3 26.8 C 11.3 km/h
1921 12-06-2014 17:10:00 26.8 C 9.67 g/m*3 26.8 C 11.3 km/h
1922 12-06-2014 17:15:00 26.8 C 9.67 g/m*3 26.8 C 11.3 km/h
1923 12-06-2014 17:20:00 26.8 C 9.42 g/m*3 26.8 C 11.3 km/h
1924 12-06-2014 17:25:00 26.8 C 10.44 g/m*3 26.8 C 12.9 km/h
1925 12-06-2014 17:30:00 26.6 C 10.32 g/m*3 26.6 C 12.9 km/h
Sensor: Nr:Datum:Temp:Abs-Feuchte:Windchill:Wind:
Aussen-T/F 1926 12-06-2014 17:35:00 26.4 C 10.21 g/m*3 26.4 C 14.5 km/h
1927 12-06-2014 17:40:00 26.4 C 9.96 g/m*3 26.4 C 9.7 km/h
1928 12-06-2014 17:45:00 26.7 C 10.38 g/m*3 26.7 C 9.7 km/h
1929 12-06-2014 17:50:00 26.6 C 9.82 g/m*3 26.6 C 16.1 km/h
1930 12-06-2014 17:55:00 26.4 C 9.96 g/m*3 26.4 C 9.7 km/h
1931 12-06-2014 18:00:00 26.6 C 10.07 g/m*3 26.6 C 11.3 km/h
1932 12-06-2014 18:05:00 26.7 C 10.38 g/m*3 26.7 C 9.7 km/h
1933 12-06-2014 18:10:00 26.6 C 9.82 g/m*3 26.6 C 11.3 km/h
1934 12-06-2014 18:15:00 26.3 C 9.41 g/m*3 26.3 C 6.4 km/h
1935 12-06-2014 18:20:00 26.3 C 9.41 g/m*3 26.3 C 9.7 km/h
1936 12-06-2014 18:25:00 26.4 C 9.46 g/m*3 26.4 C 8.1 km/h
1937 12-06-2014 18:30:00 26.4 C 10.21 g/m*3 26.4 C 9.7 km/h
1938 12-06-2014 18:35:00 26.3 C 9.41 g/m*3 26.3 C 8.1 km/h
1939 12-06-2014 18:40:00 26.3 C 9.65 g/m*3 26.3 C 9.7 km/h
1940 12-06-2014 18:45:00 26 C 9.98 g/m*3 26 C 11.3 km/h
1941 12-06-2014 18:50:00 25.7 C 10.06 g/m*3 25.7 C 11.3 km/h
1942 12-06-2014 18:55:00 25.7 C 9.58 g/m*3 25.7 C 12.9 km/h
1943 12-06-2014 19:00:00 25.7 C 9.58 g/m*3 25.7 C 9.7 km/h
1944 12-06-2014 19:05:00 25.7 C 9.58 g/m*3 25.7 C 9.7 km/h
1945 12-06-2014 19:10:00 25.7 C 9.58 g/m*3 25.7 C 9.7 km/h
1946 12-06-2014 19:15:00 25.6 C 9.52 g/m*3 25.6 C 9.7 km/h
1947 12-06-2014 19:20:00 25.3 C 9.36 g/m*3 25.3 C 11.3 km/h
1948 12-06-2014 19:25:00 24.9 C 9.16 g/m*3 24.9 C 8.1 km/h
1949 12-06-2014 19:30:00 24.8 C 9.56 g/m*3 24.8 C 9.7 km/h
1950 12-06-2014 19:35:00 24.6 C 9.45 g/m*3 24.6 C 11.3 km/h
Sensor: Nr:Datum:Temp:Abs-Feuchte:Windchill:Wind:
Aussen-T/F 1951 12-06-2014 19:40:00 24.3 C 9.07 g/m*3 24.3 C 9.7 km/h
1952 12-06-2014 19:45:00 24.2 C 9.24 g/m*3 24.2 C 9.7 km/h
1953 12-06-2014 19:50:00 24.2 C 9.24 g/m*3 24.2 C 8.1 km/h
1954 12-06-2014 19:55:00 24.2 C 9.24 g/m*3 24.2 C 12.9 km/h
1955 12-06-2014 20:00:00 24.1 C 9.41 g/m*3 24.1 C 9.7 km/h
1956 12-06-2014 20:05:00 23.9 C 9.3 g/m*3 23.9 C 8.1 km/h
1957 12-06-2014 20:10:00 23.7 C 9.41 g/m*3 23.7 C 11.3 km/h
1958 12-06-2014 20:15:00 23.5 C 9.09 g/m*3 23.5 C 6.4 km/h
1959 12-06-2014 20:20:00 23.4 C 9.25 g/m*3 23.4 C 8.1 km/h
1960 12-06-2014 20:25:00 23.3 C 8.99 g/m*3 23.3 C 6.4 km/h
1961 12-06-2014 20:30:00 23.3 C 8.99 g/m*3 23.3 C 4.8 km/h
1962 12-06-2014 20:35:00 23.2 C 9.36 g/m*3 23.2 C 6.4 km/h
1963 12-06-2014 20:40:00 22.9 C 8.99 g/m*3 22.9 C 8.1 km/h
1964 12-06-2014 20:45:00 22.8 C 9.35 g/m*3 22.8 C 8.1 km/h
1965 12-06-2014 20:50:00 22.7 C 9.29 g/m*3 22.7 C 8.1 km/h
1966 12-06-2014 20:55:00 22.5 C 9.39 g/m*3 22.5 C 3.2 km/h
1967 12-06-2014 21:00:00 22.3 C 9.48 g/m*3 22.3 C 4.8 km/h
1968 12-06-2014 21:05:00 22.2 C 9.82 g/m*3 22.2 C 0 km/h
1969 12-06-2014 21:10:00 22.2 C 9.82 g/m*3 22.2 C 3.2 km/h
1970 12-06-2014 21:15:00 22.2 C 9.82 g/m*3 22.2 C 1.6 km/h
1971 12-06-2014 21:20:00 22.2 C 9.82 g/m*3 22.2 C 3.2 km/h
1972 12-06-2014 21:25:00 22.2 C 9.82 g/m*3 22.2 C 0 km/h
1973 12-06-2014 21:30:00 19.9 C 10.82 g/m*3 19.9 C 0 km/h
1974 12-06-2014 21:35:00 19.9 C 10.82 g/m*3 19.9 C 0 km/h
1975 12-06-2014 21:40:00 18.9 C 10.53 g/m*3 18.9 C 0 km/h
Sensor: Nr:Datum:Temp:Abs-Feuchte:Windchill:Wind:
Aussen-T/F 1976 12-06-2014 21:45:00 18.6 C 10.82 g/m*3 18.6 C 0 km/h
1977 12-06-2014 21:50:00 18.3 C 10.48 g/m*3 18.3 C 0 km/h
1978 12-06-2014 21:55:00 18.2 C 10.41 g/m*3 18.2 C 1.6 km/h
1979 12-06-2014 22:00:00 18 C 10.44 g/m*3 18 C 1.6 km/h
1980 12-06-2014 22:05:00 17.9 C 10.38 g/m*3 17.9 C 1.6 km/h
1981 12-06-2014 22:10:00 17.9 C 10.23 g/m*3 17.9 C 1.6 km/h
1982 12-06-2014 22:15:00 18 C 10.29 g/m*3 18 C 3.2 km/h
1983 12-06-2014 22:20:00 18.1 C 10.35 g/m*3 18.1 C 0 km/h
1984 12-06-2014 22:25:00 17.9 C 10.23 g/m*3 17.9 C 0 km/h
1985 12-06-2014 22:30:00 17.8 C 10.32 g/m*3 17.8 C 3.2 km/h
1986 12-06-2014 22:35:00 17.8 C 10.32 g/m*3 17.8 C 1.6 km/h
1987 12-06-2014 22:40:00 17.7 C 10.26 g/m*3 17.7 C 1.6 km/h
1988 12-06-2014 22:45:00 17.5 C 10.44 g/m*3 17.5 C 0 km/h
1989 12-06-2014 22:50:00 17.3 C 10.31 g/m*3 17.3 C 0 km/h
1990 12-06-2014 22:55:00 17.2 C 10.4 g/m*3 17.2 C 0 km/h
1991 12-06-2014 23:00:00 16.9 C 10.21 g/m*3 16.9 C 0 km/h
1992 12-06-2014 23:05:00 16.8 C 10.29 g/m*3 16.8 C 1.6 km/h
1993 12-06-2014 23:10:00 16.7 C 10.37 g/m*3 16.7 C 0 km/h
1994 12-06-2014 23:15:00 16.6 C 10.45 g/m*3 16.6 C 0 km/h
1995 12-06-2014 23:20:00 16.5 C 10.39 g/m*3 16.5 C 0 km/h
1996 12-06-2014 23:25:00 16.4 C 10.33 g/m*3 16.4 C 0 km/h
1997 12-06-2014 23:30:00 16.3 C 10.27 g/m*3 16.3 C 0 km/h
1998 12-06-2014 23:35:00 16.3 C 10.27 g/m*3 16.3 C 0 km/h
1999 12-06-2014 23:40:00 16.2 C 10.34 g/m*3 16.2 C 0 km/h
2000 12-06-2014 23:45:00 16.1 C 10.42 g/m*3 16.1 C 0 km/h
Sensor: Nr:Datum:Temp:Abs-Feuchte:Windchill:Wind:
Aussen-T/F 2001 12-06-2014 23:50:00 16 C 10.35 g/m*3 16 C 0 km/h
2002 12-06-2014 23:55:00 15.9 C 10.43 g/m*3 15.9 C 0 km/h

Legende:
   Min
   Max


Maximal/Minimal-Werte vom 06.06.2014 - 12.06.2014

Sensor Min Max Avg
Temp
(Aussen-T/F)
6.8 °C
06-06-2014  05:30:00
35.4 °C
09-06-2014  18:00:00
21.66 °C
Abs-Feuchte
(Aussen-T/F)
7.11 g/m*3
06-06-2014  05:30:00
19.11 g/m*3
09-06-2014  19:35:00
13.22 g/m*3
Windchill
(Aussen-T/F)
6.8 C
06-06-2014  05:30:00
35.4 C
09-06-2014  18:00:00
21.65 C

Die Daten stammen von einer Davis Vantage Pro 2 Wetter-Station und werden unter Linux mit der Software wview2wettercgi und aufbereitet. Alle Angaben erfolgen ohne Gewähr für ihre Vollständigkeit oder Richtigkeit.
Kontakt: Rainer Krienke krienke@uni-koblenz.de . Meine Webseiten an der Uni Koblenz oder privat.
Version: $Revision: 0.78 $